     2.11           OBSERVATION DATA    G (GPS)             RINEX VERSION / TYPE
teqc 2010Oct21 OPUS Account 20111030 16:30:31UTC            PGM / RUN BY / DATE
Q 1523                                                      MARKER NAME
1195                                                        MARKER NUMBER
CSMIDDLETON NGS                                             OBSERVER / AGENCY
0220320676 TRIMBLE 5700 1.30                                REC # / TYPE / VERS
12518007 TRM41249.00 NONE                                   ANT # / TYPE
  -751951.0700 -5515789.6355  3102805.0858                  APPROX POSITION XYZ
        2.0000        0.0000        0.0000                  ANTENNA: DELTA H/E/N
     1     1                                                WAVELENGTH FACT L1/2
     5    L1    L2    C1    P1    P2                        # / TYPES OF OBSERV
    15                                                      LEAP SECONDS
  2011     9    27    17     0   30.0000000     GPS         TIME OF FIRST OBS
                                                            END OF HEADER
 11  9 27 17  0 30.0000000  0  7G07G08G11G17G24G26G28
    432297.19957    323989.90653  21336299.5784                   21336300.5824
    -67568.48458    -55206.16654  19980777.5394                   19980777.7894
    339063.98857    250095.85853  22121972.3834                   22121973.4774
   -591328.76657   -448327.08054  21248935.2894                   21248936.4494
     -1554.00057     -5433.02553  22112182.1094                   22112184.8524
    -84052.95357    -67461.89953  22710147.0634                   22710148.5744
   -362062.23058   -276712.48654  21549369.6484                   21549369.1604
 11  9 27 17  1  0.0000000  0  7G07G08G11G17G24G26G28
    485651.19547    365564.38844  21346452.3204                   21346453.4734
    -73002.84848    -59440.80444  19979743.1644                   19979743.9344
    379394.00447    281521.59643  22129647.2504                   22129647.7734
   -657188.20747   -499646.08244  21236402.6884                   21236403.6054
       467.30547     -3858.08443  22112566.8364                   22112568.0124
    -91336.71147    -73137.50443  22708761.1024                   22708764.0554
   -403549.31248   -309040.11044  21541475.0554                   21541475.1844
 11  9 27 17  1 30.0000000  0  7G07G08G11G17G24G26G28
    539374.90647    407426.95244  21356676.0394                   21356677.8754
    -77917.75848    -63270.62444  19978808.0944                   19978808.4774
    420158.71947    313286.40143  22137404.2734                   22137404.7504
   -722728.49247   -550716.41444  21223931.0394                   21223931.9414
      2996.19947     -1887.42943  22113048.4774                   22113051.7274
    -98100.87547    -78408.56043  22707474.4924                   22707478.2664
   -445052.83248   -341380.51844  21533577.0944                   21533576.9304
 11  9 27 17  2  0.0000000  0  7G07G08G11G17G24G26G28
    593470.49647    449579.21244  21366970.1334                   21366970.9144
    -82309.41048    -66692.75244  19977972.2664                   19977973.1484
    461359.68847    345390.96143  22145244.7974                   22145245.9304
   -787945.99247   -601535.25044  21211519.9694                   21211520.7664
      6036.03547       481.23543  22113626.6724                   22113629.8794
   -104343.48847    -83272.80843  22706286.4694                   22706289.2344
   -486568.93048   -373730.72544  21525677.0314                   21525676.8204
 11  9 27 17  2 30.0000000  0  7G07G08G11G17G24G26G28
    647938.31647    492021.55043  21377335.2734                   21377336.4064
    -86175.34848    -69705.21144  19977236.8134                   19977237.0394
    502996.39847    377835.02943  22153167.6174                   22153168.8484
   -852839.21147   -652101.39844  21199171.3754                   21199171.6644
      9588.12547      3249.10743  22114302.6174                   22114305.5164
   -110063.88347    -87730.30943  22705198.0944                   22705201.3164
   -528096.18448   -406089.59344  21517774.6884                   21517773.6914
 11  9 27 17  3  0.0000000  0  7G07G08G11G17G24G26G28
    702781.96947    534756.78444  21387771.6644                   21387772.9144
    -89510.27748    -72303.89844  19976602.2974                   19976602.1054
    545072.10547    410621.30143  22161174.6414                   22161175.5904
   -917402.94547   -702410.70444  21186885.3364                   21186887.0314
     13656.90247      6419.45443  22115076.7734                   22115080.1254
   -115258.72347    -91778.17343  22704209.2034                   22704212.0984
   -569628.79348   -438452.66444  21509871.3754                   21509870.6684
 11  9 27 17  3 30.0000000  0  7G07G08G11G17G24G26G28
    758003.72747    577786.56344  21398280.2034                   21398281.6174
    -92309.21948    -74484.92144  19976069.3134                   19976070.0784
    587589.20347    443751.43743  22169265.3754                   22169266.5944
   -981632.98447   -752460.03644  21174662.6954                   21174663.7384
     18246.50847      9995.67943  22115950.4924                   22115953.3984
   -119924.73847    -95414.17143  22703322.0864                   22703323.0044
   -611161.82448   -470816.08044  21501967.3914                   21501967.5204
 11  9 27 17  4  0.0000000  0  7G07G08G11G17G24G26G28
    813602.67247    621110.34844  21408860.2894                   21408861.4264
    -94570.98048    -76247.36345  19975639.0784                   19975639.8794
    630545.84847    477224.16743  22177439.5784                   22177441.2814
  -1045529.26647   -802249.38744  21162504.0704                   21162505.4414
     23356.74247     13977.69643  22116923.0234                   22116926.4064
   -124063.42247    -98639.13343  22702534.0084                   22702537.3874
   -652695.16847   -503179.72344  21494064.2424                   21494063.2544
 11  9 27 17  4 30.0000000  0  7G07G08G11G17G24G26G28
    869571.91448    664722.61044  21419510.7974                   21419512.5234
    -96300.50848    -77595.05044  19975310.0784                   19975311.2234
    673934.51647    511033.45543  22185696.7424                   22185697.7814
  -1109097.01248   -851782.65344  21150407.3364                   21150407.2304
     28981.94547     18361.00943  22117993.4844                   22117995.7504
   -127681.48846   -101458.49243  22701845.3674                   22701848.0314
   -694233.64547   -535547.37544  21486159.4774                   21486158.6994
 11  9 27 17  5  0.0000000  0  7G07G08G11G17G24G26G28
    925905.68447    708618.99343  21430230.8674                   21430232.5864
    -97502.10548    -78531.39545  19975081.2034                   19975081.8054
    717748.82047    545174.31743  22194034.0084                   22194035.6334
  -1172340.67248   -901063.40944  21138372.2584                   21138372.1564
     35117.01647     23141.51143  22119161.0234                   22119163.7114
   -130784.66447   -103876.52943  22701255.0554                   22701257.1644
   -735781.11748   -567922.01144  21478253.2584                   21478252.2774
 11  9 27 17  5 30.0000000  0  7G07G08G11G17G24G26G28
    982602.13747    752797.90543  21441019.8984                   21441020.8594
    -98175.13748    -79055.87344  19974953.3674                   19974953.9414
    761986.65247    579645.31943  22202451.8364                   22202452.7234
  -1235260.41048   -950091.72444  21126399.0704                   21126399.8794
     41761.43047     28319.02643  22120425.9144                   22120427.0634
   -133374.82447   -105894.90943  22700762.3834                   22700764.4804
   -777337.46948   -600303.57644  21470345.3594                   21470344.8164
 11  9 27 17  6  0.0000000  0  7G07G08G11G17G24G26G28
   1039661.80147    797259.87743  21451878.0314                   21451879.1644
    -98316.91048    -79166.41544  19974926.3674                   19974926.7034
    806648.19547    614446.32843  22210951.3364                   22210951.9534
  -1297854.30548   -998866.19044  21114487.8524                   21114488.4264
     48916.68847     33894.46143  22121786.4924                   22121789.0984
   -135451.14147   -107512.85243  22700367.0004                   22700368.6954
   -818899.97748   -632689.96943  21462436.0634                   21462435.6724
 11  9 27 17  6 30.0000000  0  7G07G08G11G17G24G26G28
   1097083.03547    842003.60543  21462804.8364                   21462806.3054
    -97927.44948    -78862.92944  19975000.4844                   19975000.9264
    851731.16847    649576.04143  22219530.2114                   22219531.8984
  -1360122.63348  -1047386.88844  21102638.3524                   21102638.9064
     56582.07847     39867.46743  22123245.7034                   22123248.4414
   -137015.42247   -108731.87243  22700069.5084                   22700072.0354
   -860468.55548   -665081.02544  21454526.1954                   21454525.4884
 11  9 27 17  7  0.0000000  0  7G07G08G11G17G24G26G28
   1154864.30548    887027.85343  21473800.7194                   21473801.6334
    -97006.36748    -78145.25344  19975175.8204                   19975176.4804
    897233.25447    685032.11843  22228188.9144                   22228190.4454
  -1422065.49248  -1095654.01744  21090851.2584                   21090851.4264
     64757.00047     46237.50843  22124801.0394                   22124803.2774
   -138069.05147   -109552.82555  22699869.0784                   22699875.5944
   -902042.51648   -697476.37144  21446614.9224                   21446614.7814
 11  9 27 17  7 30.0000000  0  7G07G08G11G17G24G26G28
   1213006.16047    932333.09643  21484864.5394                   21484866.5944
    -95550.60548    -77010.92844  19975452.9304                   19975453.7544
    943154.84847    720815.10943  22236927.8444                   22236928.7034
  -1483680.18748  -1143665.49744  21079126.0084                   21079126.6764
     73443.30147     53006.03943  22126454.1094                   22126456.9884
   -138611.590 7                  22699765.695
   -943619.03148   -729873.57844  21438702.8204                   21438702.2774
 11  9 27 17  8  0.0000000  0  7G07G08G11G17G24G26G28
   1271507.66047    977918.48644  21495997.3914                   21495998.2544
    -93559.43448    -75459.42344  19975831.4534                   19975832.0944
    989494.29747    756923.69443  22245745.7664                   22245746.3954
  -1544966.84448  -1191421.27944  21067464.1254                   21067464.6414
     82640.78547     60172.87143  22128204.2114                   22128207.6024
   -138644.06247   -110001.11753  22699759.6564                   22699765.2504
   -985197.26648   -762272.27944  21430790.9224                   21430791.1174
 11  9 27 17  8 30.0000000  0  7G07G08G11G17G24G26G28
   1330364.74647   1023781.09044  21507197.4924                   21507198.8714
    -91034.90648    -73492.29744  19976312.0004                   19976312.8554
   1036247.10547    793354.43543  22254642.6414                   22254643.3054
  -1605927.47348  -1238923.06044  21055863.3134                   21055864.0514
     92346.76247     67735.94843  22130051.3674                   22130053.8554
   -138170.11747   -109631.85943  22699849.7034                   22699853.5274
  -1026779.04748   -794673.61344  21422878.2974                   21422877.6174
 11  9 27 17  9  0.0000000  0  7G07G08G11G17G24G26G28
   1389579.60248   1069922.37244  21518465.6724                   21518467.2814
    -87972.97348    -71106.40344  19976894.7344                   19976895.2234
   1083415.23447    830108.72843  22263618.1954                   22263618.9384
  -1666558.91448  -1286168.25844  21044325.1484                   21044326.2624
    102564.08247     75697.46143  22131995.6724                   22131998.4454
   -137187.82047   -108866.45043  22700037.4384                   22700039.3524
  -1068360.19548   -827074.53543  21414965.1804                   21414965.1334
 11  9 27 17  9 30.0000000  0  7G07G08G11G17G24G26G28
   1449149.55147   1116340.44644  21529801.6484                   21529802.5664
    -84374.26248    -68302.24744  19977579.6174                   19977579.8794
   1130995.53547    867184.27743  22272673.6564                   22272673.6564
  -1726862.18448  -1333157.79944  21032850.2814                   21032850.1724
    113291.24247     84056.29343  22134037.1094                   22134039.5904
   -135699.80546   -107707.02643  22700319.7974                   22700321.0394
  -1109941.00848   -859475.12444  21407053.1254                   21407052.6564
 11  9 27 17 10  0.0000000  0  7G07G08G11G17G24G26G28
   1509075.17648   1163035.65944  21541205.3674                   21541206.1914
    -80235.96148    -65077.65144  19978366.9534                   19978368.2894
   1178987.94947    904580.93843  22281805.2664                   22281806.5314
  -1786835.12548  -1379889.93444  21021437.6724                   21021438.5004
    124529.76647     92813.59343  22136176.0084                   22136179.3714
   -133705.504 6                  22700699.180
  -1151518.75048   -891873.38444  21399141.1564                   21399140.6914
 11  9 27 17 10 30.0000000  0  7G07G08G11G17G24G26G28
   1569354.64548   1210006.54143  21552675.9694                   21552677.4574
    -75558.73848    -61433.08344  19979257.6484                   19979257.5084
   1227389.75847    942296.56143  22291016.0474                   22291016.8164
  -1846478.24248  -1426365.05844  21010087.8914                   21010088.7544
    136278.59047    101968.46443  22138411.5234                   22138413.2344
   -131206.96947   -104206.17353  22701175.5394                   22701177.3794
  -1193093.43448   -924269.19244  21391229.2274                   21391229.1214
 11  9 27 17 11  0.0000000  0  7G07G08G11G17G24G26G28
   1629986.20748   1257251.78244  21564214.1644                   21564215.2074
    -70342.18048    -57368.27644  19980250.1094                   19980250.4104
   1276198.93847    980329.72143  22300304.0864                   22300305.0704
  -1905791.81248  -1472583.39344  20998800.6414                   20998801.3594
    148536.74647    111520.19243  22140743.8594                   22140746.4844
   -128206.11747   -101867.86143  22701745.7894                   22701749.2304
  -1234664.43448   -956662.20744  21383318.8674                   21383318.1134
 11  9 27 17 11 30.0000000  0  7G07G08G11G17G24G26G28
   1690971.49648   1304772.70343  21575819.2814                   21575820.7424
    -64582.85548    -52880.53244  19981346.0474                   19981346.3484
   1325416.75447   1018681.14543  22309670.0474                   22309671.7814
  -1964772.66448  -1518542.42344  20987577.1414                   20987577.8524
    161307.05947    121471.15943  22143174.0314                   22143176.3164
   -124700.93747    -99136.64643  22702412.9454                   22702415.9064
  -1276227.59048   -989049.01244  21375409.5784                   21375408.4614
 11  9 27 17 12  0.0000000  0  7G07G08G11G17G24G26G28
   1752308.18048   1352567.36243  21587491.0784                   21587491.8324
    -58281.04748    -47970.06444  19982545.2974                   19982545.4574
   1375040.33247   1057348.85043  22319113.6484                   22319114.0004
  -2023421.27048  -1564242.63544  20976416.5784                   20976416.7034
    174588.17247    131820.07443  22145701.2584                   22145702.6604
   -120694.08247    -96014.36943  22703175.2274                   22703177.9964
  -1317783.03948  -1021429.94044  21367502.0784                   21367501.1724
 11  9 27 17 12 30.0000000  0  7G07G08G11G17G24G26G28
   3389413.95748   2628234.08643  21899022.0394                   21899023.7774
   1523984.62948   1184964.18944  20283640.4534                   20283640.5354
   3000487.18847   2323930.69743  22628425.2424                   22628427.0314
   -506314.70348   -382081.62644  21265112.9924                   21265113.5164
   1763800.07047   1370166.95443  22448118.7504                   22448120.6884
   1459233.97747   1135098.35743  23003825.8754                   23003828.9454
    216092.85248    173798.06144  21659388.8204                   21659388.8554
 11  9 27 17 13  0.0000000  0  7G07G08G11G17G24G26G28
   3451452.21548   2676575.55943  21910827.3204                   21910828.8954
   1531376.25048   1190723.83644  20285047.1884                   20285046.9574
   3050919.62947   2363228.64543  22638022.4384                   22638023.8754
   -564296.05548   -427261.89144  21254078.8914                   21254080.0274
   1778103.94147   1381312.76843  22450840.8204                   22450842.9494
   1464242.93847   1139001.32943  23004778.9924                   23004782.1094
    174558.78548    141433.85944  21651485.3754                   21651484.0394
 11  9 27 17 13 30.0000000  0  7G07G08G11G17G24G26G28
   3513837.01648   2725186.88943  21922699.1804                   21922700.4024
   1539311.33648   1196906.98444  20286557.2034                   20286557.2504
   3101751.94547   2402838.15343  22647695.3134                   22647697.1454
   -621945.39848   -472183.43444  21243108.5554                   21243109.5354
   1792916.55147   1392854.96743  22453659.8674                   22453662.3094
   1469748.49647   1143291.40043  23005827.2974                   23005829.3244
    133034.55948    109077.28143  21643583.4144                   21643582.6684
 11  9 27 17 14  0.0000000  0  7G07G08G11G17G24G26G28
   3576569.43048   2774069.17744  21934636.8134                   21934638.7544
   1547792.25848   1203515.46144  20288171.1804                   20288171.3054
   3152984.10247   2442759.29543  22657444.8754                   22657445.2894
   -679260.69548   -516844.66844  21232201.5164                   21232202.2154
   1808239.74647   1404795.27243  22456575.6094                   22456578.4734
   1475751.60547   1147968.98943  23006968.8204                   23006972.3674
     91523.44548     76730.96544  21635683.8054                   21635683.8794
 11  9 27 17 14 30.0000000  0  7G07G08G11G17G24G26G28
   3639646.66047   2823220.17143  21946640.2344                   21946641.6254
   1556817.87548   1210548.34444  20289888.3674                   20289888.6884
   3204612.77347   2482989.41843  22667269.3134                   22667270.2664
   -736243.55548   -561246.86844  21221358.3914                   21221359.2114
   1824071.18847   1417131.24343  22459587.7504                   22459590.1054
   1482249.07847   1153032.02543  23008205.1644                   23008208.1054
     50024.85548     44394.38344  21627787.0084                   21627786.3134
 11  9 27 17 15  0.0000000  0  7G07G08G11G17G24G26G28
   3703065.70347   2872637.46643  21958708.6724                   21958710.5944
   1566387.93848   1218005.53144  20291709.3524                   20291710.0744
   3256635.21147   2523526.31243  22677168.9304                   22677170.0434
   -792894.63748   -605390.54444  21210577.7114                   21210578.5274
   1840409.36347   1429862.53743  22462696.7504                   22462699.9774
   1489238.38747   1158478.16343  23009535.9144                   23009537.9614
      8538.93448     12067.67844  21619892.6174                   21619891.7544
 11  9 27 17 15 30.0000000  0  8G07G08G11G17G24G26G28G04
   3766823.97747   2922319.12443  21970841.3134                   21970843.2854
   1576501.15648   1225885.89144  20293633.9224                   20293634.8984
   3309048.10547   2564367.42343  22687142.5784                   22687142.1644
   -849215.15248   -649276.66144  21199860.7584                   21199860.2934
   1857252.18447   1442986.73343  22465901.9844                   22465905.2424
   1496716.49647   1164305.08343  23010958.7034                   23010960.4024
    -32934.94948    -20249.55544  21612000.3984                   21611999.3914
   1375813.93416                  24699158.609
 11  9 27 17 16  0.0000000  0  8G07G08G11G17G24G26G28G04
   3830912.42247   2972258.03643  21983036.9534                   21983038.6844
   1587150.63348   1234184.16544  20295660.8834                   20295661.4614
   3361841.99247   2605505.48643  22697189.5234                   22697191.1524
   -905212.59848   -692910.98444  21189204.6334                   21189205.2234
   1874591.86347   1456498.08943  22469201.6254                   22469203.3094
   1504674.68847   1170506.57543  23012473.4304                   23012476.5234
    -74403.00048    -52562.36444  21604109.0164                   21604108.9574
   1241416.406 6                  24673584.156
 11  9 27 17 16 30.0000000  0  8G07G08G11G17G24G26G28G04
   3895324.32047   3022449.06943  21995294.1174                   21995296.0164
   1598330.73048   1242895.89744  20297788.4064                   20297789.0084
   3415009.10947   2646934.32843  22707306.6564                   22707306.8714
   -960892.62948   -736298.01244  21178609.1254                   21178609.0394
   1892421.81647   1470391.43143  22472594.5004                   22472597.4844
   1513105.29747   1177075.59643  23014077.1094                   23014081.1724
   -115870.01248    -84874.32843  21596218.2344                   21596217.2704
   1106905.660 6                  24647986.906
 11  9 27 17 17  0.0000000  0  8G07G08G11G17G24G26G28G04
   3960062.99247   3072894.59943  22007613.9614                   22007615.5744
   1610046.38748   1252024.90244  20300017.6564                   20300018.8244
   3468552.64847   2688656.56443  22717495.7814                   22717495.9694
  -1016250.37548   -779433.87544  21168075.1254                   21168075.4454
   1910746.38747   1484670.38143  22476081.9304                   22476084.1214
   1522011.59047   1184015.47343  23015772.1804                   23015775.2464
   -157329.94948   -117180.75944  21588328.7814                   21588328.0314
    972289.675 6                  24622370.484
 11  9 27 17 17 30.0000000  0  8G07G08G11G17G24G26G28G04
   4025130.00047   3123596.04744  22019995.6414                   22019996.8364
   1622301.53548   1261574.35544  20302350.0634                   20302350.2814
   3522473.87547   2730672.96443  22727755.9454                   22727758.4774
  -1071282.43048   -822315.98044  21157602.5864                   21157603.4264
   1929568.44147   1499336.78243  22479663.5474                   22479665.2274
   1531395.50047   1191327.51043  23017557.8524                   23017561.5164
   -198778.69948   -149478.47044  21580441.2974                   21580440.9304
    837574.738 6                  24596735.117
 11  9 27 17 18  0.0000000  0  8G07G08G11G17G24G26G28G04
   4090525.61347   3174553.56444  22032440.2424                   22032442.4184
   1635098.18848   1271545.73744  20304785.1564                   20304785.3794
   3576772.67247   2772983.75943  22738089.7114                   22738090.5204
  -1125987.29348   -864943.12844  21147192.1954                   21147193.1054
   1948888.59847   1514391.60443  22483340.0704                   22483342.2464
   1541256.86347   1199011.67843  23019434.9224                   23019438.0394
   -240213.39148   -181765.24844  21572556.6174                   21572556.2704
    702765.480 6                  24571080.938
 11  9 27 17 18 30.0000000  0  8G07G08G11G17G24G26G28G04
   4156249.99647   3225767.24243  22044947.4384                   22044948.9694
   1648437.87148   1281940.24644  20307323.7424                   20307323.7704
   3631448.43847   2815588.20943  22748493.9304                   22748494.9574
  -1180363.08248   -907313.81744  21136844.9924                   21136845.6804
   1968708.03947   1529835.33243  22487111.5004                   22487114.3164
   1551595.51647   1207067.67043  23021402.2194                   23021405.2774
   -281631.23448   -214038.90144  21564675.3914                   21564674.4884
    567866.461 5                  24545410.383
 11  9 27 17 19  0.0000000  0  8G07G08G11G17G24G26G28G04
   4222302.86347   3277236.87944  22057517.0234                   22057518.5784
   1662322.19548   1292759.13044  20309965.3984                   20309966.7704
   3686500.41047   2858485.71142  22758969.9774                   22758970.6804
  -1234408.75847   -949427.32844  21126560.5554                   21126560.6024
   1989027.14147   1545668.38143  22490978.0634                   22490981.4774
   1562411.12947   1215495.45343  23023460.3444                   23023463.1024
   -323029.85248   -246297.56743  21556797.3054                   21556796.3984
    432882.188 5                  24519723.133
 11  9 27 17 19 30.0000000  0  8G07G08G11G17G24G26G28G04
   4288680.70747   3328959.73743  22070148.1484                   22070150.4064
   1676749.23848   1304000.94944  20312710.8984                   20312711.2424
   3741924.82847   2901673.52043  22769517.0554                   22769518.0394
  -1288125.98848   -991284.86944  21116338.3134                   21116338.5204
   2009843.11747   1561888.47743  22494939.5554                   22494941.5904
   1573700.18447   1224291.99743  23025608.9924                   23025611.2034
   -364410.41848   -278542.17444  21548922.7274                   21548922.5984
    297813.586 5                  24494020.383
 11  9 27 17 20  0.0000000  0  8G07G08G11G17G24G26G28G04
   4355385.68047   3380937.46943  22082842.0314                   22082844.1994
   1691722.91048   1315668.68644  20315560.5864                   20315560.3914
   3797723.54747   2945153.04043  22780135.3984                   22780136.6254
  -1341511.16048  -1032883.67644  21106179.3364                   21106179.7734
   2031159.11747   1578498.35343  22498995.3754                   22498998.2544
   1585464.32847   1233458.86643  23027847.2114                   23027851.4694
   -405767.97748   -310768.82844  21541052.6094                   21541052.4494
    162667.527 6                  24468303.320
 11  9 27 17 20 30.0000000  0  8G07G08G11G17G24G26G28G04
   4422414.82047   3433167.92143  22095597.3914                   22095598.9964
   1707241.66848   1327761.17844  20318513.7814                   20318514.7774
   3853892.863 7                  22790824.172
  -1394566.08248  -1074225.15644  21096083.3984                   21096084.1374
   2052972.48447   1595495.75743  22503146.2504                   22503149.3794
   1597700.39547   1242993.34243  23030175.7114                   23030178.8594
   -447102.88348   -342977.84444  21533186.7504                   21533186.6054
     27445.211 6                  24442570.969
 11  9 27 17 21  0.0000000  0  8G07G08G11G17G24G26G28G04
   4489766.63347   3485649.58643  22108413.8444                   22108416.6054
   1723305.82048   1340278.64144  20321570.7664                   20321572.1454
   3910431.258 7                  22801582.586
  -1447290.45348  -1115309.06444  21086050.3284                   21086050.6524
   2075282.86747   1612880.35343  22507392.1564                   22507395.2154
   1610406.96547   1252894.53943  23032593.7034                   23032596.6484
   -488413.99648   -375168.31844  21525325.7814                   21525325.4924
   -107849.937 6                  24416825.180
 11  9 27 17 21 30.0000000  0  8G07G08G11G17G24G26G28G04
   4557438.43847   3538380.80043  22121291.4384                   22121294.0044
   1739914.12948   1353220.13444  20324731.2194                   20324731.8324
   3967334.96147   3077317.54253  22812410.8834                   22812411.7704
  -1499685.61748  -1156136.42944  21076079.7274                   21076079.8284
   2098088.10247   1630650.75343  22511731.9614                   22511734.2734
   1623580.69947   1263159.72143  23035100.9844                   23035104.2934
   -529701.21947   -407340.20244  21517469.0084                   21517468.5394
   -243215.965 6                  24391065.617
 11  9 27 17 22  0.0000000  0  8G07G08G11G17G24G26G28G04
   4625426.51247   3591358.31343  22134229.3914                   22134231.2854
   1757064.50048   1366584.01444  20327995.1484                   20327995.0274
   4024600.10947   3121939.80643  22823308.3054                   22823308.9614
  -1551753.74648  -1196708.96644  21066171.4144                   21066171.6804
   2121385.13747   1648804.14343  22516164.9844                   22516167.4224
   1637217.74247   1273785.91443  23037695.3674                   23037699.1174
   -570965.67648   -439494.25844  21509616.4384                   21509615.2154
   -378652.102 6                  24365293.156
 11  9 27 17 22 30.0000000  0  8G07G08G11G17G24G26G28G04
   4693729.74647   3644581.53344  22147226.9694                   22147229.2384
   1774757.83248   1380370.96244  20331361.5084                   20331362.1524
   4082225.10247   3166842.23843  22834274.0084                   22834275.5864
  -1603494.62548  -1237026.50744  21056325.7504                   21056325.4694
   2145173.81647   1667340.73043  22520691.8134                   22520695.5984
   1651316.84047   1284772.30443  23040378.9064                   23040382.6764
   -612205.59048   -471629.27944  21501768.9614                   21501768.3014
   -514154.539 6                  24339507.813
 11  9 27 17 23  0.0000000  0  8G07G08G11G17G24G26G28G04
   4762349.02747   3698051.00243  22160284.9064                   22160287.7464
   1792996.33648   1394582.74444  20334832.4774                   20334832.8404
   4140210.87947   3212025.84543  22845308.4304                   22845309.5004
  -1654905.29348  -1277086.77344  21046542.3834                   21046542.1884
   2169455.78947   1686261.88643  22525312.5004                   22525315.4224
   1665878.80547   1296119.13043  23043149.9924                   23043152.9304
   -653417.36348   -503742.37844  21493926.5944                   21493926.0744
   -649717.754 6                  24313710.328
 11  9 27 17 23 30.0000000  0  8G07G08G11G17G24G26G28G04
   4831281.03147   3751764.02943  22173402.8364                   22173405.3284
   1811778.50448   1409218.18544  20338406.4064                   20338407.5234
   4198553.28547   3257487.51743  22856410.8524                   22856412.6134
  -1705987.86747  -1316891.36044  21036821.7274                   21036821.9694
   2194228.31647   1705565.05743  22530026.4614                   22530028.6454
   1680900.09847   1307823.99443  23046008.6644                   23046012.1094
   -694601.16447   -535833.61744  21486089.8834                   21486088.7704
   -785340.227 6                  24287901.750
 11  9 27 17 24  0.0000000  0  8G07G08G11G17G24G26G28G04
   4900525.54747   3805720.62843  22186579.3204                   22186580.1414
   1831104.98448   1424277.70944  20342084.1414                   20342085.0234
   4257251.89847   3303226.61943  22867580.9774                   22867582.6564
  -1756740.92247  -1356439.13344  21027164.1024                   21027163.8634
   2219491.90247   1725250.98743  22534834.2664                   22534836.9264
   1696379.87147   1319886.10943  23048954.2664                   23048956.8484
   -735754.93447   -567901.48944  21478258.1564                   21478257.7114
   -921017.777 6                  24262083.672
 11  9 27 17 24 30.0000000  0  8G07G08G11G17G24G26G28G04
   4970082.96147   3859921.07943  22199816.2584                   22199818.6414
   1850978.45348   1439763.46444  20345865.8594                   20345866.6564
   4316306.37547   3349242.94043  22878818.4774                   22878819.6914
  -1807162.78548  -1395728.90144  21017568.3204                   21017569.3094
   2245247.56347   1745320.32743  22539735.3134                   22539737.9694
   1712318.46147   1332305.69943  23051987.4144                   23051990.8204
   -776875.31248   -599943.34544  21470433.2974                   21470432.4454
  -1056745.152 6                  24236255.109
 11  9 27 17 25  0.0000000  0  8G07G08G11G17G24G26G28G04
   5039950.66047   3914363.30543  22213111.4064                   22213112.9924
   1871397.57848   1455674.41444  20349751.6024                   20349752.0474
   4375713.94147   3395534.53542  22890123.5554                   22890124.0474
  -1857254.67648  -1434761.50944  21008036.2974                   21008037.0784
   2271493.53147   1765771.66443  22544730.0864                   22544732.4344
   1728712.87547   1345080.42543  23055106.5394                   23055109.5394
   -817962.04348   -631958.97444  21462614.6884                   21462613.8244
  -1192520.285 6                  24210418.484
 11  9 27 17 25 30.0000000  0  8G07G08G11G17G24G26G28G04
   5110130.00847   3969048.31943  22226465.9384                   22226467.7934
   1892365.08648   1472012.66544  20353742.1644                   20353742.8834
   4435475.344 7                  22901495.789
  -1907013.58648  -1473534.64844  20998567.4924                   20998567.6484
   2298231.57447   1786606.56743  22549817.9844                   22549820.7664
   1745564.14147   1358211.30843  23058313.8914                   23058317.3754
   -859011.05148   -663945.17944  21454803.3984                   21454802.6134
  -1328337.113 6                  24184573.602
 11  9 27 17 26  0.0000000  0  8G07G08G11G17G24G26G28G04
   5180613.86747   4023970.66243  22239878.9144                   22239880.9414
   1913875.16848   1488773.70444  20357835.4064                   20357836.3094
   4495583.043 7                  22912933.484
  -1956445.08648  -1512052.69144  20989160.9384                   20989160.9144
   2325455.14847   1807819.74843  22554998.4694                   22555001.3594
   1762864.93046   1371692.45143  23061605.9144                   23061608.8444
   -900026.33648   -695905.15344  21446998.3524                   21446997.3634
  -1464197.895 6                  24158719.719
 11  9 27 17 26 30.0000000  0  8G07G08G11G17G24G26G28G04
   5251401.18447   4079129.39743  22253349.3674                   22253350.9924
   1935928.71548   1505958.28444  20362032.0004                   20362032.8204
   4556035.695 7                  22924437.563
  -2005548.61348  -1550315.16444  20979817.3524                   20979817.6644
   2353163.98847   1829410.82243  22560270.7114                   22560273.7114
   1780613.68047   1385522.46542  23064983.5004                   23064986.0634
   -941006.11748   -727837.44544  21439199.9224                   21439199.1454
  -1600098.789 6                  24132857.859
 11  9 27 17 27  0.0000000  0  8G07G08G11G17G24G26G28G04
   5322493.10547   4134525.54943  22266877.9304                   22266880.2154
   1958527.70748   1523567.82944  20366332.3284                   20366332.7774
   4616833.91847   3583420.08655  22936006.9844                   22936009.4734
  -2054321.70348  -1588320.10644  20970535.8054                   20970536.6414
   2381359.81647   1851381.74443  22565636.8834                   22565639.0864
   1798811.24247   1399702.26043  23068446.5554                   23068449.0204
   -981946.66048   -759739.14944  21431409.5084                   21431408.3484
  -1736034.172 6                  24106989.797
 11  9 27 17 27 30.0000000  0  8G07G08G11G17G24G26G28G04
   5393888.01247   4190157.85543  22280463.5554                   22280466.5124
   1981672.34048   1541602.51744  20370736.5634                   20370737.2074
   4677975.875 7                  22947642.164
  -2102764.23848  -1626067.53344  20961317.4694                   20961317.7504
   2410041.77347   1873731.32443  22571094.9454                   22571096.1884
   1817455.84847   1414230.46043  23071994.2974                   23071997.9734
  -1022846.25448   -791608.94344  21423626.4844                   21423625.6294
  -1872000.320 6                  24081116.953
 11  9 27 17 28  0.0000000  0  8G07G08G11G17G24G26G28G04
   5465584.83647   4246025.28443  22294107.5084                   22294110.1374
   2005363.25448   1560062.93044  20375244.8284                   20375245.7504
   4739460.188 7                  22959342.172
  -2150875.95348  -1663557.19844  20952162.4224                   20952162.2624
   2439209.26247   1896459.14843  22576644.8284                   22576647.3014
   1836546.03547   1429105.82043  23075627.3754                   23075631.2584
  -1063702.97748   -823445.36344  21415851.6174                   21415851.0984
  -2007993.391 6                  24055238.125
 11  9 27 17 28 30.0000000  0  8G07G08G11G17G24G26G28G04
   5537576.23847   4302122.29843  22307807.1644                   22307809.3484
   2029594.47348   1578944.37144  20379856.0004                   20379856.9454
   4801279.19547   3727143.18754  22971106.0084                   22971112.3874
  -2198662.70748  -1700793.56244  20943068.7894                   20943068.8524
   2468855.63347   1919560.21143  22582286.3754                   22582288.6294
   1856074.35247   1444322.78543  23079343.5864                   23079347.9804
  -1104521.20348   -855251.73644  21408084.3054                   21408083.7464
  -2144015.984 6                  24029353.422
 11  9 27 17 29  0.0000000  0  8G07G08G11G17G24G26G28G04
   5609860.82047   4358447.76543  22321562.8284                   22321565.5554
   2054365.74648   1598246.60944  20384569.8054                   20384570.6134
   4863430.74647   3775573.02153  22982933.4534                   22982935.2544
  -2246124.30548  -1737776.61244  20934037.0314                   20934037.3484
   2498979.93447   1943033.67443  22588018.9614                   22588021.5664
   1876038.69547   1459879.25143  23083142.8984                   23083145.0744
  -1145299.56248   -887027.04344  21400324.3594                   21400323.3954
  -2280065.039 6                  24003463.492
 11  9 27 17 29 30.0000000  0  8G07G08G11G17G24G26G28G04
   5682438.84847   4415001.90443  22335373.9844                   22335376.9574
   2079678.86748   1617971.06644  20389386.6174                   20389387.5554
   4925914.71547   3824261.81342  22994823.7584                   22994824.5514
  -2293259.33248  -1774505.20744  20925067.3134                   20925067.3594
   2529582.79747   1966880.12443  22593842.6024                   22593845.7154
   1896439.12947   1475775.64143  23087025.0004                   23087027.4534
  -1186034.85248   -918768.81944  21392572.7584                   21392572.6414
  -2416135.195 6                  23977570.313
 11  9 27 17 30  0.0000000  0  8G07G08G11G17G24G26G28G04
   5755312.75047   4471786.61843  22349241.5704                   22349244.3444
   2105537.09048   1638120.27144  20394307.5234                   20394308.3714
   4988733.34847   3873211.31243  23006777.2424                   23006778.0164
  -2340063.54748  -1810975.96444  20916160.8444                   20916160.8324
   2560667.63347   1991102.00843  22599757.4384                   22599761.3094
   1917277.65247   1492013.40843  23090990.2034                   23090994.3954
  -1226721.55948   -950472.80244  21384830.2194                   21384829.3094
  -2552218.96146  -1977697.43153  23951674.0164                   23951679.9494
 11  9 27 17 30 30.0000000  0  8G07G08G11G17G24G26G28G04
   5828479.56347   4528799.52943  22363165.0084                   22363168.2584
   2131939.02748   1658693.16544  20399331.3524                   20399332.7584
   5051883.211 7                  23018794.828
  -2386538.48848  -1847190.17044  20907316.6254                   20907316.8834
   2592231.84847   2015697.42943  22605764.5864                   22605767.2114
   1938550.79347   1508589.69743  23095038.6954                   23095042.5594
  -1267359.71148   -982138.84344  21377097.1024                   21377096.2664
  -2688314.535 6                  23925775.766
 11  9 27 17 31  0.0000000  0  8G07G08G11G17G24G26G28G04
   5901936.74647   4586038.69943  22377143.4614                   22377145.5004
   2158883.90648   1679689.09844  20404458.8364                   20404459.9734
   5115361.668 7                  23030873.719
  -2432684.98048  -1883148.48044  20898535.5864                   20898535.5554
   2624273.87947   2040665.23543  22611861.4614                   22611863.9414
   1960256.02747   1525502.73943  23099169.1094                   23099172.7624
  -1307948.32848  -1013766.37543  21369373.4064                   21369372.6684
  -2824419.191 6                  23899875.375
 11  9 27 17 31 30.0000000  0  8G07G08G11G17G24G26G28G04
   5975681.02047   4643501.59643  22391176.4224                   22391179.5784
   2186369.51648   1701106.37344  20409689.3134                   20409689.7464
   5179164.91047   4021599.31553  23043015.2274                   23043009.1484
  -2478505.06248  -1918852.42244  20889816.2814                   20889816.8834
   2656790.28147   2066002.68543  22618049.5704                   22618052.1564
   1982389.184 7                  23103380.875
  -1348487.77748  -1045355.53044  21361658.7344                   21361658.5704
  -2960531.668 6                  23873974.016
 11  9 27 17 32  0.0000000  0  8G07G08G11G17G24G26G28G04
   6049711.14847   4701187.22943  22405264.0314                   22405267.4414
   2214396.20748   1722945.35744  20415022.7194                   20415023.7234
   5243291.602 7                  23055218.711
  -2523998.06248  -1954301.47644  20881159.3284                   20881159.9344
   2689781.09447   2091709.88143  22624327.3134                   22624329.8284
   2004949.434 7                  23107674.609
  -1388975.71148  -1076904.61944  21353954.1564                   21353953.8634
  -3096647.504 6                  23848071.609
 11  9 27 17 32 30.0000000  0  8G07G08G11G17G24G26G28G04
   6124026.27047   4759094.92343  22419405.8674                   22419408.5554
   2242963.97748   1745205.85644  20420459.1724                   20420459.9654
   5307740.340 7                  23067482.813
  -2569163.54348  -1989495.37944  20872564.9534                   20872565.1024
   2723245.59847   2117785.82743  22630695.5234                   22630697.2774
   2027935.094 7                  23112047.602
  -1429410.69548  -1108412.36944  21346259.8364                   21346258.7854
  -3232763.187 6                  23822170.086
 11  9 27 17 33  0.0000000  0  8G07G08G11G17G24G26G28G04
   6198622.35547   4817221.54743  22433601.3674                   22433603.9964
   2272070.12948   1767885.93244  20425997.7734                   20425998.4414
   5372506.539 7                  23079807.523
  -2614004.41048  -2024436.23944  20864031.6174                   20864031.9264
   2757180.13347   2144228.41743  22637153.3054                   22637155.8874
   2051341.48447   1596478.42153  23116502.1564                   23116507.3674
  -1469793.66848  -1139879.64244  21338575.2734                   21338574.0474
  -3368877.809 6                  23796268.266
 11  9 27 17 33 30.0000000  0  8G07G08G11G17G24G26G28G04
   6273500.40647   4875567.95143  22447850.4384                   22447852.8134
   2301717.55548   1790987.73244  20431639.4224                   20431639.8404
   5437590.848 7                  23092192.656
  -2658517.94948  -2059122.11644  20855560.8364                   20855561.4184
   2791586.23447   2171038.31743  22643700.4144                   22643703.3984
   2075169.43847   1615045.36354  23121036.6954                   23121027.2074
  -1510119.97748  -1171302.74144  21330901.2894                   21330900.7274
  -3504985.078 6                  23770367.469
 11  9 27 17 34  0.0000000  0  8G07G08G11G17G24G26G28G04
   6348658.37147   4934132.52243  22462151.9694                   22462154.8484
   2331904.80148   1814510.23844  20437383.8054                   20437384.5004
   5502990.773 7                  23104638.039
  -2702704.49648  -2093553.14644  20847152.6414                   20847152.5984
   2826462.31347   2198214.47843  22650337.2504                   22650339.6564
   2099416.24247   1633938.95353  23125650.7344                   23125653.7584
  -1550388.83248  -1202681.03744  21323238.0164                   21323237.3284
  -3641082.23046  -2826161.27052  23744468.3364                   23744469.9884
 11  9 27 17 34 30.0000000  0  8G07G08G11G17G24G26G28G04
   6424095.69547   4992914.67143  22476507.8134                   22476510.1454
   2362632.46948   1838453.78544  20443231.4224                   20443232.5314
   5568705.781 7                  23117143.258
  -2746563.29348  -2127728.81344  20838806.2974                   20838806.6804
   2861808.43047   2225756.87543  22657063.4144                   22657066.7034
   2124081.23447   1653158.26843  23130344.2504                   23130347.1454
  -1590597.43048  -1234012.42444  21315587.0164                   21315586.0474
  -3777164.62546  -2932199.32953  23718573.8364                   23718567.9804
 11  9 27 17 35  0.0000000  0  8G07G08G11G17G24G26G28G04
   6499810.28547   5051912.85543  22490915.9064                   22490918.0514
   2393899.78948   1862817.89444  20449181.6024                   20449182.5354
   5634733.516 7                  23129708.000
  -2790095.12548  -2161649.70844  20830522.4454                   20830521.8484
   2897623.14547   2253664.35543  22663878.7424                   22663880.5204
   2149161.691 7                  23135116.852
  -1630744.61348  -1265295.90444  21307947.1414                   21307946.3794
  -3913229.484 6                  23692680.719
 11  9 27 17 35 30.0000000  0  8G07G08G11G17G24G26G28G04
   6575798.68447   5111124.41243  22505375.7504                   22505378.4884
   2425704.59448   1887600.75644  20455233.7344                   20455234.9304
   5701069.879 6                  23142331.102
  -2833301.81648  -2195317.24744  20822300.6414                   20822300.8674
   2933903.52347   2281934.86342  22670782.7504                   22670784.5354
   2174653.949 7                  23139968.031
  -1670830.82048  -1296531.93544  21300318.8594                   21300318.1134
  -4049274.828 6                  23666791.320
 11  9 27 17 36  0.0000000  0  8G07G08G11G17G24G26G28G04
   6652062.43047   5170550.58143  22519888.4454                   22519891.9384
   2458049.55948   1912804.59344  20461388.8134                   20461390.0824
   5767716.016 7                  23155013.516
  -2876180.34848  -2228729.06344  20814141.0554                   20814141.4654
   2970651.23447   2310569.34443  22677775.3984                   22677778.1334
   2200558.74247   1712750.83753  23144897.4224                   23144901.0744
  -1710850.84448  -1327716.39344  21292703.3754                   21292702.8554
  -4185294.445 6                  23640907.289
 11  9 27 17 36 30.0000000  0  8G07G08G11G17G24G26G28G04
   6728596.00047   5230186.90943  22534453.1644                   22534456.5234
   2490930.10248   1938425.74944  20467645.7504                   20467647.1414
   5834666.082 6                  23167753.844
  -2918734.80548  -2261888.33444  20806042.9454                   20806043.7154
   3007861.02347   2339563.99343  22684856.3284                   22684858.4774
   2226870.26247   1733253.30743  23149905.1094                   23149908.5784
  -1750807.44548  -1358851.40544  21285100.1334                   21285099.5664
  -4321288.586 6                  23615028.836
 11  9 27 17 37  0.0000000  0  8G07G08G11G17G24G26G28G04
   6805401.45347   5290035.15443  22549068.3054                   22549071.9344
   2524349.74248   1964466.95844  20474005.1804                   20474006.5784
   5901921.871 7                  23180552.109
  -2960961.77348  -2294792.43344  20798007.4454                   20798007.7504
   3045535.52047   2368920.65743  22692025.6254                   22692027.8014
   2253590.15247   1754073.87943  23154988.2894                   23154993.9064
  -1790695.28948  -1389932.78144  21277509.4304                   21277508.3364
  -4457250.27047  -3462138.97153  23589155.8754                   23589160.2424
 11  9 27 17 37 30.0000000  0  8G07G08G11G17G24G26G28G04
   6882472.24647   5350090.11043  22563734.6804                   22563738.1764
   2558303.25048   1990924.17444  20480466.4304                   20480468.0434
   5969477.141 7                  23193407.938
  -3002865.75847  -2327444.85844  20790033.3054                   20790033.2304
   3083669.13747   2398635.25843  22699282.5704                   22699283.6374
   2280711.70747   1775207.47543  23160149.6174                   23160153.7624
  -1830517.02348  -1420962.69244  21269931.8054                   21269930.6844
  -4593180.203 7                  23563289.617
 11  9 27 17 38  0.0000000  0  8G07G08G11G17G24G26G28G04
   6959808.71947   5410352.20043  22578451.4534                   22578455.0274
   2592791.57448   2017798.13944  20487029.5164                   20487030.3054
   6037331.348 6                  23206319.641
  -3044445.44148  -2359844.61644  20782121.0634                   20782120.5984
   3122262.20347   2428707.69443  22706626.3984                   22706629.4804
   2308234.41047   1796653.49543  23165387.5474                   23165391.2544
  -1870269.55948  -1451938.73244  21262367.0394                   21262366.4024
  -4729073.48047  -3673949.63352  23537429.0704                   23537436.8834
 11  9 27 17 38 30.0000000  0  8G07G08G11G17G24G26G28G04
   7037409.80947   5470820.41243  22593218.9774                   22593221.6454
   2627814.93848   2045089.03744  20493693.9924                   20493695.2624
   6105483.449 6                  23219288.555
  -3085699.88748  -2391990.89344  20774270.6254                   20774270.8404
   3161314.30147   2459137.88243  22714057.6644                   22714060.9304
   2336156.93047   1818411.48443  23170701.1174                   23170705.0124
  -1909950.28148  -1482858.79144  21254816.1094                   21254815.3954
  -4864925.70747  -3779808.32052  23511577.5004                   23511583.4384
 11  9 27 17 39  0.0000000  0  8G07G08G11G17G24G26G28G04
   7115273.19947   5531492.89643  22608035.9534                   22608040.2384
   2663371.93448   2072795.70844  20500460.3594                   20500461.5514
   6173930.934 6                  23232313.602
  -3126630.33248  -2423884.72744  20766481.8594                   20766482.3404
   3200823.31347   2489924.21843  22721575.6094                   22721579.7974
   2364476.55147   1840478.72243  23176089.8364                   23176095.2624
  -1949558.41848  -1513722.27244  21247279.2034                   21247277.9494
  -5000734.44147  -3885632.94843  23485732.9774                   23485739.4384
 11  9 27 17 39 30.0000000  0  8G07G08G11G17G24G26G28G04
   7193394.84847   5592366.75043  22622902.1254                   22622905.2664
   2699459.55948   2100915.88844  20507328.0704                   20507328.7584
   6242668.734 6                  23245394.586
  -3167239.65248  -2455528.35744  20758754.0704                   20758754.4884
   3240785.50847   2521063.38443  22729180.4924                   22729183.6644
   2393188.48447   1862851.42553  23181554.3754                   23181558.8484
  -1989094.78548  -1544529.76944  21239755.3364                   21239754.3054
  -5136498.46547  -3991423.04353  23459898.1174                   23459901.9924
 11  9 27 17 40  0.0000000  0  8G07G08G11G17G24G26G28G04
   7271771.80547   5653439.47643  22637816.6804                   22637820.4694
   2736076.33648   2129448.41944  20514295.6884                   20514297.1684
   6311694.145 6                  23258529.281
  -3207528.85947  -2486922.50344  20751087.3524                   20751087.4614
   3281198.64547   2552554.26843  22736871.2734                   22736873.4144
   2422289.31347   1885527.34443  23187091.8594                   23187095.5354
  -2028558.65647  -1575280.87744  21232245.5164                   21232245.8794
  -5272215.29347  -4097176.06242  23434072.4844                   23434076.7304
 11  9 27 17 40 30.0000000  0  8G07G08G11G17G24G26G28G04
   7350403.39147   5714710.67443  22652779.9144                   22652782.5434
   2773222.09848   2158393.07144  20521364.5004                   20521365.9574
   6381005.816 7                  23271718.773
  -3247497.43447  -2518066.81044  20743481.4384                   20743481.3364
   3322062.38347   2584396.22343  22744646.9694                   22744648.8634
   2451778.03547   1908505.34343  23192704.4844                   23192707.2034
  -2067947.49647  -1605973.46144  21224749.9844                   21224749.7114
  -5407880.81247  -4202889.38753  23408255.8594                   23408263.2544
 11  9 27 17 41  0.0000000  0  8G07G08G11G17G24G26G28G04
   7429287.38347   5776178.54843  22667791.7194                   22667794.1994
   2810896.07848   2187749.37844  20528533.3364                   20528535.4414
   6450601.629 7                  23284963.211
  -3287145.97748  -2548961.75344  20735936.7584                   20735936.5864
   3363374.86747   2616587.45143  22752508.4064                   22752512.1054
   2481651.75847   1931783.53443  23198388.5394                   23198392.6254
  -2107260.11747  -1636606.66744  21217269.4064                   21217268.3284
  -5543491.63347  -4308559.97752  23382449.1564                   23382456.2034
 11  9 27 17 41 30.0000000  0  8G07G08G11G17G24G26G28G04
   7508418.98047   5837839.31143  22682849.4384                   22682853.0474
   2849094.43848   2217514.24744  20535802.7424                   20535804.4144
   6520476.719 6                  23298259.422
  -3326477.62548  -2579609.81044  20728452.6484                   20728451.6054
   3405131.87147   2649125.45543  22760454.2424                   22760457.6134
   2511905.68047   1955357.73943  23204145.8594                   23204149.5634
  -2146497.79748  -1667181.47844  21209802.1094                   21209802.0314
  -5679047.34847  -4414187.55353  23356654.0314                   23356659.7894
 11  9 27 17 42  0.0000000  0  8G07G08G11G17G24G26G28G04
   7587796.22347   5899691.55243  22697954.8754                   22697958.2624
   2887815.64848   2247686.56844  20543171.2424                   20543172.3554
   6590628.449 7                  23311609.516
  -3365493.28548  -2610011.62744  20721027.6644                   20721028.6054
   3447331.34047   2682008.17843  22768484.5554                   22768486.8204
   2542536.56647   1979226.05943  23209974.5394                   23209979.7934
  -2185659.42248  -1697697.05044  21202350.5944                   21202350.0314
  -5814545.02047  -4519770.07843  23330869.1724                   23330874.3914
 11  9 27 17 42 30.0000000  0  8G07G08G11G17G24G26G28G04
   7667413.12947   5961730.51143  22713105.8674                   22713108.7464
   2927055.25048   2278262.82144  20550638.1174                   20550639.0474
   6661050.773 6                  23325009.969
  -3404196.90247  -2640170.23944  20713662.5004                   20713662.7624
   3489967.75847   2715231.17343  22776597.8754                   22776600.0594
   2573538.33247   2003383.07343  23215874.7504                   23215878.0784
  -2224747.13747  -1728154.98444  21194912.1884                   21194911.6254
  -5949985.09047  -4625307.51943  23305096.3674                   23305102.0434
 11  9 27 17 43  0.0000000  0  8G07G08G11G17G24G26G28G04
   7747269.69947   6023956.27943  22728301.7424                   22728304.5474
   2966814.29348   2309243.83744  20558203.9694                   20558205.8794
   6731743.168 6                  23338462.953
  -3442587.66047  -2670085.10944  20706357.1094                   20706357.2194
   3533041.53547   2748795.25243  22784795.0084                   22784798.1024
   2604910.50447   2027828.94542  23221844.3524                   23221847.4774
  -2263757.54747  -1758552.73844  21187488.8444                   21187488.1054
  -6085362.41847  -4730795.75343  23279334.3524                   23279340.7544
 11  9 27 17 43 30.0000000  0  8G07G08G11G17G24G26G28G04
   7827365.93447   6086368.61843  22743543.2344                   22743547.2344
   3007093.22748   2340629.96644  20565868.9694                   20565871.2734
   6802705.434 6                  23351966.211
  -3480663.89148  -2699754.89544  20699111.3364                   20699111.7114
   3576552.74247   2782700.08643  22793075.4064                   22793078.1764
   2636652.26247   2052562.66443  23227884.2974                   23227888.3484
  -2302687.48448  -1788887.73344  21180080.8524                   21180080.4614
  -6220671.95747  -4836231.87253  23253586.3364                   23253588.4924
 11  9 27 17 44  0.0000000  0  8G07G08G11G17G24G26G28G04
   7907696.43847   6148963.70243  22758830.3674                   22758834.3794
   3047887.56648   2372417.65744  20573632.0784                   20573633.0704
   6873932.297 6                  23365520.742
  -3518429.63348  -2729182.72744  20691924.8524                   20691925.3754
   3620496.727 7                  22801437.477
   2668758.01647   2077579.98643  23233994.0004                   23233997.5594
  -2341538.52748  -1819161.24644  21172687.5704                   21172686.5634
  -6355913.57847  -4941614.82442  23227850.4924                   23227855.2624
 11  9 27 17 44 30.0000000  0  8G07G08G11G17G24G26G28G04
   7988260.44547   6211740.61143  22774161.1254                   22774165.5704
   3089197.72748   2404607.35244  20581492.8524                   20581494.2734
   6945422.777 6                  23379125.406
  -3555883.99648  -2758367.90944  20684797.2974                   20684797.7234
   3664873.020 7                  22809881.555
   2701226.48047   2102879.96443  23240172.9224                   23240175.7194
  -2380308.09048  -1849371.27744  21165310.2194                   21165309.2664
  -6491082.72347  -5046941.20043  23202127.7974                   23202134.5274
 11  9 27 17 45  0.0000000  0  8G07G08G11G17G24G26G28G04
   8069053.03147   6274695.70843  22789535.4224                   22789539.5984
   3131019.70348   2437195.83344  20589451.6884                   20589453.0664
   7017171.53946   5453811.69152  23392777.7504                   23392779.6884
  -3593030.35548  -2787313.10644  20677728.6884                   20677727.9574
   3709676.914 7                  22818408.172
   2734052.33647   2128458.29043  23246419.7344                   23246424.2894
  -2418997.63748  -1879518.98944  21157947.7664                   21157947.4694
  -6626179.01647  -5152210.95043  23176419.8984                   23176425.3094
 11  9 27 17 45 30.0000000  0  8G07G08G11G17G24G26G28G04
   8150073.71147   6337828.38243  22804953.4534                   22804956.8164
   3173353.60548   2470183.21044  20597507.5394                   20597508.3834
   7089177.672 6                  23406479.688
  -3629868.00448  -2816017.74644  20670718.8984                   20670718.8794
   3754908.02047   2921677.89153  22827015.2194                   22827014.8164
   2767234.035 7                  23252733.664
  -2457604.18748  -1909602.02844  21150601.1484                   21150600.2504
  -6761198.00847  -5257420.31943  23150726.3594                   23150732.2584
 11  9 27 17 46  0.0000000  0  8G07G08G11G17G24G26G28G04
   8231320.39147   6401137.29243  22820414.7584                   22820417.6724
   3216198.35248   2503568.66344  20605660.6884                   20605662.4384
   7161438.85546   5566227.60252  23420230.9924                   23420232.7504
  -3666397.23048  -2844482.07044  20663767.5554                   20663767.5904
   3800564.60247   2957254.41743  22835703.6724                   22835705.4654
   2800769.14847   2180445.43052  23259115.1254                   23259115.6524
  -2496126.28948  -1939619.25344  21143270.2814                   21143270.4344
  -6896136.18047  -5362566.54453  23125048.8204                   23125056.2894
 11  9 27 17 46 30.0000000  0  8G07G08G11G17G24G26G28G04
   8312790.21547   6464620.09043  22835917.6094                   22835921.7464
   3259551.86748   2537350.59744  20613910.5554                   20613912.0634
   7233951.88346   5622731.03753  23434030.2194                   23434031.3554
  -3702619.62948  -2872707.29144  20656874.2734                   20656874.3754
   3846643.91047   2993160.41443  22844471.9534                   22844473.6604
   2834654.19947   2206849.59553  23265563.4694                   23265561.7304
  -2534563.18448  -1969570.05444  21135955.8204                   21135955.4654
  -7030991.14847  -5467648.21142  23099386.3594                   23099391.2384
 11  9 27 17 47  0.0000000  0  8G07G08G11G17G24G26G28G04
   8394480.50847   6528274.67043  22851462.6644                   22851466.9064
   3303412.32048   2571527.47344  20622256.9384                   20622258.5394
   7306714.398 6                  23447876.656
  -3738536.66048  -2900694.57144  20650039.8754                   20650039.7234
   3893143.801 7                  22853320.930
   2868886.109 7                  23272077.477
  -2572913.88348  -1999453.66844  21128658.3444                   21128657.5234
  -7165760.14847  -5572662.77443  23073740.7664                   23073744.8284
 11  9 27 17 47 30.0000000  0  8G07G08G11G17G24G26G28G04
   8476392.91847   6592102.31243  22867050.5704                   22867055.5984
   3347782.18448   2606101.36544  20630700.4304                   20630701.9774
   7379727.74246   5736322.76652  23461769.8054                   23461771.5664
  -3774144.89848  -2928441.20044  20643263.8594                   20643263.7424
   3940066.43047   3065957.19753  22862249.3444                   22862250.8524
   2903465.930 7                  23278657.227
  -2611173.27748  -2029266.18144  21121377.6804                   21121377.4844
  -7300436.30947  -5677605.04742  23048112.4064                   23048116.8204
 11  9 27 17 48  0.0000000  0  8G07G08G11G17G24G26G28G04
  10133940.52347   7883697.55543  23182471.7664                   23182476.2774
   4968076.23448   3868668.09444  20939032.4064                   20939033.8444
   9028404.77347   7021005.99754  23775503.2194                   23775502.9494
  -2234026.18048  -1728348.68744  20936338.4384                   20936338.5984
   5562826.047 7                  23171050.445
   4513807.863 6                  23585095.680
  -1073920.63748   -831406.96244  21413907.5554                   21413906.3134
  -5859593.89147  -4554870.49053  23322295.1954                   23322302.1844
 11  9 27 17 48 30.0000000  0  8G07G08G11G17G24G26G28G04
  10216287.90247   7947864.16343  23198142.3134                   23198147.0084
   5013457.22348   3904029.80344  20947667.8204                   20947668.9614
   9101909.10546   7078282.39453  23789490.5944                   23789491.5164
  -2269022.32048  -1755618.35744  20929679.0234                   20929678.9064
   5610585.094 7                  23180138.641
   4549072.480 6                  23591805.852
  -1111996.14548   -861076.19644  21406661.9064                   21406660.5514
  -5994077.91847  -4659662.82053  23296704.1174                   23296710.0864
 11  9 27 17 49  0.0000000  0  8G07G08G11G17G24G26G28G04
  10298848.10247   8012196.52843  23213852.7584                   23213857.6604
   5059340.48048   3939782.91044  20956399.2814                   20956400.5634
   9175654.355 6                  23803523.367
  -2303714.66048  -1782651.33344  20923076.9774                   20923077.1484
   5658758.125 7                  23189305.984
   4584673.88746   3570500.55552  23598581.4064                   23598586.3874
  -1149978.71548   -890672.98344  21399433.6094                   21399433.8204
  -6128462.16447  -4764377.76743  23271131.0474                   23271135.8524
 11  9 27 17 49 30.0000000  0  8G07G08G11G17G24G26G28G04
  10381618.47347   8076692.75643  23229603.5474                   23229609.2774
   5105724.03148   3975925.89144  20965225.9774                   20965227.3634
   9249637.65646   7193395.33753  23817602.4774                   23817603.7234
  -2338104.48848  -1809448.60244  20916533.0554                   20916532.3874
   5707342.770 7                  23198551.430
   4620609.22346   3598501.95943  23605419.8444                   23605423.1454
  -1187867.46148   -920196.68144  21392223.9144                   21392223.6174
  -6262743.97747  -4869012.85353  23245578.2894                   23245580.4924
 11  9 27 17 50  0.0000000  0  8G07G08G11G17G24G26G28G04
  10464598.12147   8141351.96043  23245394.5704                   23245398.4344
   5152607.90248   4012458.70344  20974147.5784                   20974149.1724
   9323857.69946   7251228.67243  23831726.1414                   23831727.9494
  -2372191.37148  -1836009.76844  20910046.4924                   20910046.4184
   5756338.10947   4481233.48753  23207874.5864                   23207874.0394
   4656876.74646   3626762.10743  23612321.5164                   23612325.3754
  -1225659.66048   -949645.16044  21385032.1884                   21385031.1684
  -6396919.12147  -4973564.58643  23220045.2504                   23220049.5514
 11  9 27 17 50 30.0000000  0  8G07G08G11G17G24G26G28G04
  10547785.99647   8206173.54143  23261224.8594                   23261228.4884
   5199991.79748   4049381.15144  20983164.6884                   20983166.1884
   9398313.277 6                  23845894.820
  -2405974.99648  -1862334.63944  20903617.5004                   20903617.6294
   5805743.61347   4519731.32643  23217276.2974                   23217278.3444
   4693474.94946   3655280.04343  23619285.9924                   23619289.9804
  -1263352.96948   -979016.55544  21377859.3594                   21377858.6724
  -6530983.23447  -5078030.04343  23194533.5084                   23194537.9224
 11  9 27 17 51  0.0000000  0  8G07G08G11G17G24G26G28G04
  10631176.25447   8271152.71643  23277093.8834                   23277098.1914
   5247870.37948   4086689.04644  20992275.4844                   20992277.3244
   9472998.539 6                  23860106.820
  -2439459.75448  -1888426.61444  20897245.8364                   20897245.2584
   5855553.484 7                  23226755.469
   4730397.16447   3684050.49043  23626312.1884                   23626317.1334
  -1300949.39548  -1008312.50744  21370705.1884                   21370703.9534
  -6664936.78947  -5182409.25343  23169042.8444                   23169048.2774
 11  9 27 17 51 30.0000000  0  8G07G08G11G17G24G26G28G04
  10714765.98847   8336287.35843  23293000.0084                   23293005.4804
   5296241.33248   4124380.61044  21001480.5394                   21001481.9614
   9547910.49246   7425815.25452  23874362.1024                   23874362.7624
  -2472646.95748  -1914286.78544  20890930.4304                   20890930.7734
   5905765.29747   4597670.05253  23236309.7814                   23236313.7544
   4767640.02747   3713070.91943  23633398.9384                   23633403.6764
  -1338448.09448  -1037532.22444  21363569.1174                   21363568.2344
  -6798777.03147  -5286700.07543  23143573.8524                   23143578.0434
 11  9 27 17 52  0.0000000  0  8G07G08G11G17G24G26G28G04
  10798553.71947   8401576.30643  23308945.2114                   23308949.8524
   5345104.06348   4162455.41644  21010778.4304                   21010779.4574
   9623047.44146   7484363.42642  23888661.1414                   23888660.4884
  -2505536.46548  -1939914.96944  20884671.3594                   20884671.7584
   5956377.672 7                  23245941.133
   4805201.55147   3742339.39143  23640547.0704                   23640551.6134
  -1375846.96948  -1066674.22344  21356452.6484                   21356451.8914
  -6932500.30147  -5390899.82842  23118126.3674                   23118131.2894
 11  9 27 17 52 30.0000000  0  8G07G08G11G17G24G26G28G04
  10882534.94147   8467015.93143  23324926.0864                   23324930.4184
   5394454.58648   4200910.28044  21020169.9454                   21020171.2344
   9698404.820 6                  23903000.188
  -2538131.94548  -1965313.98845  20878469.1254                   20878469.2074
   6007386.332 7                  23255647.766
   4843076.66847   3771852.44843  23647754.8594                   23647759.6414
  -1413146.99248  -1095739.17544  21349354.5474                   21349353.4184
  -7066105.53547  -5495007.50443  23092702.4534                   23092708.2034
 11  9 27 17 53  0.0000000  0  8G07G08G11G17G24G26G28G04
  10966707.73447   8532604.90943  23340943.4844                   23340948.6724
   5444291.54748   4239744.24743  21029653.5314                   21029655.1214
   9773980.500 6                  23917382.695
  -2570433.56248  -1990484.08345  20872321.9534                   20872322.3244
   6058789.496 7                  23265429.656
   4881262.71547   3801607.61543  23655021.4534                   23655026.0044
  -1450346.05948  -1124725.42644  21342276.1804                   21342274.6414
  -7199589.59047  -5599020.85343  23067301.4534                   23067306.4304
 11  9 27 17 53 30.0000000  0  8G07G08G11G17G24G26G28G04
  11051071.38347   8598342.56843  23356997.6804                   23357002.6254
   5494614.78148   4278957.08943  21039229.7344                   21039231.3054
   9849773.191 6                  23931804.805
  -2602440.66848  -2015424.65044  20866231.1954                   20866231.1134
   6110586.605 7                  23275286.633
   4919758.45747   3831604.23842  23662346.6334                   23662351.0044
  -1487441.28148  -1153630.78744  21335216.8834                   21335215.4104
  -7332947.46147  -5702935.68243  23041924.2034                   23041929.6094
 11  9 27 17 54  0.0000000  0  8G07G08G11G17G24G26G28G04
  11135620.78147   8664224.95743  23373087.1564                   23373091.8914
   5545419.80948   4318545.27743  21048897.3054                   21048899.4654
   9925778.250 6                  23946268.563
  -2634156.71948  -2040138.43944  20860196.1804                   20860195.7584
   6162772.879 7                  23285217.289
   4958558.03546   3861837.63053  23669730.7894                   23669736.0514
  -1524433.96548  -1182456.25544  21328177.4924                   21328176.3284
  -7466178.78147  -5806752.46543  23016570.4224                   23016575.8204
 11  9 27 17 54 30.0000000  0  8G07G08G11G17G24G26G28G04
  11220355.52047   8730251.78942  23389211.8524                   23389217.1254
   5596707.11748   4358509.35844  21058657.7034                   21058659.1134
  10001994.727 6                  23960771.688
  -2665581.02348  -2064624.89844  20854216.3134                   20854216.1374
   6215347.863 6                  23295221.570
   4997660.44147   3892306.93943  23677171.6254                   23677178.0944
  -1561320.92248  -1211199.35944  21321157.9614                   21321156.5944
  -7599278.77747  -5910466.63743  22991242.1804                   22991247.9224
 11  9 27 17 55  0.0000000  0  8G07G08G11G17G24G26G28G04
  11305275.266 6                  23405371.430
   5648476.41848   4398848.96843  21068508.7894                   21068509.5704
  10078422.293 6                  23975314.914
  -2696712.65648  -2088883.31344  20848291.8364                   20848292.2504
   6268311.45747   4880173.09953  23305300.1174                   23305300.7934
   5037064.75847   3923011.43543  23684669.8284                   23684675.0204
  -1598099.00848  -1239857.54244  21314159.3594                   21314158.6954
  -7732242.31247  -6014074.41843  22965940.2584                   22965945.7934
 11  9 27 17 55 30.0000000  0  8G07G08G11G17G24G26G28G04
  11390372.504 6                  23421565.516
   5700721.20347   4439559.08744  21078450.6564                   21078452.2704
  10155053.348 6                  23989898.492
  -2727557.25448  -2112918.02544  20842422.5084                   20842422.5354
   6321656.58247   4921740.66353  23315451.8134                   23315456.8954
   5076762.96947   3953944.94942  23692224.0704                   23692229.9774
  -1634771.34848  -1268433.35244  21307180.6484                   21307180.0084
  -7865071.07047  -6117577.05542  22940663.6414                   22940668.0824
 11  9 27 17 56  0.0000000  0  8G07G08G11G17G24G26G28G04
  11475646.64547   8929178.94253  23437793.2424                   23437791.3134
   5753440.93048   4480639.36044  21088483.2584                   21088485.2234
  10231887.176 6                  24004518.992
  -2758114.36348  -2136728.70944  20836607.6024                   20836606.9454
   6375382.47346   4963605.08543  23325675.7664                   23325680.3834
   5116753.91846   3985106.52643  23699833.9694                   23699838.5864
  -1671335.29748  -1296924.76444  21300222.9064                   21300222.1454
  -7997760.64147  -6220971.41243  22915413.3914                   22915417.1294
 11  9 27 17 56 30.0000000  0  8G07G08G11G17G24G26G28G04
  11561093.699 7                  23454052.742
   5806631.86748   4522086.71743  21098604.9844                   21098605.6214
  10308919.469 6                  24019177.836
  -2788386.32448  -2160317.23744  20830846.7504                   20830847.1294
   6429485.273 6                  23335970.992
   5157032.891 6                  23707498.680
  -1707790.98848  -1325331.77444  21293285.6644                   21293284.2974
  -8130309.51647  -6324256.04753  22890190.3594                   22890194.5164
 11  9 27 17 57  0.0000000  0  8G07G08G11G17G24G26G28G04
  11646714.918 6                  23470346.531
   5860296.12548   4563902.98344  21108817.1644                   21108818.8014
  10386151.805 6                  24033875.102
  -2818370.68048  -2183681.67344  20825141.0944                   20825140.9344
   6483966.398 7                  23346338.422
   5197600.42646   4048103.76252  23715218.9304                   23715220.7424
  -1744133.54348  -1353650.64444  21286369.5004                   21286369.0204
  -8262710.80947  -6427425.69343  22864995.6174                   22864998.4494
 11  9 27 17 57 30.0000000  0  8G07G08G11G17G24G26G28G04
  11732504.97347   9129327.66052  23486672.3134                   23486683.4614
   5914429.03147   4606084.37743  21119118.2734                   21119120.2114
  10463578.492 6                  24048608.180
  -2848071.27048  -2206825.00544  20819489.3444                   20819489.4144
   6538820.863 6                  23356777.125
   5238450.66047   4079934.90743  23722992.2894                   23722995.9064
  -1780364.10248  -1381882.24944  21279475.3134                   21279475.1414
  -8394964.63347  -6530480.48443  22839828.0164                   22839832.5824
 11  9 27 17 58  0.0000000  0  8G07G08G11G17G24G26G28G04
  11818463.02346   9196307.71843  23503029.1644                   23503035.8754
   5969030.41847   4648630.82643  21129508.3204                   21129510.0784
  10541198.664 6                  24063379.031
  -2877487.60548  -2229746.79444  20813891.4454                   20813891.2304
   6594047.898 6                  23367286.641
   5279582.32846   4111985.54153  23730819.9144                   23730819.1804
  -1816479.90648  -1410024.39744  21272602.6094                   21272601.8634
  -8527065.99647  -6633416.41842  22814689.6254                   22814692.4654
 11  9 27 17 58 30.0000000  0  8G07G08G11G17G24G26G28G04
  11904586.14147   9263416.22453  23519418.7974                   23519421.0744
   6024097.46547   4691540.09543  21139987.8284                   21139989.2974
  10619009.465 6                  24078186.563
  -2906621.02748  -2252448.09944  20808347.6334                   20808347.8164
   6649644.551 6                  23377866.742
   5320991.52346   4144252.33543  23738699.7974                   23738702.4224
  -1852479.94548  -1438076.36744  21265752.3364                   21265751.5004
  -8659012.60547  -6736231.72943  22789580.3914                   22789584.9454
 11  9 27 17 59  0.0000000  0  8G07G08G11G17G24G26G28G04
  11990871.37546   9330651.16543  23535838.2274                   23535843.3204
   6079627.38348   4734810.09143  21150554.5784                   21150556.3634
  10697007.313 6                  24093028.688
  -2935473.43048  -2274930.52544  20802857.2344                   20802857.1644
   6705607.754 7                  23388516.172
   5362674.59847   4176732.53453  23746632.0554                   23746635.6644
  -1888363.91848  -1466037.90944  21258923.7194                   21258923.0984
  -8790802.18447  -6838924.67443  22764502.1884                   22764506.8554
 11  9 27 17 59 30.0000000  0  8G07G08G11G17G24G26G28G04
  12077314.28947   9398008.97143  23552288.2114                   23552293.6884
   6135616.19548   4778437.60843  21161209.2664                   21161211.1764
  10775188.191 6                  24107905.930
  -2964047.69148  -2297196.15044  20797419.5234                   20797419.6454
   6761933.313 7                  23399234.641
   5404626.60247   4209422.29953  23754615.1804                   23754620.6914
  -1924132.09048  -1493909.20344  21252117.0084                   21252116.1094
  -8922433.54747  -6941494.56543  22739453.1334                   22739457.0984
 11  9 27 18  0  0.0000000  0  8G07G08G11G17G24G26G28G04
  12163914.66047   9465489.47342  23568767.6094                   23568774.5984
   6192064.61748   4822423.28343  21171950.9924                   21171951.6334
  10853551.824 6                  24122818.750
  -2992342.41448  -2319243.94544  20792035.0314                   20792035.0744
   6818621.625 7                  23410021.211
   5446846.93847   4242320.98842  23762649.0474                   23762653.3874
  -1959780.45348  -1521687.12544  21245333.4454                   21245332.3364
  -9053901.17247  -7043936.65143  22714435.5234                   22714440.2584
 11  9 27 18  0 30.0000000  0  8G07G08G11G17G24G26G28G04
  12250667.28146   9533088.66453  23585276.2664                   23585282.4264
   6248967.37948   4866763.07444  21182779.1174                   21182780.9384
  10932092.910 6                  24137764.672
  -3020361.75448  -2341077.16644  20786703.5004                   20786703.4144
   6875667.359 7                  23420877.125
   5489329.53147   4275424.16453  23770733.6724                   23770737.3714
  -1995310.65648  -1549373.01644  21238571.8524                   21238571.3364
  -9185204.98047  -7146251.23243  22689449.0314                   22689453.0164
 11  9 27 18  1  0.0000000  0  8G07G08G11G17G24G26G28G04
  12337572.51646   9600806.71142  23601814.1024                   23601820.2464
   6306325.37148   4911457.44544  21193694.0784                   21193695.4104
  11010811.602 6                  24152744.578
  -3048103.71948  -2362694.25344  20781423.9844                   20781423.4064
   6933070.887 7                  23431800.242
   5532074.07847   4308731.54843  23778868.4454                   23778872.0514
  -2030718.87948  -1576963.77744  21231834.4454                   21231833.4414
  -9316339.23047  -7248433.61743  22664495.0234                   22664498.9454
 11  9 27 18  1 30.0000000  0  8G07G08G11G17G24G26G28G04
  12424627.12146   9668641.15443  23618380.0234                   23618386.3444
   6364135.77048   4956504.40344  21204694.9614                   21204696.5554
  11089704.758 6                  24167757.367
  -3075570.13348  -2384096.63544  20776197.3674                   20776197.3794
   6990828.93047   5443172.93953  23442791.4224                   23442796.0664
   5575076.80147   4342239.93743  23787051.1954                   23787056.5864
  -2066003.98848  -1604458.66944  21225119.5084                   21225118.8984
  -9447301.31247  -7350481.68143  22639573.6094                   22639578.3874
 11  9 27 18  2  0.0000000  0  8G07G08G11G17G24G26G28G04
  12511830.16446   9736591.19843  23634974.8444                   23634980.9694
   6422397.98448   5001903.43643  21215781.8754                   21215783.9184
  11168771.199 6                  24182802.688
  -3102760.64148  -2405284.04744  20771023.1094                   20771023.0634
   7048940.63747   5488454.75543  23453850.2504                   23453853.5394
   5618336.12147   4375948.43643  23795283.2274                   23795287.6094
  -2101163.17648  -1631855.44244  21218429.1884                   21218428.4104
  -9578087.20747  -7452392.64954  22614686.0234                   22614688.0704
 11  9 27 18  2 30.0000000  0  8G07G08G11G17G24G26G28G04
  12599177.69946   9804653.98443  23651596.4064                   23651602.3014
   6481108.16848   5047651.58343  21226954.3134                   21226956.0634
  11248007.039 6                  24197881.477
  -3129677.89548  -2426258.48644  20765901.1724                   20765901.0204
   7107402.21947   5534009.20543  23464975.2814                   23464979.0554
   5661847.35947   4409853.15243  23803563.5394                   23803567.6684
  -2136196.84448  -1659154.38744  21211762.3914                   21211761.8094
  -9708695.03547  -7554164.78653  22589831.7894                   22589835.9734
 11  9 27 18  3  0.0000000  0  8G07G08G11G17G24G26G28G04
  12686669.637 6                  23668245.961
   6540266.61348   5093748.95744  21238211.7584                   21238213.9844
  11327412.059 6                  24212991.164
  -3156320.97348  -2447019.32744  20760831.0234                   20760831.3204
   7166213.652 7                  23476166.469
   5705609.53947   4443953.44643  23811891.0164                   23811896.5004
  -2171101.16848  -1686352.60544  21205120.2274                   21205119.5044
  -9839119.61747  -7655794.17643  22565012.7034                   22565015.2664
 11  9 27 18  3 30.0000000  0  8G07G08G11G17G24G26G28G04
  12774301.172 6                  23684922.086
   6599868.86748   5140192.21043  21249553.8984                   21249556.5234
  11406981.793 6                  24228132.617
  -3182692.84448  -2467568.83944  20755813.0004                   20755812.6334
   7225370.145 6                  23487423.336
   5749617.35547   4478245.06642  23820265.4924                   23820270.7814
  -2205876.77748  -1713450.45444  21198502.8054                   21198501.5984
  -9969360.06247  -7757280.14743  22540228.8674                   22540232.1954
 11  9 27 18  4  0.0000000  0  8G07G08G11G17G24G26G28G04
  12862072.363 6                  23701624.383
   6659915.04748   5186981.31343  21260980.3054                   21260983.2154
  11486716.047 6                  24243305.945
  -3208791.92648  -2487905.76244  20750846.2734                   20750846.0394
   7284871.91046   5672297.27753  23498746.4774                   23498745.6524
   5793870.55547   4512728.05953  23828686.8674                   23828689.5944
  -2240519.57848  -1740444.88944  21191910.7504                   21191909.3714
 -10099410.86747  -7858618.35343  22515480.5784                   22515483.6994
 11  9 27 18  4 30.0000000  0  8G07G08G11G17G24G26G28G04
  12949983.043 6                  23718354.016
   6720405.28148   5234116.48243  21272491.4774                   21272493.4884
  11566614.387 6                  24258510.969
  -3234617.53548  -2508029.60644  20745931.8054                   20745932.2814
   7344718.51646   5718930.65953  23510135.7504                   23510134.7974
   5838367.77747   4547400.96552  23837154.4924                   23837158.3444
  -2275026.51248  -1767333.37344  21185344.0554                   21185342.6254
 -10229267.12147  -7959804.63143  22490769.5164                   22490773.5514
 11  9 27 18  5  0.0000000  0  8G07G08G11G17G24G26G28G04
  13038028.31647  10146613.79752  23735108.6094                   23735112.9654
   6781335.10948   5281594.16743  21284086.0394                   21284087.6214
  11646672.398 6                  24273745.484
  -3260172.78148  -2527942.75544  20741068.9614                   20741067.9384
   7404905.71146   5765829.92843  23521588.0474                   23521590.5124
   5883103.96546   4582260.13343  23845667.0004                   23845672.2464
  -2309397.89148  -1794116.25344  21178803.6024                   21178802.3794
 -10358927.46947  -8060838.73443  22466096.5784                   22466101.1094
 11  9 27 18  5 30.0000000  0  8G07G08G11G17G24G26G28G04
  13126207.14546  10215324.05553  23751888.4844                   23751894.6564
   6842703.81348   5329413.81443  21295764.0394                   21295766.7544
  11726888.790 6                  24289009.164
  -3285457.31248  -2547644.96244  20736257.2814                   20736256.8134
   7465432.32847   5812993.44952  23533106.0864                   23533107.1604
   5928077.305 7                  23854225.891
  -2343631.20348  -1820791.51144  21172288.8674                   21172288.2934
 -10488387.92247  -8161716.75543  22441460.9384                   22441465.6054
 11  9 27 18  6  0.0000000  0  8G07G08G11G17G24G26G28G04
  13214519.28547  10284138.45342  23768693.9924                   23768699.9224
   6904510.80548   5377574.95643  21307525.9454                   21307527.3594
  11807263.094 6                  24304304.414
  -3310470.39847  -2567135.67444  20731497.3204                   20731496.7664
   7526297.69547   5860420.94942  23544687.9064                   23544691.6764
   5973286.47347   4652532.00452  23862828.4064                   23862834.7814
  -2377722.96548  -1847356.55044  21165801.5784                   21165800.4774
 -10617643.32047  -8262435.10843  22416864.0164                   22416867.5044
 11  9 27 18  6 30.0000000  0  8G07G08G11G17G24G26G28G04
  13302960.98447  10353053.72454  23785524.2034                   23785532.9264
   6966753.07848   5426075.33943  21319369.8524                   21319371.9494
  11887791.996 6                  24319628.898
  -3335214.36748  -2586416.66144  20726788.7584                   20726788.9414
   7587498.61347   5908109.80552  23556334.4694                   23556338.6214
   6018727.64546   4687940.58642  23871475.5784                   23871481.6214
  -2411672.60548  -1873810.81444  21159341.0004                   21159340.4924
 -10746691.66847  -8362992.24443  22392306.8984                   22392310.0084
 11  9 27 18  7  0.0000000  0  8G07G08G11G17G24G26G28G04
  13391530.78147  10422068.77953  23802379.1564                   23802385.9454
   7029429.52748   5474914.06344  21331297.6334                   21331299.0204
  11968474.133 6                  24334981.813
  -3359689.13348  -2605487.90944  20722131.4384                   20722131.1374
   7649033.55147   5956059.09052  23568044.1254                   23568048.2704
   6064398.49247   4723528.01053  23880166.8444                   23880170.8914
  -2445477.70748  -1900152.39844  21152908.4384                   21152908.0864
 -10875528.94947  -8463384.73343  22367789.3204                   22367792.6484
 11  9 27 18  7 30.0000000  0  8G07G08G11G17G24G26G28G04
  13480225.54746  10491181.20342  23819257.1884                   23819264.7544
   7092536.85948   5524088.57443  21343306.3524                   21343308.3244
  12049305.789 6                  24350363.914
  -3383896.71548  -2624350.89444  20717524.8204                   20717524.9024
   7710899.09047   6004266.03542  23579817.6564                   23579818.8444
   6110294.875 6                  23888900.820
  -2479137.86748  -1926381.11044  21146502.7424                   21146501.8404
 -11004153.09047  -8563611.17143  22343313.6414                   22343316.4844
 11  9 27 18  8  0.0000000  0  8G07G08G11G17G24G26G28G04
  13569047.75047  10560392.93253  23836159.8524                   23836166.7344
   7156077.54347   5573600.61243  21355397.5554                   21355399.3714
  12130289.547 6                  24365774.313
  -3407833.04748  -2643002.57544  20712969.9144                   20712969.7504
   7773097.66447   6052732.17153  23591653.0474                   23591655.8094
   6156418.78946   4795231.75353  23897676.9534                   23897682.5234
  -2512646.37948  -1952491.63444  21140126.5864                   21140125.8914
 -11132556.09047  -8663665.26143  22318878.9064                   22318881.5944
 11  9 27 18  8 30.0000000  0  8G07G08G11G17G24G26G28G04
  13657991.58647  10629699.46153  23853085.0704                   23853091.6914
   7220046.34848   5623446.30843  21367570.3834                   21367572.7974
  12211419.883 6                  24381212.969
  -3431502.54748  -2661446.33844  20708465.6954                   20708465.4924
   7835624.03147   6101454.16442  23603551.3054                   23603554.5704
   6202764.15647   4831344.05554  23906497.2894                   23906507.2074
  -2546004.87148  -1978485.26844  21133778.4144                   21133777.2774
 -11260738.05147  -8763547.15843  22294486.0084                   22294489.0164
 11  9 27 18  9  0.0000000  0  8G07G08G11G17G24G26G28G04
  13747056.27347  10699100.11742  23870034.1094                   23870041.2544
   7284442.35247   5673624.92643  21379824.7814                   21379827.3954
  12292696.297 6                  24396679.813
  -3454904.61348  -2679681.71644  20704012.4454                   20704012.2734
   7898477.24647   6150430.54153  23615512.1954                   23615515.6724
   6249329.06647   4867628.30653  23915358.5554                   23915364.3524
  -2579210.70348  -2004359.91444  21127459.4844                   21127457.8524
 -11388694.32047  -8863253.22843  22270137.1334                   22270140.1094
 11  9 27 18  9 30.0000000  0  8G07G08G11G17G24G26G28G04
  13836238.39547  10768592.26242  23887005.4614                   23887012.5274
   7349262.26647   5724133.81743  21392159.8674                   21392161.5944
  12374115.078 6                  24412173.359
  -3478041.57448  -2697710.49045  20699609.7114                   20699609.2344
   7961653.82047   6199659.09643  23627534.0944                   23627536.5634
   6296109.645 7                  23924260.867
  -2612263.08248  -2030115.03144  21121170.1644                   21121169.4024
 -11516422.80947  -8962781.72043  22245831.2034                   22245834.6454
 11  9 27 18 10  0.0000000  0  8G07G08G11G17G24G26G28G04
  13925536.23046  10838174.52843  23903998.4144                   23904005.1054
   7414504.34447   5774971.64343  21404574.7504                   21404577.3984
  12455674.492 6                  24427693.914
  -3500913.80148  -2715533.02844  20695257.1644                   20695257.0394
   8025151.77047   6249137.77352  23639618.3524                   23639623.1454
   6343103.00047   4940698.52653  23933203.3524                   23933209.6484
  -2645159.84448  -2055748.86544  21114909.9534                   21114909.0744
 -11643919.97347  -9062129.90043  22221569.0634                   22221572.3364
 11  9 27 18 10 30.0000000  0  9G07G08G11G17G24G26G28G04G20
  14014948.58246  10907846.16053  23921013.1644                   23921020.7034
   7480167.72747   5826137.83443  21417070.6484                   21417072.3404
  12537373.527 6                  24443240.391
  -3523520.77747  -2733148.82444  20690955.0704                   20690955.0704
   8088970.22747   6298866.59253  23651761.9694                   23651764.5594
   6390307.98047   4977481.30443  23942186.7274                   23942191.8284
  -2677897.87148  -2081258.93944  21108679.8674                   21108679.4304
 -11771181.43747  -9161294.66443  22197351.8364                   22197354.0984
   3051176.19916                  24557359.805
 11  9 27 18 11  0.0000000  0  9G07G08G11G17G24G26G28G04G20
  14104463.578 6                  23938047.742
   7546240.84047   5877623.27243  21429643.4774                   21429646.2234
  12619200.316 6                  24458811.844
  -3545873.39847  -2750566.44945  20686701.2894                   20686701.6214
   8153097.46146   6348835.70352  23663964.5784                   23663967.0864
   6437711.86747   5014419.10942  23951207.1724                   23951213.4064
  -2710485.38748  -2106651.80744  21102478.6024                   21102477.2774
 -11898213.21947  -9260280.29743  22173178.3914                   22173181.3484
   2984436.758 6                  24544659.453
 11  9 27 18 11 30.0000000  0  8G07G08G17G24G26G28G04G20
  14194078.023 6                  23955100.250
   7612719.98847   5929425.02143  21442294.5704                   21442297.0004
  -3567973.51648  -2767787.33544  20682496.0084                   20682495.7384
   8217530.03946   6399042.66953  23676226.1254                   23676232.3244
   6485310.37147   5051508.68153  23960265.3134                   23960271.3134
  -2742921.72348  -2131926.90844  21096306.4844                   21096305.5204
 -12025013.59047  -9359085.68543  22149048.7974                   22149051.6684
   2917938.742 6                  24532004.281
 11  9 27 18 12  0.0000000  0  8G07G08G17G24G26G28G04G20
  14283791.23446  11117332.57852  23972172.8204                   23972182.3244
   7679604.63347   5981542.86743  21455022.0084                   21455025.5474
  -3589820.71947  -2784811.07844  20678338.7894                   20678338.3204
   8282267.01246   6449487.15642  23688545.1724                   23688551.2424
   6533102.31347   5088749.25753  23969359.5314                   23969364.2274
  -2775203.71948  -2157081.67944  21090163.5634                   21090162.9654
 -12151577.58647  -9457706.75543  22124964.8364                   22124968.0234
   2851686.648 6                  24519396.781
 11  9 27 18 12 30.0000000  0  8G07G08G17G24G26G28G04G20
  14373615.844 6                  23989266.703
   7746907.70347   6033986.63243  21467829.4224                   21467832.2544
  -3611400.44147  -2801626.44545  20674232.2974                   20674231.8404
   8347321.152 6                  23700924.305
   6581099.94947   5126149.73852  23978494.3444                   23978499.0554
  -2807314.59048  -2182103.15644  21084052.9144                   21084051.9844
 -12277887.12947  -9556129.79743  22100928.3524                   22100931.8524
   2785698.395 6                  24506840.313
 11  9 27 18 13  0.0000000  0  8G07G08G17G24G26G28G04G20
  14463554.37946  11257407.09052  24006381.5554                   24006387.7274
   7814631.71547   6086758.48043  21480717.2974                   21480719.8204
  -3632709.16048  -2818230.63145  20670177.2894                   20670177.3244
   8412695.14847   6551113.93153  23713364.9454                   23713365.7894
   6629305.012 6                  23987666.328
  -2839247.55148  -2206985.98144  21077976.2424                   21077974.6804
 -12403933.88347  -9654347.62443  22076942.6564                   22076945.8204
   2719982.102 6                  24494334.773
 11  9 27 18 13 30.0000000  0  8G07G08G17G24G26G28G04G20
  14553602.391 6                  24023517.820
   7882772.27747   6139854.88543  21493684.1024                   21493686.8484
  -3653749.93748  -2834626.07844  20666173.2504                   20666173.5514
   8478384.375 6                  23725865.070
   6677712.43846   5201430.66853  23996878.6954                   23996883.1174
  -2871003.26648  -2231730.68044  21071932.9844                   21071932.5864
 -12529717.00447  -9752360.42743  22053006.9454                   22053010.0124
   2654537.949 6                  24481881.125
 11  9 27 18 14  0.0000000  0  8G07G08G17G24G26G28G04G20
  14643754.07046  11397821.52052  24040672.9844                   24040681.4534
   7951323.41447   6193271.25543  21506728.8284                   21506731.7854
  -3674527.48448  -2850816.33944  20662219.3054                   20662219.1174
   8544382.69546   6653724.80953  23738423.9614                   23738428.3794
   6726315.36347   5239303.01642  24006127.5394                   24006131.7584
  -2902583.88748  -2256338.96544  21065924.0314                   21065923.0044
 -12655237.25847  -9850168.29743  22029120.4614                   22029124.7114
   2589365.320 6                  24469478.969
 11  9 27 18 14 30.0000000  0  8G07G08G17G24G26G28G04G20
  14734002.809 6                  24057847.570
   8020278.63747   6247002.43343  21519850.6954                   21519854.1174
  -3695046.72748  -2866805.35144  20658314.7664                   20658314.6524
   8610683.922 6                  23751040.789
   6775106.73447   5277321.45853  24015412.2344                   24015420.2504
  -2933991.64848  -2280812.51544  21059947.0944                   21059946.4344
 -12780495.34847  -9947771.76343  22005284.6724                   22005288.1804
   2524462.938 6                  24457129.102
 11  9 27 18 15  0.0000000  0  8G07G08G17G24G26G28G04G20
  14824348.910 6                  24075040.148
   8089638.08647   6301048.54743  21533049.6024                   21533051.3444
  -3715306.11348  -2882591.90144  20654459.5704                   20654459.5634
   8677288.273 6                  23763715.688
   6824086.35247   5315487.86453  24024733.2114                   24024739.3094
  -2965222.46548  -2305148.21444  21054004.2034                   21054003.4734
 -12905485.84447 -10045166.94943  21981500.0234                   21981503.0664
   2459836.258 6                  24444830.398
 11  9 27 18 15 30.0000000  0  8G07G08G17G24G26G28G04G20
  14914783.32846  11609011.92853  24092248.9454                   24092259.8444
   8159392.86347   6355402.89943  21546323.4454                   21546326.3014
  -3735313.57848  -2898182.11144  20650652.1954                   20650652.4454
   8744186.559 6                  23776446.031
   6873244.16847   5353792.49353  24034087.7504                   24034093.5434
  -2996281.13348  -2329349.81144  21048093.6414                   21048092.7344
 -13030211.91447 -10142355.81943  21957764.9304                   21957767.4614
   2395481.395 6                  24432584.086
 11  9 27 18 16  0.0000000  0  8G07G08G17G24G26G28G04G20
  15005301.402 6                  24109474.742
   8229537.87947   6410061.12943  21559671.6954                   21559673.9734
  -3755072.19548  -2913578.46245  20646892.2194                   20646892.5124
   8811374.29346   6861769.89153  23789231.7974                   23789236.8164
   6922575.07447   5392232.02053  24043474.8834                   24043480.7704
  -3027168.23848  -2353417.72644  21042216.0704                   21042215.3204
 -13154672.93748 -10239338.45643  21934080.5784                   21934083.1024
   2331398.941 6                  24420389.977
 11  9 27 18 16 30.0000000  0  8G07G08G17G24G26G28G04G20
  15095905.70746  11750145.28152  24126716.1884                   24126725.6294
   8300075.80947   6465025.61243  21573094.7274                   21573097.3594
  -3774578.34848  -2928777.99544  20643180.4774                   20643179.9344
   8878853.89546   6914351.42143  23802072.2344                   23802076.7234
   6972080.902 6                  24052895.211
  -3057877.78948  -2377347.19444  21036372.1564                   21036370.8444
 -13278861.09048 -10336108.24343  21910448.6174                   21910452.0594
   2267596.473 6                  24408247.719
 11  9 27 18 17  0.0000000  0  8G07G08G17G24G26G28G04G20
  15186588.38746  11820806.58543  24143972.9924                   24143982.8914
   8370998.62947   6520290.08543  21586591.1954                   21586594.0594
  -3793838.78948  -2943786.14144  20639515.4924                   20639514.5124
   8946616.92647   6967153.79752  23814967.2194                   23814971.5984
   7021752.71546   5469512.58652  24062348.7114                   24062354.1804
  -3088413.19148  -2401141.03944  21030561.4924                   21030560.2034
 -13402779.02048 -10432667.47043  21886867.9454                   21886870.7774
   2204070.945 6                  24396158.906
 11  9 27 18 17 30.0000000  0  8G07G08G17G24G26G28G04G20
  15277346.94946  11891527.10552  24161244.4534                   24161255.4844
   8442304.24247   6575852.81443  21600160.1024                   21600162.6684
  -3812854.06648  -2958603.21944  20635896.7814                   20635896.5944
   9014661.461 6                  23827915.797
   7071588.06346   5508343.18253  24071832.3364                   24071838.9494
  -3118773.22748  -2424798.24544  21024784.0864                   21024784.1604
 -13526423.06648 -10529013.38543  21863338.9064                   21863342.4184
   2140825.656 6                  24384123.367
 11  9 27 18 18  0.0000000  0  8G07G08G17G24G26G28G04G20
  15368176.85246  11962303.15642  24178528.8284                   24178540.4224
   8513988.13747   6631710.16443  21613801.3444                   21613803.5554
  -3831627.66048  -2973232.03744  20632324.2504                   20632324.0474
   9082982.80946   7073412.67353  23840917.1644                   23840918.1374
   7121581.44947   5547298.82042  24081345.8444                   24081352.2074
  -3148957.94948  -2448318.80044  21019040.4454                   21019038.9494
 -13649792.50048 -10625145.31143  21839862.3524                   21839864.8634
   2077860.688 6                  24372142.453
 11  9 27 18 18 30.0000000  0  8G07G08G17G24G26G28G04G20
  15459077.78946  12033134.57452  24195827.7424                   24195835.6214
   8586049.34047   6687861.62743  21627514.0864                   21627516.6724
  -3850158.66848  -2987671.74444  20628798.0164                   20628797.4344
   9151580.246 6                  23853970.664
   7171731.859 6                  24090889.398
  -3178964.12948  -2471700.25544  21013330.5634                   21013329.6334
 -13772882.46948 -10721059.41643  21816439.1024                   21816442.0594
   2015181.020 6                  24360214.516
 11  9 27 18 19  0.0000000  0  8G07G08G17G24G26G28G04G20
  15550045.277 6                  24213138.078
   8658482.70347   6744303.04843  21641298.0314                   21641300.4264
  -3868450.41848  -3001925.04244  20625317.0004                   20625316.6094
   9220449.090 6                  23867076.133
   7222033.85546   5625573.10552  24100460.6884                   24100467.8714
  -3208792.50848  -2494943.10744  21007654.5164                   21007654.3754
 -13895692.39848 -10816755.31243  21793068.6174                   21793071.9694
   1952786.977 6                  24348340.281
 11  9 27 18 19 30.0000000  0  8G07G08G17G24G26G28G04G20
  15641077.53946  12174951.66452  24230461.4614                   24230471.1334
   8731286.99647   6801033.63543  21655152.0864                   21655155.0314
  -3886503.14548  -3015992.09544  20621882.0944                   20621881.3524
   9289588.05147   7234403.72153  23880233.0704                   23880236.1564
   7272485.07847   5664885.45554  24110061.5474                   24110064.9414
  -3238440.25448  -2518045.28944  21002012.4454                   21002011.6724
 -14018218.15648 -10912229.85243  21769752.8674                   21769756.2304
   1890682.121 6                  24336522.469
 11  9 27 18 20  0.0000000  0  8G07G08G17G24G26G28G04G20
  15732171.941 6                  24247795.719
   8804459.37147   6858050.98143  21669076.8594                   21669080.1684
  -3904318.44948  -3029874.16644  20618491.8054                   20618491.2384
   9358994.51646   7288486.69853  23893440.6724                   23893444.8754
   7323082.43847   5704311.77753  24119690.3914                   24119696.0434
  -3267906.15248  -2541005.73344  20996405.2194                   20996404.3954
 -14140457.10948 -11007480.79143  21746491.5864                   21746494.5744
   1828868.855 6                  24324759.977
 11  9 27 18 20 30.0000000  0  8G07G08G17G24G26G28G04G20
  15823324.633 6                  24265142.430
   8877995.78147   6915351.96943  21683070.1564                   21683072.7814
  -3921898.57848  -3043572.93444  20615146.1954                   20615146.0554
   9428664.35947   7342774.53552  23906698.4224                   23906701.2424
   7373821.289 6                  24129346.297
  -3297190.15248  -2563824.48144  20990832.7424                   20990831.8754
 -14262407.59448 -11102507.06743  21723284.7974                   21723287.7584
   1767348.527 6                  24313053.281
 11  9 27 18 21  0.0000000  0  8G07G08G17G24G26G28G04G20
  15914535.293 5                  24282499.094
   8951895.57447   6972935.99643  21697132.8754                   21697135.6174
  -3939242.86748  -3057087.99244  20611846.0864                   20611845.7894
   9498596.879 6                  23920006.023
   7424700.48847   5783494.26253  24139028.3914                   24139033.6724
  -3326288.64148  -2586498.60844  20985295.4844                   20985294.1724
 -14384064.80147 -11197304.74943  21700134.4304                   21700136.8984
   1706125.465 6                  24301403.203
 11  9 27 18 21 30.0000000  0  8G07G08G17G24G26G28G04G20
  17581218.215 6                  24599659.258
  10601573.74247   8258399.38843  22011056.4614                   22011059.3984
  -2380931.66448  -1842819.50844  20908382.7274                   20908382.3324
  11144207.316 6                  24233154.891
   9051135.39147   7050845.82853  24448528.6414                   24448536.9694
  -1779779.03948  -1381426.16744  21279586.1254                   21279585.1484
 -12930001.64848 -10064268.34843  21976832.9694                   21976835.4414
   3220624.46546   2512961.69552  24589602.9384                   24589608.0124
 11  9 27 18 22  0.0000000  0  8G07G08G17G24G26G28G04G20
  17672534.88746  13757902.16052  24617036.0234                   24617051.7274
  10676189.94147   8316541.73643  22025255.2034                   22025258.9104
  -2397809.84448  -1855971.29744  20905170.6414                   20905170.0434
  11214655.504 6                  24246561.492
   9102283.695 7                  24458261.508
  -1808504.24648  -1403809.45344  21274120.2504                   21274119.1484
 -13051065.61747 -10158603.82943  21953795.4454                   21953798.1334
                   3160001.395 6                                  24578066.609
 11  9 27 18 22 30.0000000  0  8G07G08G17G24G26G28G04G20
  17763900.715 6                  24634423.359
  10751160.53147   8374960.19043  22039521.8524                   22039525.1604
  -2414457.06248  -1868943.17044  20902002.7814                   20902002.9344
  11285357.293 6                  24260015.547
   9153561.84447   7130659.40453  24468019.9694                   24468030.3284
  -1837040.66848  -1426045.61344  21268690.0314                   21268688.9844
 -13171828.79347 -10252704.82043  21930815.1174                   21930817.2734
                   3099682.449 6                                  24566586.984
 11  9 27 18 23  0.0000000  0  8G07G08G17G24G26G28G04G20
  17855311.836 6                  24651818.633
  10826481.19547   8433651.50343  22053855.2114                   22053858.5434
  -2430875.64848  -1881736.87144  20898878.4774                   20898878.4264
  11356308.777 6                  24273517.117
   9204965.04746   7170713.61752  24477801.9304                   24477808.3014
  -1865387.82448  -1448134.30144  21263295.7894                   21263294.4924
 -13292289.96147 -10346570.52243  21907892.2974                   21907894.7504
                   3039668.324 6                                  24555166.883
 11  9 27 18 23 30.0000000  0  8G07G08G17G24G26G28G04G20
  17946763.539 5                  24669220.516
  10902147.13347   8492611.83243  22068253.8754                   22068256.8674
  -2447069.15648  -1894355.20344  20895796.7034                   20895796.1844
  11427505.27346   8900312.42252  24287065.3364                   24287072.6294
   9256487.910 6                  24487606.641
  -1893546.81648  -1470076.38644  21257937.1884                   21257936.3244
 -13412448.24647 -10440200.28443  21885026.6954                   21885028.7034
                   2979959.238 6                                  24543805.664
 11  9 27 18 24  0.0000000  0  8G07G08G17G24G26G28G04G20
  18038251.523 6                  24686632.141
  10978153.79747   8551837.64843  22082717.6644                   22082721.5394
  -2463040.90648  -1906800.67044  20892757.5704                   20892757.1764
  11498942.445 6                  24300659.711
   9308125.418 6                  24497432.781
  -1921518.04748  -1491872.14244  21252614.4844                   21252613.4184
 -13532302.62547 -10533593.15643  21862218.6724                   21862222.1764
                   2920555.840 6                                  24532501.117
 11  9 27 18 24 30.0000000  0  7G08G17G24G26G28G04G20
  11054497.88347   8611326.48343  22097245.5554                   22097249.5124
  -2478792.23048  -1919074.42944  20889760.3834                   20889759.7344
  11570617.148 6                  24314298.391
   9359874.191 6                  24507280.406
  -1949300.32048  -1513520.66044  21247327.6954                   21247326.5004
 -13651850.71147 -10626747.42943  21839469.3204                   21839471.7154
   2861460.43846   2233088.84153  24521254.3204                   24521260.7974
 11  9 27 18 25  0.0000000  0  7G08G17G24G26G28G04G20
  11131181.48047   8671079.65643  22111837.9924                   22111841.5004
  -2494319.18048  -1931173.33844  20886805.3984                   20886805.5864
  11642531.930 6                  24327983.594
   9411735.79347   7331827.78152  24517150.3594                   24517152.9574
  -1976886.81648  -1535016.65744  21242078.1484                   21242077.8164
 -13771084.52047 -10719656.77343  21816780.0234                   21816781.9804
   2802680.523 6                                                  24510070.047
 11  9 27 18 25 30.0000000  0  7G08G17G24G26G28G04G20
  11208210.35547   8731102.05443  22126496.8444                   22126499.0044
  -2509614.58648  -1943091.89144  20883895.0314                   20883894.1294
  11714692.660 6                  24341715.508
   9463715.902 6                  24527041.305
  -2004267.67648  -1556352.34644  21236867.3284                   21236867.3284
 -13889992.80147 -10812312.39643  21794152.1414                   21794154.0554
   2744226.914 6                                                  24498946.727
 11  9 27 18 26  0.0000000  0  7G08G17G24G26G28G04G20
  11285581.78947   8791391.34043  22141219.9384                   22141223.8594
  -2524679.84448  -1954831.03644  20881028.3914                   20881027.7624
  11787096.578 6                  24355493.609
   9515811.074 6                  24536955.016
  -2031441.44948  -1577526.73844  21231696.7274                   21231695.4614
 -14008572.67247 -10904712.19643  21771587.0164                   21771589.6524
   2686101.87946   2096446.13352  24487885.4454                   24487893.2194
 11  9 27 18 26 30.0000000  0  7G08G17G24G26G28G04G20
  11363291.24247   8851943.98743  22156007.3834                   22156011.1764
  -2539518.07848  -1966393.27844  20878204.3754                   20878204.6094
  11859739.297 6                  24369317.031
   9568016.184 6                  24546888.875
  -2058408.71147  -1598540.17044  21226565.0314                   21226563.4884
 -14126823.69147 -10996855.75043  21749084.4924                   21749086.5704
   2628305.793 5                                                  24476887.484
 11  9 27 18 27  0.0000000  0  7G08G17G24G26G28G04G20
  11441330.88347   8912753.89443  22170858.3674                   22170861.4774
  -2554134.89548  -1977783.02144  20875423.0474                   20875422.8054
  11932613.641 6                  24383184.750
   9620323.625 6                  24556844.188
  -2085172.31648  -1619394.93244  21221472.0084                   21221470.9804
 -14244747.13347 -11088744.00143  21726644.4844                   21726646.7504
   2570837.047 6                                                  24465950.789
 11  9 27 18 27 30.0000000  0  7G08G17G24G26G28G04G20
  11519694.05547   8973815.94443  22185770.2034                   22185774.0044
  -2568535.53148  -1989004.30544  20872682.8054                   20872682.4344
  12005712.953 6                  24397095.352
   9672726.035 6                  24566815.727
  -2111734.91447  -1640093.10944  21216417.0634                   21216416.3014
 -14362344.53547 -11180378.20243  21704266.3984                   21704268.3524
   2513693.688 6                                                  24455076.625
 11  9 27 18 28  0.0000000  0  7G08G17G24G26G28G04G20
  11598376.63747   9035126.91143  22200743.2274                   22200747.1684
  -2582722.78548  -2000059.26544  20869982.8054                   20869982.1484
  12079033.246 6                  24411047.289
   9725219.176 6                  24576804.070
  -2138096.39848  -1660634.50844  21211400.6024                   21211399.9534
 -14479614.39147 -11271757.17143  21681950.5944                   21681952.9184
   2456876.82046   1917828.45153  24444264.8524                   24444269.1484
 11  9 27 18 28 30.0000000  0  7G08G17G24G26G28G04G20
  11677373.57447   9096682.77843  22215775.7274                   22215779.0474
  -2596700.12148  -2010950.70944  20867323.1254                   20867322.5084
  12152569.582 6                  24425041.406
   9777797.31647   7617068.84753  24586809.5234                   24586812.1564
  -2164257.52048  -1681019.79344  21206422.5864                   21206422.4024
 -14596556.18447 -11362880.55143  21659696.9454                   21659698.6804
   2400386.285 6                                                  24433515.094
 11  9 27 18 29  0.0000000  0  7G08G17G24G26G28G04G20
  11756686.65647   9158485.05343  22230869.1724                   22230872.4614
  -2610464.07848  -2021675.88244  20864703.7424                   20864703.4304
  12226324.031 6                  24439075.773
   9830462.188 6                  24596832.289
  -2190212.05548  -1701244.14844  21201483.9844                   21201482.9964
 -14713162.67247 -11453742.60043  21637507.5234                   21637510.5864
   2344229.281 6                                                  24422829.070
 11  9 27 18 29 30.0000000  0  7G08G17G24G26G28G04G20
  11836309.60247   9220528.65443  22246020.6414                   22246024.6994
  -2624019.19148  -2032238.29244  20862124.4694                   20862124.1094
  12300290.930 6                  24453151.000
   9883207.14547   7699205.81953  24606869.3524                   24606876.9614
  -2215961.66847  -1721308.81544  21196584.0394                   21196583.2234
 -14829433.92247 -11544343.46143  21615381.8524                   21615384.1254
   2288404.70746   1786554.11953  24412205.6954                   24412208.7734
 11  9 27 18 30  0.0000000  0  7G08G17G24G26G28G04G20
  11916242.09447   9282813.56443  22261231.6484                   22261235.7274
  -2637364.58248  -2042637.31944  20859584.9384                   20859584.7154
  12374469.684 6                  24467267.383
   9936031.33646   7740367.47843  24616922.4614                   24616929.6484
  -2241502.80947  -1741210.94844  21191723.5084                   21191723.0434
 -14945365.48448 -11634679.65243  21593321.1804                   21593323.3594
   2232916.984 6                                                  24401646.727
 11  9 27 18 30 30.0000000  0  7G08G17G24G26G28G04G20
  11996478.46947   9345335.26843  22276499.8984                   22276503.5784
  -2650503.45748  -2052875.39544  20857084.7584                   20857084.5554
  12448855.453 6                  24481421.789
   9988929.285 6                  24626987.602
  -2266836.31648  -1760951.37844  21186902.8054                   21186901.9884
 -15060956.63747 -11724750.57743  21571324.2734                   21571327.4304
   2177766.598 6                                                  24391151.906
 11  9 27 18 31  0.0000000  0  7G08G17G24G26G28G04G20
  12077017.35547   9408092.70143  22291825.7584                   22291830.0434
  -2663436.10948  -2062952.75244  20854623.8134                   20854623.1484
  12523446.723 6                  24495616.984
  10041899.242 6                  24637068.109
  -2291959.46948  -1780527.84044  21182122.1174                   21182121.7424
 -15176203.73447 -11814553.30143  21549393.0864                   21549395.7894
   2122956.53946   1657632.69753  24380721.9384                   24380724.7344
 11  9 27 18 31 30.0000000  0  7G08G17G24G26G28G04G20
  12157855.36347   9471083.02043  22307209.3364                   22307213.4574
  -2676164.16848  -2072870.73444  20852201.5704                   20852200.7304
  12598240.480 6                  24509849.305
  10094937.441 6                  24647160.930
  -2316870.85248  -1799939.34044  21177381.5164                   21177380.6844
 -15291104.39147 -11904086.24843  21527527.9694                   21527530.6294
   2068488.934 6                                                  24370356.922
 11  9 27 18 32  0.0000000  0  7G08G17G24G26G28G04G20
  12238990.94547   9534305.45343  22322649.4924                   22322653.0234
  -2688687.31648  -2082629.03444  20849818.3444                   20849818.2814
  12673235.391 6                  24524121.313
  10148041.898 6                  24657266.367
  -2341568.22748  -1819184.01244  21172681.8444                   21172679.8874
 -15405654.42647 -11993345.88843  21505730.3134                   21505732.5664
   2014367.06346   1573017.76252  24360057.7814                   24360057.6804
 11  9 27 18 32 30.0000000  0  7G08G17G24G26G28G04G20
  12320418.01247   9597754.93743  22338144.3284                   22338148.0594
  -2701010.09848  -2092231.21844  20847473.7114                   20847473.1684
  12748425.703 6                  24538428.891
  10201206.555 6                  24667383.688
  -2366053.08248  -1838263.15744  21168022.5314                   21168021.2154
 -15519854.38747 -12082332.74743  21483998.6804                   21484000.6454
   1960590.39846   1531113.85643  24349824.6024                   24349826.2114
 11  9 27 18 33  0.0000000  0  8G09G08G17G24G26G28G04G20
   4538918.11316                  24208703.617
  12402136.22747   9661431.23743  22353695.4614                   22353698.9454
  -2713131.27348  -2101676.25344  20845166.8984                   20845166.6644
  12823811.383 6                  24552774.156
  10254430.719 6                  24677512.313
  -2390321.41848  -1857173.53044  21163404.1254                   21163402.9264
 -15633699.11747 -12171042.78643  21462334.5784                   21462336.7814
   1907163.445 5                  24339657.422
 11  9 27 18 33 30.0000000  0  8G09G08G17G24G26G28G04G20
   4412831.71946   3453514.04752  24184710.2424                   24184715.9774
  12484132.94547   9725324.67243  22369298.5704                   22369302.2504
  -2725061.69948  -2110972.69044  20842896.7584                   20842895.9144
  12899380.00446  10047203.37152  24567154.8444                   24567159.5904
  10307701.766 6                  24687649.727
  -2414381.27747  -1875921.48244  21158825.6804                   21158824.2544
 -15747195.57447 -12259481.49944  21440737.3834                   21440738.6024
   1854079.145 6                  24329556.055
 11  9 27 18 34  0.0000000  0  8G09G08G17G24G26G28G04G20
   4287011.39146   3355472.35643  24160767.5314                   24160772.3244
  12566399.66447   9789428.19643  22384953.2584                   22384956.8014
  -2736808.36348  -2120125.93844  20840661.7034                   20840661.1644
  12975123.258 6                  24581567.969
  10361010.656 6                  24697793.406
  -2438236.88748  -1894510.29044  21154286.0634                   21154285.3634
 -15860346.89847 -12347651.27643  21419205.1564                   21419207.2774
   1801333.855 5                  24319517.961
 11  9 27 18 34 30.0000000  0  8G09G08G17G24G26G28G04G20
   4161465.242 6                  24136877.305
  12648938.03147   9853743.71043  22400659.9694                   22400663.3554
  -2748367.39548  -2129133.02044  20838461.9454                   20838461.4774
  13051043.633 6                  24596015.688
  10414358.965 6                  24707945.734
  -2461882.02348  -1912935.06544  21149786.7894                   21149785.2384
 -15973145.53147 -12435546.20043  21397740.1024                   21397741.8984
   1748934.188 5                  24309547.039
 11  9 27 18 35  0.0000000  0  8G09G08G17G24G26G28G04G20
   4036199.042 6                  24113039.695
  12731748.18447   9918270.91543  22416418.5634                   22416422.5904
  -2759737.37148  -2137992.70744  20836298.4144                   20836297.8364
  13127140.914 6                  24610496.672
  10467746.570 6                  24718105.180
  -2485312.24247  -1931192.41544  21145328.0634                   21145327.7234
 -16085585.94547 -12523162.02043  21376343.0084                   21376344.9344
   1696885.410 6                  24299642.531
 11  9 27 18 35 30.0000000  0  8G09G08G17G24G26G28G04G20
   3911221.957 6                  24089257.258
  12814832.84047   9983011.93343  22432229.3524                   22432233.0634
  -2770913.75448  -2146701.60444  20834171.2504                   20834170.7774
  13203418.367 6                  24625012.172
  10521176.074 6                  24728272.313
  -2508520.64847  -1949276.90744  21140911.6414                   21140910.4414
 -16197659.90247 -12610492.23144  21355016.2974                   21355017.9614
   1645195.492 5                  24289805.711
 11  9 27 18 36  0.0000000  0  7G09G08G17G26G28G04G20
   3786539.453 6                  24065530.914
  12898191.45747  10047966.48243  22448091.4534                   22448095.9184
  -2781895.32448  -2155258.64744  20832081.5004                   20832080.9304
  10574647.148 6                  24738448.992
  -2531503.05147  -1967185.22644  21136538.2894                   21136537.6414
 -16309362.38347 -12697533.01843  21333759.9454                   21333761.9264
   1593868.906 6                  24280039.180
 11  9 27 18 36 30.0000000  0  7G09G08G17G26G28G04G20
   3662155.938 6                  24041861.469
  12981822.70747  10113133.61043  22464006.1484                   22464010.9534
  -2792682.07048  -2163663.91644  20830028.8284                   20830029.0864
  10628157.664 5                  24748630.078
  -2554256.66847  -1984915.39144  21132208.5394                   21132207.7304
 -16420689.45347 -12784281.31443  21312574.9534                   21312576.6524
   1542909.328 6                  24270341.633
 11  9 27 18 37  0.0000000  0  7G09G08G17G26G28G04G20
   3538085.625 6                  24018251.750
  13065734.63747  10178518.74643  22479975.1564                   22479979.5314
  -2803263.99648  -2171909.59644  20828015.2584                   20828015.4844
  10681715.469 6                  24758822.297
  -2576768.64148  -2002457.18044  21127924.2734                   21127923.0664
 -16531627.26647 -12870726.20744  21291464.2664                   21291466.0664
   1492329.930 6                  24260716.766
 11  9 27 18 37 30.0000000  0  7G09G08G17G26G28G04G20
   3414335.340 6                  23994702.516
  13149927.85547  10244124.07843  22495996.0234                   22496001.2664
  -2813638.44148  -2179993.55144  20826041.4844                   20826040.4414
  10735321.688 6                  24769023.898
  -2599034.17248  -2019806.91644  21123687.1644                   21123686.0394
 -16642169.37547 -12956862.81143  21270428.3914                   21270430.3714
   1442136.359 6                  24251164.578
 11  9 27 18 38  0.0000000  0  7G09G08G17G26G28G04G20
   3290905.641 6                  23971215.031
  13234396.35247  10309943.60443  22512070.3594                   22512074.5354
  -2823809.51648  -2187919.06644  20824105.7034                   20824105.3524
  10788970.13747   8404987.92753  24779233.6644                   24779246.6954
  -2621054.35248  -2036965.47844  21119497.1644                   21119496.8794
 -16752316.07048 -13042691.32243  21249468.0314                   21249470.2154
   1392328.582 6                  24241687.344
 11  9 27 18 38 30.0000000  0  7G09G08G17G26G28G04G20
   3167793.855 6                  23947787.578
  13319131.98847  10375971.06643  22528195.0394                   22528198.8714
  -2833783.82048  -2195691.26744  20822207.5554                   20822206.9964
  10842652.08647   8446818.04853  24789449.9454                   24789459.7384
  -2642833.38747  -2053936.22444  21115352.6804                   21115352.0084
 -16862070.32447 -13128214.04344  21228582.4844                   21228584.2074
   1342902.281 6                  24232281.117
 11  9 27 18 39  0.0000000  0  7G09G08G17G26G28G04G20
   3045002.15647   2387661.86053  23924421.2814                   23924416.9654
  13404130.81347  10442203.72443  22544369.8594                   22544374.0004
  -2843563.91448  -2203312.10244  20820346.3134                   20820346.2854
  10896363.62546   8488670.85953  24799670.1954                   24799682.1174
  -2664370.89148  -2070718.67144  21111254.3914                   21111253.6884
 -16971430.94148 -13213429.94144  21207771.8834                   21207772.9804
   1293858.777 6                  24222948.492
 11  9 27 18 39 30.0000000  0  8G09G08G02G17G26G28G04G20
   2922528.96147   2292233.19553  23901114.9614                   23901115.5514
  13489385.18847  10508635.46843  22560593.4224                   22560597.8444
   4537454.83256   3550663.33953  24695996.7974                   24696003.7274
  -2853155.34848  -2210785.99044  20818521.5704                   20818520.4654
  10950097.05947   8530540.70742  24809895.5314                   24809904.9184
  -2685669.64848  -2087315.13244  21107201.5394                   21107200.5634
 -17080399.59448 -13298340.50644  21187035.6414                   21187037.4774
   1245195.547 6                  24213687.461
 11  9 27 18 40  0.0000000  0  8G09G08G02G17G26G28G04G20
   2800368.79347   2197043.72053  23877867.9844                   23877872.4024
  13574883.53147  10575257.74843  22576863.4614                   22576868.5314
   4410125.285 6                  24671766.273
  -2862567.97748  -2218120.48644  20816730.3204                   20816729.8874
  11003840.992 6                  24820122.875
  -2706736.96548  -2103731.22744  21103192.2424                   21103191.5234
 -17188982.35948 -13382950.34544  21166373.1564                   21166374.9574
   1196906.121 6                  24204498.766
 11  9 27 18 40 30.0000000  0  8G09G08G02G17G26G28G04G20
   2678519.07846   2102095.82953  23854680.8594                   23854683.1294
  13660617.04347  10642062.52742  22593177.9064                   22593182.8874
   4282822.895 6                  24647540.867
  -2871808.61348  -2225321.00344  20814971.7814                   20814971.3634
  11057586.176 6                  24830349.453
  -2727577.32448  -2119970.48244  21099226.3914                   21099225.6604
 -17297182.72348 -13467262.26644  21145783.0944                   21145785.1374
   1148987.023 6                  24195380.367
 11  9 27 18 41  0.0000000  0  8G09G08G02G17G26G28G04G20
   2556986.03146   2007395.11742  23831554.1954                   23831556.5944
  13746586.33647  10709051.35043  22609537.6954                   22609541.9264
   4155553.188 6                  24623321.594
  -2880875.10248  -2232385.81044  20813246.7274                   20813245.7154
  11111332.93447   8656178.12053  24840577.5944                   24840580.0044
  -2748185.80148  -2136029.03144  21095304.6174                   21095303.5554
 -17404994.50848 -13551271.36144  21125267.1094                   21125268.4964
   1101443.219 6                  24186332.664
 11  9 27 18 41 30.0000000  0  8G09G08G02G17G26G28G04G20
   2435773.84446   1912944.15153  23808487.9694                   23808492.4414
  13832789.36747  10776222.35743  22625942.4534                   22625946.4264
   4028319.21546   3153934.93753  24599109.4304                   24599118.9964
  -2889767.81648  -2239315.16044  20811554.2974                   20811553.9414
  11165079.37147   8698058.55753  24850806.1484                   24850810.9694
  -2768559.74648  -2151904.80844  21091428.0394                   21091427.0314
 -17512414.32448 -13634974.99143  21104826.0394                   21104827.2624
   1054277.785 6                  24177357.430
 11  9 27 18 42  0.0000000  0  8G09G08G02G17G26G28G04G20
   2314890.789 6                  23785484.633
  13919227.76647  10843576.67053  22642390.8284                   22642394.8984
   3901127.855 6                  24574905.641
  -2898482.79348  -2246106.08044  20809895.6724                   20809895.3164
  11218827.39546   8739939.75343  24861034.0004                   24861041.1254
  -2788692.94948  -2167593.07644  21087596.6724                   21087595.7664
 -17619434.95348 -13718367.60943  21084460.3914                   21084461.1724
   1007497.762 6                  24168455.430
 11  9 27 18 42 30.0000000  0  8G09G08G02G17G26G28G04G20
   2194341.81646   1724816.59852  23762544.1564                   23762545.4144
  14005900.70347  10911113.68043  22658883.9454                   22658890.0124
   3773983.297 6                  24550709.813
  -2907019.47748  -2252758.04644  20808271.2584                   20808270.3674
  11272575.977 6                  24871262.625
  -2808582.52348  -2183091.45744  21083811.7664                   21083810.9654
 -17726051.92648 -13801445.67444  21064171.7034                   21064173.1684
    961107.012 6                  24159627.883
 11  9 27 18 43  0.0000000  0  8G09G08G02G17G26G28G04G20
   2074127.141 6                  23739667.570
  14092802.07447  10978829.00743  22675421.2504                   22675426.7544
   3646884.633 6                  24526524.344
  -2915381.77348  -2259274.13944  20806680.2114                   20806679.0944
  11326319.055 6                  24881488.766
  -2828228.80948  -2198400.27044  21080073.3284                   21080071.9964
 -17832265.51248 -13884209.43844  21043960.0864                   21043961.2624
    915104.230 6                  24150873.297
 11  9 27 18 43 30.0000000  0  8G09G08G02G17G26G28G04G20
   1954249.469 7                  23716856.711
  14179928.89547  11046719.68243  22692001.1884                   22692006.2114
   3519833.902 6                  24502346.586
  -2923570.72748  -2265655.16044  20805121.7734                   20805121.8554
  11380053.664 5                  24891713.633
  -2847630.81648  -2213518.72244  21076381.3204                   21076380.5984
 -17938073.44548 -13966657.03644  21023825.2584                   21023826.8554
    869491.535 6                  24142193.789
 11  9 27 18 44  0.0000000  0  8G09G08G02G17G26G28G04G20
   1834711.79747   1444584.30553  23694109.1954                   23694112.5634
  14267277.73447  11114783.54243  22708623.5234                   22708629.7854
   3392833.01246   2658752.10552  24478178.9384                   24478185.6804
  -2931588.12948  -2271902.48444  20803596.0394                   20803595.7734
  11433776.559 5                  24901937.242
  -2866787.59848  -2228446.13544  21072735.8834                   21072735.1564
 -18043473.50848 -14048786.91444  21003767.9224                   21003770.4104
    824270.418 6                  24133588.242
 11  9 27 18 44 30.0000000  0  8G09G08G02G17G26G28G04G20
   1715518.18847   1351706.40753  23671427.5704                   23671425.5084
  14354846.94947  11183019.14543  22725286.9064                   22725292.4184
   3265885.129 6                  24454020.891
  -2939433.95348  -2278016.12144  20802103.1644                   20802102.7344
  11487485.602 6                  24912159.273
  -2885696.58248  -2243180.38744  21069137.4224                   21069136.6994
 -18148462.07048 -14130596.10744  20983789.2274                   20983790.5904
    779444.227 6                  24125057.828
 11  9 27 18 45  0.0000000  0  8G09G08G02G17G26G28G04G20
   1596668.11747   1259098.57053  23648810.9224                   23648808.0164
  14442629.41047  11251420.72143  22741991.8524                   22741995.8244
   3138988.67246   2460952.29753  24429873.9144                   24429880.5514
  -2947112.94948  -2283999.77444  20800641.8204                   20800641.9884
  11541174.484 5                  24922373.992
  -2904359.85548  -2257723.26444  21065586.2114                   21065585.4804
 -18253040.64548 -14212085.83844  20963888.7274                   20963890.3834
    735011.082 6                  24116601.703
 11  9 27 18 45 30.0000000  0  8G09G08G02G17G26G28G04G20
   1478168.83247   1166761.05353  23626261.1644                   23626262.4184
  14530626.92247  11319989.90843  22758737.7974                   22758742.7544
   3012149.59846   2362116.91042  24405736.3444                   24405744.0124
  -2954622.13348  -2289851.09544  20799212.8674                   20799212.4064
  11594844.117 5                  24932588.906
  -2922771.91048  -2272070.29244  21062082.3444                   21062081.7504
 -18357202.34848 -14293250.69744  20944067.4844                   20944069.4884
    690976.645 6                  24108224.336
 11  9 27 18 46  0.0000000  0  8G09G08G02G17G26G28G04G20
   1360023.30147   1074699.61443  23603778.8524                   23603780.4144
  14618836.39847  11388724.42843  22775523.2114                   22775528.0514
   2885370.457 6                  24381611.422
  -2961962.77348  -2295571.10144  20797815.8754                   20797815.2584
  11648491.613 6                  24942797.523
  -2940931.27348  -2286220.46144  21058627.0634                   21058626.0554
 -18460945.10248 -14374089.08844  20924325.9774                   20924327.5824
    647343.199 6                  24099919.852
 11  9 27 18 46 30.0000000  0  8G09G08G02G17G26G28G04G20
   1242230.75846    982913.39553  23581363.5314                   23581363.6524
  14707250.69147  11457618.43842  22792348.4534                   22792353.6454
   2758649.42246   2164585.08252  24357496.6094                   24357502.2664
  -2969139.60248  -2301163.40144  20796450.0474                   20796450.0274
  11702110.125 6                  24953001.820
  -2958840.12548  -2300175.41844  21055218.6804                   21055218.1914
 -18564270.27348 -14454602.19444  20904663.7034                   20904664.7074
    604108.582 6                  24091692.406
 11  9 27 18 47  0.0000000  0  8G09G08G02G17G26G28G04G20
   1124794.539 6                  23559015.375
  14795867.035 7                  22809211.031
   2631988.797 6                  24333393.406
  -2976153.51648  -2306628.81144  20795115.8134                   20795115.4844
  11755696.938 6                  24963199.211
  -2976496.83648  -2313933.94644  21051858.9614                   21051858.3524
 -18667175.01248 -14534787.61144  20885081.6484                   20885084.1334
    561275.059 6                  24083541.273
 11  9 27 18 47 30.0000000  0  8G09G08G02G17G26G28G04G20
   1007717.68846    800176.11752  23536736.7194                   23536742.6454
  14884682.75047  11595876.63853  22826112.6644                   22826119.9454
   2505390.801 6                  24309302.297
  -2983005.67648  -2311968.14144  20793811.5944                   20793811.3524
  11809249.289 6                  24973389.344
  -2993900.24248  -2327495.05944  21048547.3284                   21048546.0634
 -18769657.15648 -14614643.72044  20865579.6334                   20865581.5124
    518844.340 6                  24075467.336
 11  9 27 18 48  0.0000000  0  8G09G08G02G17G26G28G04G20
    891002.75446    709229.82943  23514525.9304                   23514530.9964
  14973694.19547  11665235.91943  22843051.3834                   22843057.8754
   2378856.844 6                  24285223.531
  -2989697.71548  -2317182.77344  20792538.3674                   20792538.1684
  11862763.648 6                  24983573.445
  -3011049.20348  -2340857.91744  21045284.1254                   21045283.0124
 -18871714.75048 -14694169.08543  20846158.8674                   20846160.8714
    476817.691 6                  24067470.258
 11  9 27 18 48 30.0000000  0  8G09G08G02G17G26G28G04G20
    774655.66046    618569.33953  23492386.3594                   23492389.7624
  15062901.26647  11734747.73843  22860027.2194                   22860032.5864
   2252391.918 6                  24261158.375
  -2996227.88748  -2322271.18444  20791295.7114                   20791295.3674
  11916239.89547   9283366.93253  24993750.1094                   24993755.6294
  -3027939.54748  -2354019.26344  21042069.5474                   21042068.9534
 -18973342.73448 -14773359.60844  20826819.3284                   20826821.7234
    435199.730 6                  24059549.992
 11  9 27 18 49  0.0000000  0  8G09G08G02G17G26G28G04G20
    658679.50446    528198.35143  23470316.4774                   23470319.6764
  15152300.79747  11804409.43743  22877039.6414                   22877045.7114
   2125998.277 6                  24237105.359
  -3002597.19548  -2327234.31744  20790083.7814                   20790083.5124
  11969675.082 6                  25003918.672
  -3044569.74648  -2366977.83944  21038905.0704                   21038904.2704
 -19074538.77048 -14852213.58944  20807562.2664                   20807563.5234
    393992.199 6                  24051707.867
 11  9 27 18 49 30.0000000  0  7G09G08G02G17G28G04G20
    543078.664 6                  23448318.969
  15241891.24647  11874219.83753  22894088.2194                   22894091.0394
   1999679.17646   1573176.04752  24213067.2814                   24213072.7664
  -3008805.35948  -2332071.84644  20788902.2194                   20788901.4694
  -3060937.01648  -2379731.61744  21035790.7894                   21035789.4574
 -19175299.09448 -14930728.03144  20788388.1644                   20788389.5434
    353198.223 6                  24043946.234
 11  9 27 18 50  0.0000000  0  7G09G08G02G17G28G04G20
    427859.13346    348338.58453  23426393.1644                   23426394.7624
  15331672.813 7                  22911172.891
   1873440.03146   1474808.33242  24189044.8914                   24189050.1604
  -3014850.76248  -2336782.55244  20787751.8984                   20787751.6684
  -3077036.85248  -2392276.94444  21032727.0164                   21032726.2274
 -19275618.49248 -15008898.94544  20769298.1094                   20769299.2344
    312822.781 6                  24036261.859
 11  9 27 18 50 30.0000000  0  7G09G08G02G17G28G04G20
    313034.99247    258865.18753  23404542.7664                   23404550.2664
  15421653.180 7                  22928295.852
   1747293.87546   1376512.96542  24165039.0234                   24165046.4264
  -3020723.16448  -2341358.48944  20786634.4384                   20786634.3984
  -3092856.65248  -2404604.05544  21029716.5474                   21029715.4774
 -19375483.37148 -15086715.63744  20750294.2194                   20750295.4804
    272878.484 6                  24028660.781
 11  9 27 18 51  0.0000000  0  7G09G08G02G17G28G04G20
    198614.62947    169706.55543  23382769.6094                   23382774.9964
  15511835.188 7                  22945457.406
   1621248.19546   1278295.98842  24141053.5784                   24141061.1254
  -3026418.22348  -2345796.20444  20785550.5634                   20785550.1564
  -3108389.68748  -2416707.71444  21026760.3364                   21026759.6954
 -19474886.35248 -15164172.45044  20731378.2504                   20731380.5904
    233372.492 6                  24021143.172
 11  9 27 18 51 30.0000000  0  7G09G08G02G17G28G04G20
     84599.340 7                  23361073.188
  15602214.094 7                  22962656.234
   1495303.06346   1180157.22352  24117086.2194                   24117092.1954
  -3031938.85948  -2350097.99244  20784500.1724                   20784499.5904
  -3123636.56248  -2428588.49344  21023859.1884                   21023858.2934
 -19573826.93048 -15241268.97544  20712550.8914                   20712551.9614
    194304.371 6                  24013708.734
 11  9 27 18 52  0.0000000  0  7G09G08G02G17G28G04G20
    -29010.89546     -7663.81553  23339454.0314                   23339459.1334
  15692783.473 7                  22979891.242
   1369457.668 6                  24093138.773
  -3037289.09448  -2354267.00844  20783482.0944                   20783481.7384
  -3138598.32448  -2440247.00844  21021012.3914                   21021011.0124
 -19672305.75048 -15318005.56544  20693811.0634                   20693812.1054
    155673.125 6                  24006357.336
 11  9 27 18 52 30.0000000  0  7G09G08G02G17G28G04G20
   -142215.10247    -95875.02153  23317911.9844                   23317909.1564
  15783538.102 7                  22997161.102
   1243712.246 6                  24069209.938
  -3042472.22748  -2358305.84044  20782495.7344                   20782495.2384
  -3153276.35248  -2451684.44944  21018218.8524                   21018217.6844
 -19770322.90648 -15394382.52744  20675158.7424                   20675160.0824
    117478.219 6                  23999089.414
 11  9 27 18 53  0.0000000  0  7G09G08G02G17G28G04G20
   -255012.230 6                  23296447.102
  15874473.328 7                  23014465.672
   1118067.141 6                  24045299.953
  -3047490.93448  -2362216.52944  20781540.8594                   20781540.8014
  -3167670.60948  -2462900.80544  21015480.1254                   21015479.3204
 -19867877.50048 -15470399.00044  20656594.5784                   20656595.3444
     79719.824 6                  23991904.680
 11  9 27 18 53 30.0000000  0  7G09G08G02G17G28G04G20
   -367397.28146   -271341.35253  23275060.9144                   23275062.8244
  15965588.477 7                  23031804.828
    992526.37546    788384.65353  24021410.6954                   24021416.3594
  -3052344.25448  -2365998.34944  20780616.8914                   20780616.8244
  -3181777.89148  -2473893.47144  21012795.2424                   21012794.3954
 -19964965.70348 -15546052.09744  20638119.2814                   20638121.3364
     42400.875 6                  23984802.031
 11  9 27 18 54  0.0000000  0  7G09G08G02G17G28G04G20
   1096052.961 6                  23553546.070                    17632293.55947
  13736870.31653                  23348968.6094                   23348973.8834
   2442512.40246   1918244.55443  24297333.6804                   24297339.3284
  -1481616.94948  -1142054.98544  21079516.8674                   21079517.0704
  -1620179.71548  -1257063.78144  21309957.8204                   21309956.8014
 -18486165.87948 -14393740.47344  20919525.6484                   20919526.4734
   1580940.925 6                  24277577.117
 11  9 27 18 54 30.0000000  0  7G09G08G02G17G28G04G20
    984492.28946    782079.28152  23532316.1644                   23532318.0554
                                  17723750.258 7                  23366372.398
   2317177.55146   1820581.29243  24273483.1884                   24273487.6054
  -1486151.83647  -1145588.70044  21078653.6644                   21078653.6134
  -1633717.22348  -1267612.56044  21307381.7344                   21307380.9024
 -18582323.69148 -14468668.57144  20901227.3364                   20901229.0474
   1544497.50046   1206867.82453  24270641.4844                   24270639.2234
 11  9 27 18 55  0.0000000  0  7G09G08G02G17G28G04G20
    873347.78546    695473.20443  23511166.3834                   23511169.0664
                                  17815372.941 7                  23383807.703
   2191948.46546   1723000.12853  24249652.0084                   24249658.5204
  -1490529.01647  -1148999.50344  21077820.6804                   21077820.0704
  -1646968.17648  -1277937.98344  21304860.0394                   21304859.3284
 -18678013.26648 -14543231.80544  20883017.9454                   20883019.3054
   1508493.93846   1178813.34842  24263791.2034                   24263790.4884
 11  9 27 18 55 30.0000000  0  7G09G08G02G17G28G04G20
    762627.03947    609197.37243  23490096.6954                   23490099.5594
                                  17907163.531 7                  23401275.180
   2066832.27746   1625507.58642  24225843.6564                   24225847.9884
  -1494744.90647  -1152284.62744  21077018.6024                   21077018.9494
  -1659926.18748  -1288035.13444  21302394.1414                   21302393.5354
 -18773227.44548 -14617424.57044  20864899.0944                   20864900.5084
   1472936.816 6                  24257024.586
 11  9 27 18 56  0.0000000  0  7G09G08G02G17G28G04G20
    652332.27747    523253.54543  23469108.7734                   23469111.1174
                                  17999117.871 7                  23418772.945
   1941829.62146   1528103.28543  24202055.9144                   24202061.2194
  -1498801.61348  -1155445.71644  21076246.6094                   21076246.2154
  -1672591.45748  -1297904.22843  21299984.3054                   21299983.7664
 -18867965.65648 -14691246.51144  20846870.9384                   20846872.3284
   1437826.094 5                  24250342.859
 11  9 27 18 56 30.0000000  0  7G09G08G02G17G28G04G20
    542464.47347    437642.32753  23448201.8984                   23448205.0204
                                  18091230.875 7                  23436302.313
   1816940.96546   1430787.85453  24178289.6804                   24178290.0594
  -1502702.11748  -1158485.09044  21075504.1024                   21075503.8284
  -1684964.16048  -1307545.31744  21297629.4924                   21297629.0594
 -18962227.68448 -14764697.40944  20828933.8754                   20828934.7584
   1403161.426 6                  24243746.367
 11  9 27 18 57  0.0000000  0  7G09G08G02G17G28G04G20
    433027.83647    352366.99753  23427377.0004                   23427379.0634
                                  18183500.688 6                  23453861.047
   1692169.38346   1333563.37443  24154546.3364                   24154548.8484
  -1506446.43748  -1161402.71944  21074791.8524                   21074791.3164
  -1697041.91448  -1316956.56244  21295331.5084                   21295330.9024
 -19056010.10248 -14837774.55744  20811087.4384                   20811088.5634
   1368945.707 6                  24237234.828
 11  9 27 18 57 30.0000000  0  7G09G08G02G17G28G04G20
    324021.72347    267427.10643  23406633.1724                   23406635.0864
                                  18275921.109 7                  23471448.922
   1567513.41446   1236429.17642  24130824.8364                   24130829.6214
  -1510038.85548  -1164202.00744  21074108.0234                   21074107.6454
  -1708826.87948  -1326139.70844  21293088.9844                   21293088.5274
 -19149314.25048 -14910478.96344  20793332.6024                   20793333.4694
   1335176.656 6                  24230809.016
 11  9 27 18 58  0.0000000  0  7G09G08G02G17G28G04G20
    215446.23047    182822.91143  23385971.5314                   23385975.1604
                                  18368486.105 7                  23489062.766
   1442972.60546   1139384.55952  24107124.8284                   24107126.0984
  -1513483.26647  -1166885.98144  21073453.0554                   21073452.5824
  -1720320.28548  -1335095.59544  21290901.7584                   21290900.6414
 -19242141.21548 -14982811.63844  20775667.8754                   20775668.9614
   1301852.949 6                  24224467.734
 11  9 27 18 58 30.0000000  0  7G09G08G02G17G28G04G20
    107310.50446     98561.56652  23365393.8204                   23365397.7624
                                  18461199.391 7                  23506706.563
   1318555.18046   1042436.37542  24083449.5704                   24083450.8714
  -1516773.96547  -1169450.16544  21072826.5474                   21072826.0204
  -1731514.53548  -1343818.40443  21288771.6024                   21288770.6844
 -19334482.28548 -15054765.59144  20758095.6174                   20758097.3094
   1268982.453 6                  24218213.250
 11  9 27 18 59  0.0000000  0  7G09G08G02G17G28G04G20
      -383.15647     14644.40242  23344901.2584                   23344902.8134
                                  18554057.250 7                  23524376.578
   1194262.40446    945585.27643  24059796.2584                   24059799.4184
  -1519912.93447  -1171896.16644  21072229.1644                   21072228.9384
  -1742408.73848  -1352307.39244  21286698.5634                   21286697.6564
 -19426336.16048 -15126340.01044  20740616.5704                   20740617.0234
   1236566.168 6                  24212043.648
 11  9 27 18 59 30.0000000  0  7G09G08G02G17G28G04G20
   -107637.098 6                  23324490.391
                                  18647051.523 7                  23542073.242
   1070091.77346    848829.17153  24036166.7034                   24036171.8094
  -1522906.18447  -1174228.54844  21071659.2664                   21071658.9144
  -1753006.61348  -1360565.52644  21284681.8674                   21284681.6884
 -19517705.81648 -15197537.11444  20723229.3134                   20723230.7774
   1204600.047 6                  24205961.789
 11  9 27 19  0  0.0000000  0  7G09G08G02G17G28G04G20
   -214448.00447   -152159.19654  23304165.0634                   23304168.8404
                                  18740179.441 7                  23559795.078
    946045.52746    752170.12143  24012562.7504                   24012565.7624
  -1525754.33648  -1176447.93844  21071117.7194                   21071117.2194
  -1763306.68748  -1368591.57444  21282721.9144                   21282721.5434
 -19608589.22348 -15268355.32844  20705934.8594                   20705936.2114
   1173086.145 6                  24199964.273
 11  9 27 19  0 30.0000000  0  7G09G08G02G17G28G04G20
   -320813.57847   -235041.34452  23283924.7664                   23283923.8204
  18833437.36346  14672828.30952  23577541.7194                   23577547.9494
    822125.14547    655609.15153  23988980.5864                   23988984.1214
  -1528458.93048  -1178555.39044  21070603.0704                   21070602.6604
  -1773308.08648  -1376384.90044  21280818.6254                   21280818.2384
 -19698984.76648 -15338793.28444  20688733.1804                   20688733.6804
   1142024.891 6                  24194053.047
 11  9 27 19  1  0.0000000  0  7G09G08G02G17G28G04G20
   -426728.93047   -317572.64843  23263769.7114                   23263771.1564
  18926824.89146  14745597.34253  23595312.7114                   23595321.3594
    698334.68046    559149.38352  23965423.3594                   23965427.0514
  -1531018.62148  -1180549.95544  21070115.7114                   21070115.5124
  -1783007.64548  -1383942.97144  21278973.0084                   21278971.8524
 -19788888.55548 -15408848.14944  20671624.8674                   20671626.1994
   1111419.953 6                  24188229.055
 11  9 27 19  1 30.0000000  0  7G09G08G02G17G28G04G20
   -532192.46147   -399752.05343  23243700.8914                   23243701.5204
  19020337.46146  14818463.91243  23613108.3754                   23613117.0234
    574674.63747    462791.22443  23941892.0944                   23941895.7704
  -1533435.79748  -1182433.51444  21069655.8914                   21069656.0354
  -1792405.28548  -1391265.86244  21277184.4694                   21277184.2194
 -19878299.70348 -15478519.10744  20654610.8204                   20654612.2854
   1081271.031 6                  24182492.055
 11  9 27 19  2  0.0000000  0  7G09G08G02G17G28G04G20
   -637200.66847   -481576.60243  23223717.8134                   23223720.0474
  19113972.934 6                  23630926.328
    451148.234 6                  23918386.000
  -1535710.75848  -1184206.20144  21069222.9614                   21069222.4184
  -1801498.69548  -1398351.62544  21275454.2814                   21275453.7544
 -19967215.87548 -15547804.35944  20637690.2974                   20637691.0904
   1051580.613 6                  24176842.586
 11  9 27 19  2 30.0000000  0  7G09G08G02G17G28G04G20
   -741751.65647   -563044.90453  23203823.1254                   23203827.5704
  19207727.547 6                  23648768.531
    327756.82446    270388.25052  23894904.9144                   23894908.4494
  -1537844.94548  -1185869.24344  21068817.0944                   21068816.8134
  -1810287.63348  -1405200.21344  21273781.5944                   21273781.3094
 -20055635.94548 -15616703.08944  20620864.0314                   20620865.2664
   1022349.059 6                  24171280.141
 11  9 27 19  3  0.0000000  0  7G09G08G02G17G28G04G20
   -845844.20347   -644155.83743  23184014.8524                   23184017.1884
  19301596.94546  15037626.26252  23666630.5554                   23666640.4224
    204500.69147    174344.79643  23871449.7974                   23871452.3094
  -1539841.06248  -1187424.63844  21068436.9844                   21068436.6914
  -1818772.35948  -1411811.70944  21272167.0004                   21272167.1644
 -20143559.38748 -15685214.78344  20604133.2974                   20604134.6954
    993576.004 6                  24165804.617
 11  9 27 19  3 30.0000000  0  7G09G08G02G17G28G04G20
   -949473.90247   -724906.03243  23164294.2664                   23164296.9534
  19395579.246 6                  23684515.023
     81383.09446     78409.24242  23848020.4694                   23848024.5434
  -1541698.59448  -1188872.09544  21068083.3524                   21068082.9574
  -1826949.80548  -1418183.73644  21270610.9614                   21270610.3244
 -20230982.77748 -15753336.86844  20587496.9844                   20587497.7504
    965264.12146    755518.32653  24160416.8524                   24160417.4414
 11  9 27 19  4  0.0000000  0  7G09G08G02G17G28G04G20
  -1052638.10247   -805293.67642  23144662.1174                   23144664.6484
  19489671.176 6                  23702421.047
    -41593.95346    -17416.70143  23824618.3134                   23824622.9264
  -1543418.67248  -1190212.43144  21067756.4224                   21067756.3634
  -1834819.17248  -1424315.73144  21269113.6254                   21269112.8404
 -20317904.83648 -15821068.25344  20570956.0474                   20570957.1644
    937414.305 6                  24155117.180
 11  9 27 19  4 30.0000000  0  7G09G08G02G17G28G04G20
  -1155334.07447   -885316.54742  23125119.7664                   23125122.1994
  19583870.078 6                  23720346.422
   -164428.21946   -113131.36043  23801244.1414                   23801248.3014
  -1545001.82448  -1191446.05644  21067455.2034                   21067455.1294
  -1842379.06648  -1430206.57944  21267675.2034                   21267674.2704
 -20404323.57048 -15888407.49244  20554511.3754                   20554512.1174
    910028.156 6                  24149905.469
 11  9 27 19  5  0.0000000  0  7G09G08G02G17G28G04G20
  -1257565.41447   -964977.20853  23105665.6724                   23105666.7304
  19678167.05146  15331056.16753  23738290.6174                   23738300.1994
   -287123.434 6                  23777895.891
  -1546455.41848  -1192578.71244  21067178.7034                   21067178.2584
  -1849634.15648  -1435859.94144  21266294.3134                   21266293.9064
 -20490243.02048 -15955357.62744  20538161.3674                   20538161.3634
    883100.465 6                  24144780.883
 11  9 27 19  5 30.0000000  0  7G09G08G02G17G28G04G20
  -1359327.72347  -1044272.42153  23086301.2274                   23086303.7734
  19772560.582 6                  23756253.141
   -409676.44946   -304233.24153  23754574.0314                   23754577.3404
  -1547778.73048  -1193609.88144  21066926.6564                   21066926.1684
  -1856581.76648  -1441273.70944  21264972.3754                   21264971.1764
 -20575660.32048 -16021916.49544  20521906.6564                   20521907.4264
    856633.992 6                  24139745.773
 11  9 27 19  6  0.0000000  0  7G09G08G02G17G28G04G20
  -1460618.87147  -1123200.48042  23067025.7274                   23067027.5164
  19867047.063 6                  23774233.695
   -532085.78947   -399616.85943  23731280.9304                   23731283.1024
  -1548973.27348  -1194540.70944  21066699.7424                   21066698.8244
  -1863221.40648  -1446447.50044  21263708.8754                   21263708.3134
 -20660574.15248 -16088083.06144  20505748.1094                   20505749.0944
    830629.242 6                  24134796.750
 11  9 27 19  6 30.0000000  0  7G09G08G02G17G28G04G20
  -1561435.28947  -1201758.72742  23047841.4924                   23047843.6294
  19961624.03946  15551928.63352  23792231.1334                   23792242.5164
   -654348.86747   -494886.45742  23708014.1174                   23708017.4454
  -1550039.26648  -1195371.36444  21066496.5944                   21066496.0664
  -1869551.09048  -1451379.72644  21262504.1804                   21262504.0784
 -20744982.02748 -16153855.36744  20489686.1334                   20489686.8054
    805087.86346    630704.42653  24129936.5864                   24129928.9924
 11  9 27 19  7  0.0000000  0  7G09G08G02G17G28G04G20
  -1661778.08247  -1279947.85243  23028746.7664                   23028749.0594
  20056284.988 6                  23810245.164
   -776467.27047   -590043.50143  23684776.3444                   23684778.8094
  -1550981.39848  -1196105.49544  21066317.3054                   21066316.9844
  -1875573.19548  -1456072.33644  21261358.6254                   21261357.6454
 -20828886.09048 -16219235.09944  20473719.5164                   20473720.1484
    780007.453 6                  24125163.289
 11  9 27 19  7 30.0000000  0  7G09G08G02G17G28G04G20
  -1761645.64547  -1357766.67653  23009742.2194                   23009745.5514
  20151026.01646  15699513.93253  23828273.9694                   23828285.9924
   -898440.16847   -685087.00442  23661564.7814                   23661568.2544
  -1551801.41448  -1196744.48244  21066161.0554                   21066160.7154
  -1881287.84048  -1460525.35544  21260270.8594                   21260270.5434
 -20912285.68748 -16284221.74244  20457848.6414                   20457850.0124
    755387.848 6                  24120478.906
 11  9 27 19  8  0.0000000  0  7G09G08G02G17G28G04G20
  -1861038.34447  -1435215.43943  22990828.4224                   22990831.3164
  20245841.379 6                  23846317.461
  -1020268.10547   -780017.29043  23638381.3444                   23638384.9614
  -1552502.94548  -1197291.15744  21066027.8914                   21066028.0394
  -1886696.07448  -1464739.58944  21259241.8134                   21259241.2464
 -20995181.65248 -16348815.95744  20442074.2274                   20442074.6954
    731227.656 6                  24115881.563
 11  9 27 19  8 30.0000000  0  7G09G08G02G17G28G04G20
  -1959951.82047  -1512290.80542  22972005.8754                   22972008.3054
  20340729.359 6                  23864374.961
  -1141947.83647   -874832.68353  23615226.8204                   23615228.8444
  -1553085.53548  -1197745.13444  21065917.2814                   21065916.3674
  -1891795.53548  -1468713.23144  21258271.8134                   21258271.0234
 -21077571.19548 -16413015.48644  20426395.9694                   20426396.6564
    707528.86346    554684.83753  24111371.2584                   24111372.7704
 11  9 27 19  9  0.0000000  0  7G09G08G02G17G28G04G20
  -2058383.38747  -1588990.69053  22953275.1954                   22953279.5234
  20435687.344 6                  23882444.352
  -1263476.99646   -969530.44942  23592099.6884                   23592102.9414
  -1553549.93748  -1198106.98644  21065828.6484                   21065828.7234
  -1896584.89848  -1472445.20543  21257360.0634                   21257359.1644
 -21159452.38748 -16476818.98744  20410814.4614                   20410815.7854
    684292.859 6                  24106949.242
 11  9 27 19  9 30.0000000  0  7G09G08G02G17G28G04G20
  -2156331.54347  -1665313.79443  22934636.2894                   22934638.4494
  20530711.34046  15995370.95953  23900526.9144                   23900539.5944
  -1384854.82847  -1064110.27643  23569001.8524                   23569005.2854
  -1553897.92248  -1198378.13944  21065762.4534                   21065761.6334
  -1901063.96548  -1475935.44343  21256507.9384                   21256507.2424
 -21240824.76648 -16540225.98144  20395329.9144                   20395330.7664
    661519.418 6                  24102616.117
 11  9 27 19 10  0.0000000  0  7G09G08G02G17G28G04G20
  -2253795.68447  -1741259.80443  22916089.7274                   22916092.3014
  20625796.58646  16069462.87542  23918622.0394                   23918631.7734
  -1506081.00447  -1158571.86843  23545933.5474                   23545937.0984
  -1554132.19948  -1198560.73844  21065717.3984                   21065717.4924
  -1905233.37548  -1479184.38544  21255714.6254                   21255713.8674
 -21321688.53148 -16603236.66744  20379941.9384                   20379942.9734
    639207.852 6                  24098370.250
 11  9 27 19 10 30.0000000  0  7G09G08G02G17G28G04G20
  -2350768.32047  -1816822.79043  22897636.0314                   22897638.9344
  20720945.016 6                  23936728.953
  -1627148.82847  -1252910.22342  23522894.3524                   23522898.4574
  -1554248.88748  -1198651.68244  21065695.4614                   21065694.9774
  -1909087.29348  -1482187.47944  21254981.3674                   21254980.8874
 -21402037.17248 -16665845.93244  20364651.7194                   20364652.8094
    617363.910 6                  24094213.836
 11  9 27 19 11  0.0000000  0  7G09G08G02G17G28G04G20
  -2447247.90647  -1892001.64143  22879276.4144                   22879279.3054
  20816152.254 6                  23954845.289
  -1748057.48847  -1347124.49943  23499886.1724                   23499890.1024
  -1554249.98848  -1198652.52244  21065694.7814                   21065694.7774
  -1912625.69148  -1484944.66444  21254307.5784                   21254306.9264
 -21481870.66048 -16728053.76044  20349460.0944                   20349460.8714
    595987.477 6                  24090146.055
 11  9 27 19 11 30.0000000  0  7G09G08G02G17G28G04G20
  -2543229.65247  -1966792.56943  22861011.1254                   22861013.5554
  20911418.05946  16292024.77153  23972974.8284                   23972983.2934
  -1868802.55946  -1441211.41043  23476909.0554                   23476912.6374
  -1554133.58648  -1198561.79844  21065717.4304                   21065717.1484
  -1915844.82448  -1487453.15744  21253695.0944                   21253694.6174
 -21561184.80148 -16789856.95544  20334367.1954                   20334367.7274
    575081.96546    451462.35053  24086167.4924                   24086168.6844
 11  9 27 19 12  0.0000000  0  7G09G08G02G17G28G04G20
  -2638709.82047  -2041192.71743  22842842.1804                   22842844.2034
  21006741.07046  16366301.98442  23991114.5314                   23991124.0434
  -1989380.63347  -1535168.07943  23453964.5314                   23453966.3714
  -1553899.53548  -1198379.44244  21065761.6954                   21065762.1884
  -1918742.53948  -1489711.16044  21253143.8364                   21253142.8404
 -21639976.60948 -16851253.08244  20319373.5164                   20319373.9734
    554649.039 6                  24082279.391
 11  9 27 19 12 30.0000000  0  8G09G08G02G17G10G28G04G20
  -2733689.00847  -2115202.31642  22824768.2504                   22824769.9694
  21102114.777 6                  24009264.156
  -2109793.16447  -1628995.69743  23431050.5944                   23431053.5004
  -1553551.50848  -1198108.22344  21065828.0394                   21065828.3014
   6132387.94916                  24592091.289
  -1921320.74648  -1491720.18344  21252652.9384                   21252652.4264
 -21718248.13348 -16912243.87944  20304478.9224                   20304480.6564
    534686.414 6                  24078480.734
 11  9 27 19 13  0.0000000  0  8G09G08G02G17G10G28G04G20
  -2828169.04347  -2188823.09443  22806789.6954                   22806791.2504
  21197532.211 6                  24027420.719
  -2230042.37947  -1722696.10543  23408167.2424                   23408170.1684
  -1553094.91448  -1197752.48544  21065915.0314                   21065914.6684
   6017980.313 6                  24570320.742
  -1923582.50448  -1493482.62743  21252222.7894                   21252222.3364
 -21796002.05948 -16972831.28144  20289682.8834                   20289683.3714
    515190.883 6                  24074770.492
 11  9 27 19 13 30.0000000  0  8G09G08G02G17G10G28G04G20
  -2922152.31247  -2262056.68643  22788904.7734                   22788908.1844
  21292985.098 6                  24045585.109
  -2350131.51647  -1816271.73643  23385314.6254                   23385316.2774
  -1552535.73048  -1197316.72144  21066021.7974                   21066021.0594
   5903416.023 6                  24548519.602
  -1925532.00848  -1495001.70844  21251852.2424                   21251851.8484
 -21873242.30548 -17033018.44644  20274984.1174                   20274985.0124
    496157.961 6                  24071148.609
 11  9 27 19 14  0.0000000  0  8G09G08G02G17G10G28G04G20
  -3015632.34447  -2334898.32852  22771116.3754                   22771118.8284
  21388474.602 6                  24063756.828
  -2470054.52047  -1909718.09943  23362493.9224                   23362495.8954
  -1551870.59448  -1196798.47644  21066148.1254                   21066147.9534
   5788701.848 6                  24526689.859
  -1927164.10948  -1496273.53444  21251541.4774                   21251540.6094
 -21949963.10548 -17092800.81944  20260384.6334                   20260385.4184
    477592.695 6                  24067616.172
 11  9 27 19 14 30.0000000  0  8G09G08G02G17G10G28G04G20
  -3108603.22747  -2407343.12743  22753424.3364                   22753427.3204
  21484001.625 6                  24081936.398
  -2589806.07047  -2003030.72943  23339705.8674                   23339708.9264
  -1551096.67248  -1196195.41144  21066295.4454                   21066295.0164
   5673843.805 6                  24504832.398
  -1928473.94148  -1497294.21344  21251292.0474                   21251291.7624
 -22026159.62148 -17152174.67144  20245885.3914                   20245885.7074
    459499.180 6                  24064173.438
 11  9 27 19 15  0.0000000  0  8G09G08G02G17G10G28G04G20
  -3201061.03147  -2479387.93043  22735830.3674                   22735833.5554
  21579565.039 6                  24100120.586
  -2709382.19147  -2096206.74843  23316950.9304                   23316953.2234
  -1550212.64848  -1195506.62844  21066463.5704                   21066463.3094
   5558846.113 6                  24482948.250
  -1929459.05148  -1498061.84444  21251104.9454                   21251104.4924
 -22101828.71948 -17211137.55744  20231485.8444                   20231486.8204
    441879.945 6                  24060819.906
 11  9 27 19 15 30.0000000  0  8G09G08G02G17G10G28G04G20
  -3293001.71146  -2551030.13043  22718334.4774                   22718336.8324
  21675163.266 6                  24118313.578
  -2828779.56246  -2189243.36543  23294230.3204                   23294232.2274
  -1549218.44547  -1194731.89944  21066652.5784                   21066652.5704
   5443713.23446   4255292.17652  24461039.7734                   24461049.8554
  -1930116.48047  -1498574.21744  21250979.6884                   21250978.6414
 -22176967.57448 -17269687.25444  20217187.3444                   20217187.7704
    424737.48846    334306.87552  24057557.9534                   24057554.4614
 11  9 27 19 16  0.0000000  0  8G09G08G02G17G10G28G04G20
  -3384418.68047  -2622263.97243  22700938.1484                   22700940.2384
  21770797.684 6                  24136512.086
  -2947992.14846  -2282135.99243  23271544.8524                   23271547.1484
  -1548110.42248  -1193868.48844  21066863.5944                   21066863.6564
   5328451.99646   4165478.85252  24439105.0004                   24439116.2034
  -1930441.16848  -1498827.19544  21250917.7344                   21250917.3914
 -22251570.62148 -17327819.44444  20202990.5704                   20202991.1884
    408076.281 6                  24054386.813
 11  9 27 19 16 30.0000000  0  8G09G08G02G17G10G28G04G20
  -3475313.54747  -2693091.06443  22683641.5634                   22683643.8324
  21866461.473 6                  24154717.109
  -3067021.81646  -2374886.28943  23248893.8524                   23248896.7704
  -1546893.24248  -1192920.04344  21067095.0784                   21067095.4264
   5213061.230 6                  24417147.047
  -1930435.91848  -1498823.14544  21250918.8284                   21250918.3134
 -22325640.76648 -17385536.41444  20188895.6174                   20188895.8674
    391893.195 6                  24051307.453
 11  9 27 19 17  0.0000000  0  8G09G08G02G17G10G28G04G20
  -3565681.69147  -2763507.66343  22666445.1564                   22666447.6604
  21962153.730 6                  24172926.563
  -3185864.73846  -2467491.05343  23226278.6804                   23226281.3594
  -1545565.33248  -1191885.31444  21067347.9064                   21067347.9144
   5097545.973 6                  24395164.906
  -1930097.57848  -1498559.51944  21250983.3444                   21250982.8094
 -22399174.05548 -17442835.02944  20174902.6174                   20174903.1524
    376191.387 6                  24048319.727
 11  9 27 19 17 30.0000000  0  8G09G08G02G17G10G28G04G20
  -3655521.17246  -2833512.52043  22649349.3834                   22649348.6454
  22057871.207 6                  24191141.492
  -3304519.05947  -2559948.63743  23203699.5864                   23203702.1994
  -1544128.05948  -1190765.36044  21067621.5394                   21067621.0354
   4981908.504 6                  24373160.305
  -1929425.55148  -1498035.94444  21251110.8674                   21251110.8984
 -22472170.13748 -17499715.04744  20161012.0004                   20161012.0234
    360970.531 6                  24045423.406
 11  9 27 19 18  0.0000000  0  8G09G08G02G17G10G28G04G20
  -3744829.19147  -2903103.22743  22632354.2664                   22632355.2894
  22153611.809 6                  24209360.680
  -3422982.67247  -2652257.78143  23181156.9384                   23181159.6054
  -1542581.54348  -1189560.35444  21067915.4924                   21067915.9384
   4866151.754 6                  24351131.695
  -1928418.24248  -1497250.98944  21251302.7424                   21251301.7544
 -22544627.10548 -17556174.98244  20147223.7734                   20147224.8674
    346232.012 6                  24042618.180
 11  9 27 19 18 30.0000000  0  8G09G08G02G17G10G28G04G20
  -3833604.24247  -2972278.48543  22615461.0944                   22615461.7274
  22249372.188 6                  24227583.586
  -3541254.05147  -2744417.11343  23158649.9694                   23158651.8444
  -1540927.14147  -1188271.16944  21068230.4144                   21068230.3324
   4750278.078 6                  24329081.078
  -1927075.44548  -1496204.72343  21251558.3364                   21251557.5084
 -22616544.24248 -17612214.26544  20133538.5634                   20133539.5204
    331975.813 6                  24039905.836
 11  9 27 19 19  0.0000000  0  8G09G08G02G17G10G28G04G20
  -3921843.48847  -3041036.36643  22598669.8524                   22598670.9844
  22345149.691 5                  24245808.930
  -3659330.76247  -2836424.75043  23136180.6804                   23136181.4534
  -1539164.89148  -1186898.00644  21068565.9224                   21068565.2464
   4634290.934 6                  24307009.609
  -1925395.45748  -1494895.59044  21251878.1414                   21251877.6684
 -22687919.86348 -17667831.59044  20119956.0864                   20119956.8794
    318202.727 6                  24037284.438
 11  9 27 19 19 30.0000000  0  8G09G08G02G17G10G28G04G20
  -4009547.07447  -3109376.72554  22581979.8674                   22581977.5474
  22440939.332 5                  24264037.977
  -3777213.27747  -2928280.97943  23113748.3914                   23113749.3134
  -1537298.07048  -1185443.38444  21068920.9454                   21068921.6644
   4518190.563 5                  24284916.102
  -1923379.95748  -1493325.14943  21252261.6484                   21252260.5084
 -22758755.16848 -17723027.90644  20106476.5784                   20106476.6024
    304911.426 6                  24034755.211
 11  9 27 19 20  0.0000000  0  8G09G08G02G17G10G28G04G20
  -4096709.48446  -3177295.32353  22565393.2974                   22565395.2974
  22536741.559 6                  24282268.820
  -3894896.85247  -3019982.24543  23091353.8204                   23091355.1094
  -1535324.16448  -1183905.31444  21069296.9614                   21069296.7154
   4401982.848 6                  24262802.367
  -1921024.08648  -1491489.46744  21252710.0164                   21252708.8834
 -22829045.69948 -17777799.68944  20093100.3674                   20093101.7384
    292105.324 6                  24032318.555
 11  9 27 19 20 30.0000000  0  8G09G08G02G17G10G28G04G20
  -4183331.45746  -3244793.03443  22548910.3364                   22548911.7734
  22632550.320 5                  24300501.195
  -4012382.42247  -3111529.36243  23068996.8754                   23068998.1764
  -1533246.76248  -1182286.52844  21069692.1884                   21069691.3674
   4285667.535 5                  24240667.359
  -1918330.54348  -1489390.61644  21253222.6564                   21253222.2974
 -22898793.67248 -17832148.72244  20079828.1884                   20079828.7034
    279781.941 6                  24029973.008
 11  9 27 19 21  0.0000000  0  7G09G02G17G10G28G04G20
  -4269404.94146  -3311863.20943  22532530.9384                   22532534.1174
  -4129662.12147  -3202915.81943  23046678.9774                   23046680.5594
  -1531060.90248  -1180583.31044  21070107.8134                   21070107.7194
   4169253.484 5                  24218514.109
  -1915292.14148  -1487023.02143  21253800.7664                   21253800.0434
 -22967991.82848 -17886069.31344  20066659.9694                   20066660.9734
    267947.590 6                  24027721.703
 11  9 27 19 21 30.0000000  0  7G09G02G17G10G28G04G20
  -4354924.80146  -3378501.95843  22516256.2114                   22516259.0164
  -4246731.03546  -3294138.09443  23024401.2424                   23024403.0554
  -1528763.74648  -1178793.32944  21070545.1174                   21070545.3324
   4052746.730 5                  24196343.453
  -1911904.80148  -1484383.59643  21254445.4454                   21254445.4064
 -23036636.06648 -17939558.28244  20053597.4224                   20053598.4414
    256606.039 6                  24025563.570
 11  9 27 19 22  0.0000000  0  7G09G02G17G10G28G04G20
  -4439876.84047  -3444698.35343  22500091.1724                   22500093.4804
  -4363575.08247  -3385185.21143  23002166.5474                   23002168.2774
  -1526344.17647  -1176907.92444  21071005.8914                   21071005.4774
   3936161.961 5                  24174157.117
  -1908155.81247  -1481462.35844  21255158.7034                   21255158.5084
 -23104713.23448 -17992605.39244  20040642.9614                   20040643.8594
    245769.695 6                  24023501.508
 11  9 27 19 22 30.0000000  0  7G09G02G17G10G28G04G20
  -4524255.42646  -3510447.89343  22484033.9384                   22484035.0004
  -4480189.48447  -3476053.37143  22979974.9694                   22979977.3244
  -1523799.54347  -1174925.09444  21071489.7034                   21071489.7074
   3819505.492 6                  24151958.539
  -1904040.80547  -1478255.83244  21255941.9614                   21255941.3524
 -23172219.07848 -18045207.31044  20027796.5554                   20027797.2934
    235442.168 6                  24021536.188
 11  9 27 19 23  0.0000000  0  7G09G02G17G10G28G04G20
  -4608061.56647  -3575751.32643  22468085.9844                   22468088.8674
  -4596575.19946  -3566743.32143  22957827.5704                   22957829.4534
  -1521133.12547  -1172847.39944  21071997.3674                   21071997.1764
   3702777.145 5                  24129745.930
  -1899561.71547  -1474765.70543  21256794.5394                   21256794.1454
 -23239155.43048 -18097365.42744  20015059.1954                   20015059.1374
    225621.133 6                  24019667.539
 11  9 27 19 23 30.0000000  0  7G09G02G17G10G28G04G20
  -4691298.12547  -3640610.85543  22452246.5944                   22452249.3524
  -4712735.36346  -3657257.55443  22935722.6334                   22935724.7624
  -1518351.16048  -1170679.66044  21072526.9064                   21072526.5044
   3585974.734 6                  24107519.250
  -1894722.86347  -1470995.19243  21257715.4224                   21257714.3834
 -23305526.35548 -18149083.04644  20002429.3134                   20002430.0904
    216301.76646    171887.51652  24017894.1254                   24017892.9224
 11  9 27 19 24  0.0000000  0  7G09G02G17G10G28G04G20
  -4773967.18447  -3705028.29943  22436515.4224                   22436517.6484
  -4828672.36347  -3747597.83043  22913660.9694                   22913662.5004
  -1515458.03147  -1168425.28844  21073077.3364                   21073077.1454
   3469097.188 6                  24085277.023
  -1889527.29747  -1466946.74044  21258704.1254                   21258703.2114
 -23371335.14848 -18200362.53944  19989905.9224                   19989906.2934
    207480.055 6                  24016214.992
 11  9 27 19 24 30.0000000  0  7G09G02G17G10G28G04G20
  -4856066.30147  -3769001.72543  22420892.1564                   22420895.2154
  -4944383.87147  -3837762.47043  22891641.4064                   22891642.9734
  -1512454.13747  -1166084.64544  21073648.8834                   21073649.0864
   3352147.551 6                  24063022.102
  -1883974.07847  -1462619.58643  21259760.7114                   21259760.3444
 -23436580.40248 -18251202.94644  19977490.3284                   19977490.7664
    199157.012 6                  24014631.438
 11  9 27 19 25  0.0000000  0  7G09G02G17G10G28G04G20
  -4937596.58647  -3832531.63843  22405377.6884                   22405379.8674
  -5059871.22347  -3927752.36643  22869664.5704                   22869666.0554
  -1509342.97348  -1163660.31244  21074241.1644                   21074241.5124
   3235125.805 5                  24040753.086
  -1878065.15647  -1458015.29943  21260884.8914                   21260884.4734
 -23501264.26248 -18301605.94744  19965181.2664                   19965181.6294
    191329.734 6                  24013141.367
 11  9 27 19 25 30.0000000  0  7G09G02G17G10G28G04G20
  -3443135.66047  -2668016.55743  22689764.1484                   22689766.6094
  -3599710.91847  -2789964.93343  23147523.5634                   23147525.1024
     69292.30947     66445.11644  21374645.2814                   21374645.0084
   4693456.301 5                  24318264.070
   -296382.23848   -225535.07343  21561869.2814                   21561868.9344
 -21989965.91448 -17123970.84044  20252771.6484                   20252772.0474
   1759416.457 6                  24311538.602
 11  9 27 19 26  0.0000000  0  7G09G02G17G10G28G04G20
  -3523531.72347  -2730662.73843  22674465.6024                   22674467.6684
  -3714753.75847  -2879608.58043  23125631.7584                   23125632.9384
     72605.98047     69027.19644  21375276.1024                   21375276.1844
   4576289.258 6                  24295967.820
   -289769.00448   -220381.98943  21563128.0864                   21563127.9844
 -22053533.88348 -17173504.27044  20240675.2274                   20240675.4224
   1752572.188 6                  24310237.047
 11  9 27 19 26 30.0000000  0  7G09G02G17G10G28G04G20
  -3603354.84047  -2792862.57143  22659275.3984                   22659277.1414
  -3829568.84846  -2969074.65643  23103782.5234                   23103783.9264
     76023.27747     71689.97444  21375926.0234                   21375926.1994
   4459056.828 6                  24273658.891
   -282799.01648   -214950.88144  21564454.3674                   21564454.6414
 -22116539.81648 -17222599.76644  20228685.9064                   20228685.6914
   1746222.406 6                  24309027.711
 11  9 27 19 27  0.0000000  0  7G09G02G17G10G28G04G20
  -3682605.91047  -2854616.60243  22644194.4454                   22644194.9224
  -3944157.35547  -3058364.33043  23081977.3134                   23081978.5124
     79541.02348     74431.08844  21376595.7034                   21376595.3874
   4341759.340 6                  24251337.773
   -275475.00448   -209243.92743  21565847.7894                   21565847.9144
 -22178985.56648 -17271258.75744  20216802.3594                   20216802.9184
   1740364.887 6                  24307912.758
 11  9 27 19 27 30.0000000  0  7G09G02G17G10G28G04G20
  -3761288.55547  -2915927.85943  22629221.5234                   22629222.6024
  -4058522.80947  -3147480.05143  23060214.0004                   23060215.5314
     83152.54347     77245.25744  21377282.6414                   21377282.0474
   4224393.988 6                  24229002.984
   -267801.35248   -203264.51143  21567308.4694                   21567307.9614
 -22240875.69148 -17319484.79744  20205025.3984                   20205025.6564
   1734994.387 6                  24306890.914
 11  9 27 19 28  0.0000000  0  7G09G02G17G10G28G04G20
  -3839400.43447  -2976794.14243  22614357.1024                   22614358.7774
  -4172663.00847  -3236420.25443  23038493.9614                   23038494.9064
     86857.70747     80132.34644  21377988.2034                   21377988.0234
   4106964.063 6                  24206656.508
   -259776.91048   -197011.70043  21568835.6334                   21568834.6454
 -22302209.29748 -17367277.18744  20193353.8364                   20193354.4414
   1730111.188 6                  24305962.133
 11  9 27 19 28 30.0000000  0  7G09G02G17G10G28G04G20
  -3916940.70747  -3037215.05942  22599601.9534                   22599603.4104
  -4286577.03947  -3325184.20143  23016816.5554                   23016816.5864
     90655.26647     83091.50544  21378710.6094                   21378710.8794
   3989471.910 6                  24184298.258
   -251401.58648   -190485.55244  21570429.2974                   21570429.2814
 -22362986.44948 -17414635.97245  20181788.1724                   20181788.4654
   1725714.574 6                  24305125.281
 11  9 27 19 29  0.0000000  0  7G09G02G17G10G28G04G20
  -3993908.05947  -3097189.41743  22584955.6334                   22584957.1644
  -4400264.09447  -3413771.39943  22995182.5634                   22995183.2154
     94544.02748     86121.70844  21379450.7344                   21379450.5824
   3871919.66046   3030513.32053  24161928.6804                   24161938.6254
   -242675.48448   -183685.91343  21572089.5554                   21572088.9884
 -22423207.18748 -17461561.19244  20170328.3284                   20170328.9774
   1721803.898 6                  24304380.969
 11  9 27 19 29 30.0000000  0  7G09G02G17G10G28G04G20
  -4070298.69147  -3156714.61043  22570419.0314                   22570421.1954
  -4513720.23047  -3502178.74443  22973592.5864                   22973592.4964
     98525.03948     89223.77444  21380208.0864                   21380208.4454
   3754312.129 6                  24139548.500
   -233595.93748   -176611.11643  21573817.8594                   21573818.0124
 -22482868.80948 -17508050.74944  20158975.3914                   20158975.6884
   1718381.582 6                  24303730.070
 11  9 27 19 30  0.0000000  0  7G09G02G17G10G28G04G20
  -4146114.27347  -3215791.56443  22555991.3754                   22555992.6024
  -4626946.73047  -3590406.97643  22952046.0704                   22952047.2424
    102594.78147     92394.98444  21380982.5004                   21380982.6254
   3636649.34046   2847186.49653  24117157.9534                   24117158.7974
   -224165.55148   -169262.79744  21575612.4064                   21575612.1134
 -22541973.98048 -17554106.67844  20147727.9694                   20147728.7504
   1715444.223 6                  24303170.836
 11  9 27 19 30 30.0000000  0  7G09G02G17G10G28G04G20
  -4221350.27747  -3274417.09443  22541675.0314                   22541676.4104
  -4739939.80547  -3678453.38143  22930544.2034                   22930544.7424
    106755.23448     95636.92144  21381774.4224                   21381774.2114
   3518936.47746   2755462.56642  24094757.4844                   24094762.4264
   -214380.75448   -161638.33443  21577474.3834                   21577474.1454
 -22600519.40248 -17599726.45044  20136587.2504                   20136586.9494
   1712994.305 6                  24302704.969
 11  9 27 19 31  0.0000000  0  7G09G02G17G10G28G04G20
  -4296006.16447  -3332590.40643  22527467.7584                   22527470.0984
  -4852698.52347  -3766317.22143  22909086.4844                   22909086.5084
    111004.93047     98948.33244  21382583.5164                   21382582.9694
   3401175.60946   2663701.34753  24072347.9614                   24072353.9224
   -204242.08648   -153738.16343  21579403.6954                   21579402.9344
 -22658505.44948 -17644910.37144  20125552.6334                   20125552.6374
   1711030.871 6                  24302331.148
 11  9 27 19 31 30.0000000  0  7G09G02G17G10G28G04G20
  -4370080.29747  -3390310.42343  22513371.9844                   22513374.1564
  -4965221.37547  -3853997.22443  22887674.0634                   22887675.7304
    115342.89547    102328.52844  21383408.7664                   21383408.5554
   3283369.598 6                  24049929.586
   -193748.91448   -145561.69743  21581400.2734                   21581400.0784
 -22715931.67247 -17689658.04044  20114624.9304                   20114625.0314
   1709553.809 6                  24302049.766
 11  9 27 19 32  0.0000000  0  7G09G02G17G10G28G04G20
  -4443572.30947  -3447576.94343  22499386.6724                   22499388.2854
  -5077507.78947  -3941492.85643  22866306.4144                   22866307.5204
    119767.53947    105776.29244  21384250.3984                   21384250.5164
   3165520.21146   2480074.20752  24027502.9224                   24027505.6644
   -182901.69147   -137109.35044  21583464.6884                   21583463.9924
 -22772799.01648 -17733970.23144  20103803.1174                   20103803.8874
   1708561.938 6                  24301861.914
 11  9 27 19 32 30.0000000  0  7G09G02G17G10G28G04G20
  -4516478.69547  -3504387.07143  22485513.2504                   22485514.9574
  -5189554.16447  -4028801.65543  22844984.8364                   22844985.9024
    124280.24248    109292.72344  21385109.3134                   21385108.4574
   3047632.586 6                  24005069.703
   -171698.18048   -128379.36943  21585596.4924                   21585596.3324
 -22829104.64848 -17777844.73944  20093088.7504                   20093089.1684
   1708057.074 6                  24301766.289
 11  9 27 19 33  0.0000000  0  7G09G02G17G10G28G04G20
  -4588799.40647  -3560740.73543  22471751.0084                   22471752.6724
  -5301360.64547  -4115923.42843  22823708.8524                   22823708.6994
    128878.84047    112875.97244  21385984.1334                   21385983.9694
   2929708.008 6                  23982629.734
   -160139.27048   -119372.47643  21587796.3204                   21587796.3594
 -22884850.00848 -17821282.61644  20082480.5004                   20082481.6564
   1708037.191 6                  24301761.109
 11  9 27 19 33 30.0000000  0  7G09G02G17G10G28G04G20
  -4660531.30147  -3616635.80043  22458100.7504                   22458102.7854
  -5412923.82047  -4202855.59443  22802479.2894                   22802479.6174
    133564.73848    116527.29444  21386876.2034                   21386875.5984
   2811751.08246   2204410.54453  23960182.6954                   23960190.9574
   -148222.57048   -110086.80443  21590063.7664                   21590063.3094
 -22940032.79348 -17864282.17544  20071979.5944                   20071979.9024
   1708504.313 6                  24301849.891
 11  9 27 19 34  0.0000000  0  7G09G02G17G10G28G04G20
  -4731672.73047  -3672070.50043  22444562.8524                   22444565.2154
  -5524241.94147  -4289596.87843  22781295.4454                   22781296.3794
    138337.34847    120246.21344  21387784.3754                   21387784.4064
   2693765.17246   2112474.12743  23937730.8054                   23937737.7854
   -135947.33248   -100521.73443  21592399.7894                   21592399.7854
 -22994652.38748 -17906842.85445  20061585.9064                   20061586.3444
   1709458.281 6                  24302031.570
 11  9 27 19 34 30.0000000  0  7G09G02G17G10G28G04G20
  -4802220.98047  -3727043.13143  22431137.9304                   22431140.7974
  -5635312.42247  -4376145.13443  22760159.8054                   22760159.8444
    143196.94947    124032.92044  21388709.2034                   21388708.8754
   2575754.184 6                  23915273.633
   -123311.89847    -90675.99444  21594804.2584                   21594804.0274
 -23048707.49248 -17948963.68844  20051299.7114                   20051300.3674
   1710899.70746   1336496.48452  24302306.0864                   24302314.8484
 11  9 27 19 35  0.0000000  0  7G09G02G17G10G28G04G20
  -4872177.89547  -3781554.99443  22417826.1024                   22417826.9024
  -5746137.06247  -4462501.87143  22739070.2814                   22739070.7854
    148139.67647    127884.37944  21389649.6884                   21389648.7584
   2457717.46946   1928541.48852  23892811.9304                   23892822.3324
   -110319.33248    -80551.97343  21597276.7034                   21597276.3834
 -23102201.28548 -17990647.17344  20041119.7664                   20041120.0554
   1712825.270 6                  24302672.344
 11  9 27 19 35 30.0000000  0  7G09G02G17G10G28G04G20
  -4941541.94147  -3835604.93543  22404626.3984                   22404628.0044
  -5856713.68747  -4548665.38043  22718028.1954                   22718028.5394
    153165.88747    131800.90044  21390606.1804                   21390605.6094
   2339658.078 6                  23870345.578
    -96968.69548    -70148.93643  21599817.3364                   21599816.6994
 -23155132.95748 -18031892.61744  20031047.3364                   20031047.4654
   1715234.73846   1339874.16052  24303131.5944                   24303128.8874
 11  9 27 19 36  0.0000000  0  7G09G02G17G10G28G04G20
  -5010310.83647  -3889190.96843  22391539.4844                   22391542.4654
  -5967040.24247  -4634634.02643  22697033.5164                   22697033.6374
    158274.97348    135781.93744  21391578.6254                   21391577.6094
   2221580.270 6                  23847875.813
    -83258.85248    -59465.97943  21602426.1644                   21602426.1214
 -23207501.66448 -18072699.33444  20021081.7424                   20021082.3484
   1718128.754 6                  24303681.711
 11  9 27 19 36 30.0000000  0  7G09G02G17G10G28G04G20
  -5078483.68047  -3942312.59943  22378566.7814                   22378568.8524
  -6077115.27347  -4720406.68743  22676087.0864                   22676087.7814
    163466.44148    139827.24944  21392566.3834                   21392566.3244
   2103486.742 6                  23825403.391
    -69189.26248    -48502.67543  21605103.5394                   21605103.0864
 -23259307.30548 -18113067.36344  20011223.8594                   20011224.0554
   1721506.727 6                  24304324.789
 11  9 27 19 37  0.0000000  0  7G09G02G17G10G28G04G20
  -5146062.34047  -3994971.26843  22365707.1884                   22365710.0434
  -6186940.93047  -4805984.97643  22655187.6024                   22655187.5354
    168736.41448    143933.66544  21393569.0084                   21393568.8874
   1985377.305 6                  23802927.469
    -54763.25448    -37261.61743  21607848.9454                   21607849.2974
 -23310552.87948 -18152998.93544  20001472.0314                   20001472.3244
   1725364.867 5                  24305058.344
 11  9 27 19 37 30.0000000  0  7G09G02G17G10G28G04G20
  -5213041.69147  -4047162.90743  22352961.5784                   22352963.2624
  -6296511.65247  -4891364.59043  22634336.9694                   22634337.3444
    174088.19547    148103.90144  21394587.8204                   21394587.3754
   1867258.56346   1468440.29752  23780449.3524                   23780454.4964
    -39976.43048    -25739.50043  21610662.6414                   21610662.1914
 -23361234.48848 -18192491.08144  19991827.5394                   19991827.9774
   1729706.922 6                  24305885.211
 11  9 27 19 38  0.0000000  0  7G09G02G17G10G28G04G20
  -5279424.94147  -4098890.13043  22340329.0234                   22340331.2304
  -6405830.18047  -4976547.73843  22613534.3754                   22613534.5234
    179517.16447    152334.28744  21395620.8134                   21395621.1414
   1749129.406 6                  23757970.172
    -24832.60948    -13939.20643  21613544.6094                   21613543.2974
 -23411356.10548 -18231546.86844  19982289.5944                   19982289.9964
   1734528.195 6                  24306802.859
 11  9 27 19 38 30.0000000  0  7G09G02G17G10G28G04G20
  -5345214.18747  -4150154.38943  22327809.6804                   22327811.2424
  -6514898.36747  -5061535.80043  22592778.9534                   22592779.9774
    185019.32848    156621.64944  21396667.8594                   21396667.3954
   1630989.473 6                  23735488.430
     -9334.84848     -1863.06443  21616493.7584                   21616493.5594
 -23460921.01248 -18270168.82144  19972857.9384                   19972857.7464
   1739825.027 6                  24307811.008
 11  9 27 19 39  0.0000000  0  7G09G02G17G10G28G04G20
  -5410407.43047  -4200954.29743  22315403.7114                   22315405.7814
  -6623714.23847  -5146327.32243  22572072.0944                   22572072.4804
    190594.79348    160966.14944  21397728.6954                   21397728.4844
   1512842.06346   1192270.34153  23713005.5784                   23713013.3984
      6518.20748     10489.90943  21619510.3524                   21619510.6604
 -23509928.44548 -18308356.40344  19963532.0944                   19963532.1564
   1745597.14146   1363532.62653  24308909.3054                   24308913.2584
 11  9 27 19 39 30.0000000  0  7G09G02G17G10G28G04G20
  -5475003.62547  -4251288.94943  22303112.2034                   22303113.1134
  -6732276.27347  -5230920.99543  22551413.3054                   22551413.7814
    196242.91447    165367.27144  21398803.6254                   21398803.3524
   1394690.40647   1100204.41842  23690522.8914                   23690529.3444
     22726.62548     23119.81343  21622594.8754                   21622594.4494
 -23558378.55948 -18346109.74344  19954312.6484                   19954312.0784
   1751844.113 6                  24310097.609
 11  9 27 19 40  0.0000000  0  7G09G02G17G10G28G04G20
  -5539001.25047  -4301157.22843  22290933.4224                   22290934.5824
  -6840582.75847  -5315315.53543  22530803.0864                   22530803.2114
    201963.43448    169824.78744  21399892.5864                   21399892.6094
   1276537.64847   1008137.69853  23668038.2274                   23668045.5044
     39290.91048     36026.98743  21625747.0234                   21625747.0234
 -23606270.84448 -18383428.40944  19945198.6414                   19945198.9804
   1758565.699 5                  24311376.031
 11  9 27 19 40 30.0000000  0  7G09G02G17G10G28G04G20
  -5602401.81247  -4350560.16543  22278868.6334                   22278870.9454
  -6948634.77347  -5399511.71543  22510241.0704                   22510241.7194
    207753.50448    174336.53044  21400993.9694                   21400993.5784
   1158384.46147    916070.51642  23645554.5164                   23645560.7704
     56208.86748     49209.81943  21628966.2734                   21628966.0664
 -23653607.78148 -18420314.28244  19936190.8594                   19936190.5594
   1765759.176 6                  24312744.906
 11  9 27 19 41  0.0000000  0  7G09G02G17G10G28G04G20
  -5665206.54347  -4399498.96843  22266917.4534                   22266919.2774
  -7056433.19947  -5483510.39443  22489728.2194                   22489728.0314
    213610.16048    178900.14844  21402108.2504                   21402108.2034
   1040231.46946    824003.59243  23623069.9924                   23623075.9264
     73478.57048     62666.60143  21632252.5234                   21632252.1214
 -23700391.81648 -18456769.33844  19927287.8134                   19927288.3634
   1773421.516 6                  24314204.578
 11  9 27 19 41 30.0000000  0  7G09G02G17G10G28G04G20
  -5727415.09047  -4447973.11943  22255079.1564                   22255080.9264
  -7163977.16047  -5567310.76143  22469263.3984                   22469263.4694
    219532.21948    183514.68244  21403235.3674                   21403235.2584
    922081.074 6                  23600586.797
     91099.84847     76397.37143  21635605.8834                   21635606.1454
 -23746623.55548 -18492794.04144  19918490.4774                   19918490.3364
   1781551.703 6                  24315750.688
 11  9 27 19 42  0.0000000  0  7G09G02G17G10G28G04G20
  -5789025.74647  -4495981.39143  22243355.0634                   22243357.0514
  -7271264.80147  -5650911.36643  22448846.7814                   22448846.9654
    225520.10947    188180.60544  21404374.9384                   21404374.9264
    803937.24646    639878.66852  23578104.8524                   23578109.0124
    109073.64848     90402.89843  21639026.4614                   21639026.6684
 -23792302.29748 -18528387.91144  19909797.8364                   19909798.4494
   1790149.566 6                  24317387.375
 11  9 27 19 42 30.0000000  0  7G09G02G17G10G28G04G20
  -5850035.02747  -4543521.06943  22231744.9064                   22231747.4264
  -7378292.32847  -5734309.39143  22428479.9454                   22428480.8984
    231575.54748    192899.09644  21405527.2814                   21405527.1724
    685805.070 6                  23555624.930
    127402.34048    104684.95943  21642514.2344                   21642515.5744
 -23837425.94548 -18563549.13244  19901211.3204                   19901211.5084
   1799216.855 6                  24319112.680
 11  9 27 19 43  0.0000000  0  7G09G02G17G10G28G04G20
  -5910442.25847  -4590591.59543  22220250.0554                   22220251.8554
  -7485058.50847  -5817503.67443  22408162.9454                   22408163.3554
    237697.73447    197669.60344  21406692.3524                   21406692.0354
    567687.41446    455788.43753  23533147.5944                   23533148.8444
    146086.03547    119243.64343  21646069.4064                   21646069.8244
 -23881994.59048 -18598277.89644  19892730.1804                   19892730.4774
   1808752.945 6                  24320927.391
 11  9 27 19 43 30.0000000  0  7G09G02G17G10G28G04G20
  -5970249.76647  -4637194.90843  22208869.0944                   22208870.4184
  -7591565.17248  -5900495.72843  22387895.1884                   22387895.5044
    243883.25848    202489.49044  21407869.5474                   21407868.7274
    449584.47346    363760.21453  23510672.2664                   23510677.3404
    165121.66447    134076.50643  21649692.0944                   21649692.2734
 -23926011.81648 -18632577.01044  19884353.8834                   19884354.0664
   1818753.60546   1420535.70353  24322830.6174                   24322836.9964
 11  9 27 19 44  0.0000000  0  7G09G02G17G10G28G04G20
  -6029455.70747  -4683329.28143  22197602.1884                   22197604.1484
  -7697810.16847  -5983283.98843  22367677.5234                   22367677.3014
    250132.40647    207358.93544  21409058.2274                   21409058.5394
    331499.78546    271746.65642  23488201.7974                   23488207.7384
    184510.61347    149184.77243  21653381.7114                   21653381.7034
 -23969476.75848 -18666445.76244  19876082.7504                   19876082.9694
   1829219.535 6                  24324821.883
 11  9 27 19 44 30.0000000  0  7G09G02G17G10G28G04G20
  -6088059.02747  -4728994.23543  22186451.3524                   22186451.2704
  -7803791.67247  -6065866.82843  22347509.6564                   22347510.3284
    256445.28148    212278.00644  21410259.6174                   21410259.1804
    213436.99647    179749.81453  23465735.6094                   23465739.4344
    204253.00047    164568.36743  21657138.5634                   21657139.1214
 -24012389.32848 -18699884.10144  19867916.6954                   19867916.9574
   1840149.906 6                  24326901.695
 11  9 27 19 45  0.0000000  0  7G09G02G17G10G28G04G20
  -6146059.29747  -4774189.19143  22175413.2424                   22175414.6844
  -7909508.88747  -6148243.84243  22327391.9304                   22327392.2704
    262820.45348    217245.69644  21411472.9774                   21411472.6604
     95398.95747     87772.44653  23443273.3754                   23443277.8594
    224348.88347    180227.54643  21660962.6644                   21660962.6644
 -24054750.32848 -18732892.66944  19859855.4534                   19859855.5594
   1851543.895 6                  24329070.305
 11  9 27 19 45 30.0000000  0  7G09G02G17G10G28G04G20
  -6203454.78947  -4818912.95743  22164491.6564                   22164492.9414
  -8014959.85947  -6230413.26443  22307325.5084                   22307325.7194
    269258.40648    222262.25344  21412698.0634                   21412697.9414
    -22610.96146     -4183.17943  23420816.4924                   23420823.1414
    244798.91448    196162.56943  21664854.3524                   21664854.9884
 -24096559.25848 -18765471.04744  19851899.6884                   19851899.7854
   1863401.148 6                  24331326.891
 11  9 27 19 46  0.0000000  0  7G09G02G17G10G28G04G20
  -6260249.71547  -4863168.68943  22153683.6954                   22153685.1254
  -8120148.23048  -6312378.10743  22287309.2344                   22287308.2504
    275754.04748    227323.78344  21413933.9774                   21413933.8794
   -140594.707 6                  23398364.719
    265598.57847    212369.96943  21668812.3284                   21668811.3554
 -24137821.16448 -18797623.13344  19844047.6564                   19844047.9264
   1875715.953 6                  24333670.625
 11  9 27 19 46 30.0000000  0  7G09G02G17G10G28G04G20
  -6316442.60947  -4906955.42643  22142991.0944                   22142992.1094
  -8225071.90247  -6394136.67843  22267342.6884                   22267343.4344
    282307.60948    232430.39744  21415180.8204                   21415180.9614
   -258548.23447   -188029.76953  23375918.7274                   23375925.5004
    286748.57047    228850.38743  21672837.1644                   21672837.0904
 -24178535.57048 -18829348.62444  19836299.8834                   19836299.8444
   1888488.70346   1474870.81652  24336099.8914                   24336110.8954
 11  9 27 19 47  0.0000000  0  7G09G02G17G10G28G04G20
  -6372030.11747  -4950270.31943  22132412.7734                   22132414.8834
  -8329726.60548  -6475685.74843  22247427.2424                   22247427.6644
    288921.18447    237583.81744  21416439.4304                   21416439.5554
   -376465.59447   -279913.26343  23353479.4774                   23353484.0274
    308251.97747    245606.30143  21676929.2584                   21676928.3324
 -24218700.13348 -18860645.67044  19828656.8204                   19828657.0434
   1901721.016 6                  24338618.688
 11  9 27 19 47 30.0000000  0  7G09G02G17G10G28G04G20
  -6427011.90647  -4993113.24443  22121949.9224                   22121951.9264
  -8434111.64148  -6557024.58543  22227563.6174                   22227562.8674
    295593.99248    242783.43544  21417709.6484                   21417709.2704
   -494344.37547   -371766.41143  23331047.9224                   23331052.3444
    330108.05147    262636.89143  21681088.5634                   21681088.2304
 -24258315.54348 -18891514.78644  19821118.1024                   19821118.8444
   1915411.555 6                  24341223.664
 11  9 27 19 48  0.0000000  0  7G09G02G17G10G28G04G20
  -6481390.59847  -5035486.08843  22111601.9844                   22111603.0944
  -8538229.01647  -6638154.86743  22207750.3914                   22207750.0204
    302322.51647    248026.37044  21418989.6644                   21418990.0554
   -612184.41046   -463589.80353  23308623.5084                   23308626.7194
    352313.82447    279940.06143  21685313.8204                   21685314.2114
 -24297385.48848 -18921958.92645  19813683.7424                   19813683.7074
   1929556.367 6                  24343915.578
 11  9 27 19 48 30.0000000  0  7G09G02G17G10G28G04G20
  -6535163.45747  -5077387.16443  22101369.0634                   22101370.9144
  -8642075.30948  -6719073.95843  22187989.3754                   22187989.1724
    309108.27748    253313.96344  21420280.9454                   21420280.7424
   -729980.863 6                  23286207.391
    374871.37147    297517.39343  21689606.3284                   21689606.7504
 -24335908.29748 -18951976.66344  19806352.9454                   19806352.9964
   1944156.617 6                  24346694.602
 11  9 27 19 49  0.0000000  0  7G09G02G17G10G28G04G20
  -6588328.75847  -5118814.63643  22091252.4144                   22091254.3014
  -8745648.56248  -6799780.26743  22168279.7114                   22168279.9804
    315952.10248    258646.81044  21421583.3594                   21421583.3364
   -847729.34847   -647130.73852  23263800.2974                   23263805.3094
    397781.94547    315369.65643  21693966.1254                   21693966.5634
 -24373883.36348 -18981567.61444  19799126.4774                   19799127.1954
   1959212.500 6                  24349559.031
 11  9 27 19 49 30.0000000  0  7G09G02G17G10G28G04G20
  -6640888.25447  -5159770.10843  22081251.0394                   22081252.3834
  -8848949.41048  -6880274.36343  22148621.9774                   22148621.9104
    322851.32848    264022.82044  21422896.5704                   21422896.7504
   -965429.03546   -738844.60542  23241402.8054                   23241406.8524
    421043.28947    333495.39344  21698392.8134                   21698392.9494
 -24411313.24648 -19010733.67744  19792003.8674                   19792004.1994
   1974721.113 6                  24352510.109
 11  9 27 19 50  0.0000000  0  7G09G02G17G10G28G04G20
  -6692839.37147  -5200251.47143  22071364.4844                   22071366.1954
  -8951974.65648  -6960553.69643  22129017.2274                   22129017.2974
    329807.61748    269443.28644  21424220.2274                   21424219.8554
  -1083074.47346   -830516.19143  23219015.2894                   23219019.5784
    444657.41847    351895.90143  21702886.1804                   21702885.8364
 -24448196.39848 -19039473.83244  19784985.0704                   19784985.4774
   1990682.969 6                  24355547.383
 11  9 27 19 50 30.0000000  0  7G09G02G17G10G28G04G20
  -6744180.47347  -5240257.45843  22061595.0864                   22061596.3204
  -9054721.82448  -7040616.32943  22109464.4844                   22109465.2304
    336821.89148    274908.95244  21425554.8134                   21425554.4224
  -1200661.37946   -922141.91353  23196639.1724                   23196643.9734
    468625.80947    370572.57243  21707447.2424                   21707448.1174
 -24484532.17648 -19067787.39544  19778070.5944                   19778070.2114
   2007098.680 6                  24358671.500
 11  9 27 19 51  0.0000000  0  7G09G02G17G10G28G04G20
  -6794910.49647  -5279787.27343  22051941.1564                   22051943.3364
  -9157189.47348  -7120461.07143  22089965.5164                   22089965.6524
    343894.29748    280419.84244  21426900.7194                   21426900.4924
  -1318186.34846  -1013719.68843  23174274.8284                   23174280.5984
    492948.55947    389525.27043  21712076.3204                   21712075.8484
 -24520320.47348 -19095674.38544  19771260.0704                   19771260.2424
   2023967.676 6                  24361881.289
 11  9 27 19 51 30.0000000  0  7G09G02G17G10G28G04G20
  -6845028.37947  -5318840.23643  22042404.5164                   22042405.6454
  -9259375.51248  -7200086.55143  22070520.3444                   22070520.2074
    351024.84048    285976.16644  21428257.7194                   21428257.3284
  -1435645.37146  -1105245.93643  23151923.1484                   23151927.7074
    517626.67647    408754.99143  21716772.2664                   21716772.7384
 -24555561.16448 -19123134.62044  19764554.2034                   19764554.0864
   2041289.613 6                  24365178.648
 11  9 27 19 52  0.0000000  0  7G09G02G17G10G28G04G20
  -6894537.20347  -5357418.45143  22032983.1804                   22032985.0234
  -9361282.43748  -7279494.48043  22051127.9454                   22051127.7384
    358209.68848    291574.72344  21429625.0704                   21429624.8364
  -1553039.16846  -1196721.56443  23129583.7344                   23129586.9844
    542656.18047    428258.41043  21721534.9534                   21721535.3834
 -24590258.78948 -19150171.72044  19757951.4614                   19757951.4574
   2059059.883 6                  24368559.711
 11  9 27 19 52 30.0000000  0  7G09G02G17G10G28G04G20
  -6943434.13747  -5395519.99243  22023678.2584                   22023679.9964
  -9462906.59048  -7358681.96143  22031789.3134                   22031789.3444
    365451.17648    297217.42944  21431003.1414                   21431003.2624
  -1670362.05946  -1288141.61342  23107256.5314                   23107260.2544
    568039.51648    448037.53943  21726365.2584                   21726365.3164
 -24624411.05948 -19176783.86245  19751452.4924                   19751452.0634
   2077279.871 6                  24372026.750
 11  9 27 19 53  0.0000000  0  7G09G02G17G10G28G04G20
  -6991720.34847  -5433145.57643  22014489.5314                   22014491.3134
  -9564248.27748  -7437649.42144  22012505.0004                   22012504.6684
    372747.55548    302902.89444  21432392.0394                   21432391.2384
  -1787612.38746  -1379505.31453  23084945.3284                   23084949.6214
    593775.32847    468091.33143  21731262.5864                   21731262.9064
 -24658020.05148 -19202972.67144  19745057.1804                   19745057.3014
   2095947.164 6                  24375578.836
 11  9 27 19 53 30.0000000  0  7G09G02G17G10G28G04G20
  -7039389.99247  -5470290.72043  22005418.2344                   22005419.5044
  -9665301.14148  -7516391.82643  21993275.3834                   21993274.7384
    380103.67248    308634.93044  21433791.4534                   21433791.8404
  -1904781.43047  -1470805.74143  23062648.8754                   23062651.8524
    619868.92247    488423.99843  21736228.4224                   21736228.9414
 -24691081.31648 -19228734.62844  19738765.5704                   19738765.4104
   2115065.875 6                  24379217.297
 11  9 27 19 54  0.0000000  0  7G09G02G17G10G28G04G20
  -7086442.11347  -5506954.70943  21996464.4144                   21996464.8554
  -9766063.07448  -7594907.58943  21974100.9614                   21974100.7424
    387520.08648    314413.91744  21435202.6954                   21435202.7704
  -2021865.09447  -1562039.47643  23040367.7274                   23040372.7344
    646320.98047    509035.88243  21741262.0394                   21741262.3674
 -24723594.37948 -19254069.51044  19732578.4064                   19732578.3014
   2134636.020 6                  24382941.758
 11  9 27 19 54 30.0000000  0  7G09G02G17G10G28G04G20
  -7132876.98447  -5543137.59843  21987628.2424                   21987628.9774
  -9866533.54348  -7673196.16444  21954981.6954                   21954980.9024
    394995.83248    320239.12944  21436625.5944                   21436625.3594
  -2138861.07446  -1653204.91843  23018104.3284                   23018108.3714
    673130.46547    529926.31843  21746363.6644                   21746363.9344
 -24755560.82048 -19278978.39645  19726495.8754                   19726495.1484
   2154655.281 6                  24386751.258
 11  9 27 19 55  0.0000000  0  7G09G02G17G10G28G04G20
  -7178692.39147  -5578837.96143  21978910.1954                   21978912.2114
  -9966709.64148  -7751255.41843  21935918.8134                   21935918.6414
    402532.38748    326111.75644  21438059.9144                   21438059.4494
  -2255764.16046  -1744297.93853  22995858.1884                   22995862.3834
    700299.50047    551096.89043  21751533.8754                   21751534.9384
 -24786979.43048 -19303460.40744  19720516.9064                   19720516.7034
   2175125.000 6                  24390646.063
 11  9 27 19 55 30.0000000  0  7G09G02G17G10G28G04G20
  -7223887.55547  -5614054.89043  21970309.1724                   21970311.4064
 -10066589.30148  -7829083.63043  21916911.6484                   21916911.6254
    410130.29748    332032.16244  21439505.2664                   21439505.0004
  -2372570.45347  -1835315.72643  22973630.7344                   22973633.5634
    727828.60547    572548.17843  21756772.6644                   21756772.9494
 -24817849.89148 -19327515.29544  19714642.3204                   19714642.4694
   2196044.711 6                  24394627.289
 11  9 27 19 56  0.0000000  0  7G09G02G17G10G28G04G20
  -7268460.36347  -5648787.02543  21961827.5634                   21961828.9024
 -10166169.46948  -7906678.45543  21897962.5704                   21897961.4574
    417791.33648    338001.79444  21440963.2194                   21440962.9534
  -2489274.95747  -1926254.01043  22951422.7734                   22951425.4694
    755719.77347    594281.42343  21762080.5784                   21762080.6134
 -24848171.17648 -19351142.26544  19708872.2974                   19708872.6724
   2217414.867 6                  24398692.883
 11  9 27 19 56 30.0000000  0  7G09G02G17G10G28G04G20
  -5736990.79347  -4455434.07443  22253256.2344                   22253258.2854
  -8690027.75448  -6756438.07543  22178862.9224                   22178862.7424
   2000933.55148   1571619.12944  21742224.6724                   21742224.9344
  -1030452.20746   -789508.87543  23229026.8284                   23229029.8364
   2359389.75447   1843894.31943  22067248.4304                   22067249.4104
 -23302524.89148 -18146742.52644  20002999.0084                   20002998.9104
   3814652.168 6                  24702637.984
 11  9 27 19 57  0.0000000  0  7G09G02G17G10G28G04G20
  -5780318.43047  -4489195.95143  22245011.5474                   22245013.0704
  -8789006.25048  -6833564.08943  22160027.7894                   22160027.6254
   2008720.16448   1577686.60943  21743707.0554                   21743706.3444
  -1146943.48846   -880281.02053  23206859.0314                   23206861.9654
   2388003.44547   1866190.60743  22072693.6484                   22072693.9104
 -23331750.35248 -18169515.61345  19997437.3444                   19997437.5824
   3836920.047 6                  24706875.008
 11  9 27 19 57 30.0000000  0  7G09G02G17G10G28G04G20
  -5823019.77047  -4522469.62043  22236885.5704                   22236887.2034
  -8887678.40648  -6910451.33143  22141251.0234                   22141250.0744
   2016572.67648   1583805.39644  21745201.2584                   21745201.3834
  -1263319.62947   -970963.61342  23184713.2114                   23184717.3094
   2416982.21947   1888771.46343  22078208.0554                   22078208.6914
 -23360425.47748 -18191859.86644  19991980.8054                   19991980.9144
   3859638.441 6                  24711199.109
 11  9 27 19 58  0.0000000  0  6G09G02G17G10G28G04
  -5865096.03547  -4555256.34943  22228879.1334                   22228880.8364
  -8986044.54748  -6987100.23244  22122532.6484                   22122532.2274
   2024489.56348   1589974.40543  21746707.5314                   21746708.0514
  -1379578.89546  -1061555.09143  23162590.1414                   23162593.6454
   2446324.60547   1911635.53343  22083791.5634                   22083791.9454
 -23388552.29748 -18213776.82344  19986628.6954                   19986628.5354
 11  9 27 19 58 30.0000000  0  6G09G02G17G10G28G04
  -5906543.76247  -4587553.25543  22220991.4924                   22220992.8054
  -9084100.43048  -7063507.26343  22103873.1724                   22103872.5434
   2032473.89148   1596195.89344  21748226.9844                   21748227.2234
  -1495714.58646  -1152050.07442  23140489.7274                   23140492.4574
   2476033.20747   1934784.99943  22089445.3984                   22089446.0124
 -23416128.38748 -18235264.68444  19981380.9614                   19981380.5984
 11  9 27 19 59  0.0000000  0  6G09G02G17G10G28G04
  -5947353.82847  -4619353.27843  22213225.3204                   22213227.6954
  -9181836.12148  -7139664.93843  22085274.5864                   22085274.0084
   2040534.66048   1602476.99344  21749760.9064                   21749760.9614
  -1611714.18046  -1242439.32443  23118415.4844                   23118419.5594
   2506116.82448   1958226.70343  22095170.0944                   22095170.6644
 -23443145.62548 -18256317.09044  19976240.1094                   19976239.9734
 11  9 27 19 59 30.0000000  0  6G09G02G17G10G28G04
  -5987519.93047  -4650651.46443  22205582.3674                   22205583.1884
  -9279243.91048  -7215566.98243  22066738.6254                   22066738.1294
   2048677.68447   1608822.18744  21751310.9454                   21751310.7114
  -1727568.48846  -1332715.16243  23096369.2734                   23096374.0824
   2536582.16447   1981965.90443  22100967.0084                   22100967.6334
 -23469598.53148 -18276929.68944  19971205.6254                   19971205.8554
 11  9 27 20  0  0.0000000  0  6G09G02G17G10G28G04
  -6027043.72347  -4681449.22443  22198061.0314                   22198063.4614
  -9376324.46548  -7291214.06743  22048264.6334                   22048263.7894
   2056901.52048   1615230.32144  21752875.5944                   21752875.5514
  -1843275.54346  -1422876.38053  23074350.8524                   23074353.8674
   2567426.95747   2006000.71043  22106837.2894                   22106837.9804
 -23495489.43048 -18297104.42844  19966279.0944                   19966279.4534
 11  9 27 20  0 30.0000000  0  6G09G02G17G10G28G04
  -6065929.75847  -4711750.07443  22190661.7034                   22190663.5704
  -9473081.33248  -7366608.98244  22029852.3594                   22029850.7304
   2065201.25448   1621697.64744  21754455.2424                   21754454.6954
  -1958836.94546  -1512924.04243  23052360.1174                   23052362.6884
   2598646.29747   2030327.37043  22112777.5784                   22112778.2584
 -23520824.03548 -18316845.67344  19961458.1954                   19961457.8444
 11  9 27 20  1  0.0000000  0  6G09G02G17G10G28G04
  -6104181.74247  -4741556.82043  22183382.4694                   22183383.7344
  -9569517.35948  -7441753.82743  22011501.2344                   22011499.8554
   2073573.28948   1628221.27144  21756048.2194                   21756047.7194
  -2074252.80546  -1602858.33143  23030397.1484                   23030400.2774
   2630236.43847   2054943.02243  22118789.6334                   22118789.7034
 -23545606.62148 -18336156.76144  19956741.7974                   19956741.6414
 11  9 27 20  1 30.0000000  0  7G09G12G02G17G10G28G04
  -6141803.75847  -4770872.57443  22176223.1484                   22176224.7894
   9270226.13717                  24735648.477
  -9665634.97748  -7516650.56044  21993210.5084                   21993210.2384
   2082013.41047   1634797.99244  21757654.3914                   21757653.8054
  -2189523.76246  -1692679.62443  23008461.5474                   23008464.3204
   2662193.21547   2079844.38043  22124870.5164                   22124871.5554
 -23569842.21548 -18355041.65544  19952130.2034                   19952129.8484
 11  9 27 20  2  0.0000000  0  7G09G12G02G17G10G28G04
  -6178805.23447  -4799704.85343  22169181.6334                   22169183.2624
   9147125.59847   7142190.71953  24712223.1484                   24712225.1524
  -9761442.44148  -7591305.65543  21974978.6804                   21974978.8364
   2090512.41047   1641420.63144  21759272.1954                   21759271.3674
  -2304655.68047  -1782392.59643  22986552.2194                   22986556.0634
   2694507.42647   2105024.16543  22131019.8134                   22131020.6134
 -23593540.82848 -18373508.07744  19947620.3204                   19947620.5044
 11  9 27 20  2 30.0000000  0  7G09G12G02G17G10G28G04
  -6215193.55547  -4828059.37743  22162257.5634                   22162259.7734
   9023976.27346   7046230.35242  24688788.4454                   24688791.7504
  -9856946.05548  -7665724.00044  21956804.4844                   21956804.4344
   2099062.89147   1648083.25443  21760898.7114                   21760898.6954
  -2419652.73047  -1872000.68343  22964669.1954                   22964672.2074
   2727171.01647   2130476.27043  22137235.6024                   22137236.1724
 -23616710.87947 -18391562.65644  19943211.3284                   19943211.2114
 11  9 27 20  3  0.0000000  0  7G09G12G02G17G10G28G04
  -6250965.05947  -4855933.38343  22155450.3284                   22155451.6454
   8900783.78546   6950236.30543  24665344.8834                   24665348.8954
  -9952140.93448  -7739901.70243  21938689.9144                   21938689.7854
   2107668.65647   1654789.06643  21762536.2664                   21762536.1454
  -2534507.62547  -1961497.72543  22942813.2584                   22942815.0354
   2760187.80547   2156203.55843  22143518.2664                   22143519.5164
 -23639349.50048 -18409203.13244  19938903.2424                   19938903.8204
 11  9 27 20  3 30.0000000  0  7G09G12G02G17G10G28G04
  -6286113.69947  -4883321.82643  22148761.8834                   22148764.2664
   8777555.813 6                  24641895.836
 -10047019.89548  -7813833.33843  21920635.4144                   21920634.0594
   2116335.48447   1661542.38944  21764185.8524                   21764185.3594
  -2649210.56647  -2050876.44043  22920985.5314                   22920989.1174
   2793563.50847   2182210.54143  22149869.9924                   22149870.5554
 -23661451.40248 -18426425.36944  19934697.3834                   19934697.3984
 11  9 27 20  4  0.0000000  0  7G09G12G02G17G10G28G04
  -6320636.84047  -4910222.92643  22142192.3834                   22142194.9614
   8654296.950 6                  24618439.742
 -10141579.19548  -7887515.82743  21902641.1884                   21902640.4414
   2125066.74247   1668345.92443  21765847.1724                   21765847.0084
  -2763755.58247  -2140132.14853  22899188.4454                   22899191.6844
   2827300.83247   2208499.29743  22156289.7584                   22156291.0784
 -23683014.83648 -18443228.05344  19930593.8284                   19930593.4774
 11  9 27 20  4 30.0000000  0  7G09G12G02G17G10G28G04
  -6354536.51247  -4936638.37143  22135741.0784                   22135742.4224
   8531007.188 6                  24594979.000
 -10235819.75048  -7960949.92544  21884707.6414                   21884706.5514
   2133860.19147   1675198.02044  21767520.5004                   21767520.9654
  -2878141.21547  -2229263.57243  22877421.7344                   22877424.8324
   2861397.23047   2235067.91443  22162778.3754                   22162779.1644
 -23704042.52747 -18459613.22944  19926592.6024                   19926592.6914
 11  9 27 20  5  0.0000000  0  7G09G12G02G17G10G28G04
  -6387810.06247  -4962565.73043  22129409.4304                   22129411.6804
   8407691.305 6                  24571512.195
 -10329737.35548  -8034132.39343  21866835.4454                   21866834.1564
   2142719.00447   1682100.93644  21769206.0704                   21769206.4694
  -2992361.05146  -2318266.05143  22855685.4454                   22855687.6254
   2895855.94547   2261918.66943  22169335.8444                   22169335.9414
 -23724532.52747 -18475579.44844  19922693.6094                   19922693.1094
 11  9 27 20  5 30.0000000  0  7G09G12G02G17G10G28G04
  -6420461.76247  -4988008.61643  22123196.0784                   22123197.7624
   8284346.980 5                  24548040.930
 -10423334.98048  -8107065.53443  21849024.5784                   21849023.8714
   2151639.20347   1689051.69544  21770903.6174                   21770904.0984
  -3106415.81247  -2407139.29943  22833981.2344                   22833984.8874
   2930672.48047   2289048.40543  22175961.2504                   22175961.4694
 -23744489.81647 -18491130.57844  19918895.9454                   19918895.3594
 11  9 27 20  6  0.0000000  0  7G09G12G02G17G10G28G04
  -6452491.51647  -5012966.84943  22117100.9384                   22117102.5124
   8160976.660 6                  24524563.836
 -10516611.09448  -8179748.13944  21831274.6644                   21831273.2854
   2160621.22747   1696050.72244  21772612.5554                   21772613.0124
  -3220301.57447  -2495881.70643  22812309.7814                   22812312.9264
   2965847.06347   2316457.06543  22182654.3524                   22182655.6604
 -23763915.17247 -18506267.19144  19915199.1884                   19915199.6024
 11  9 27 20  6 30.0000000  0  7G09G12G02G17G10G28G04
  -6483899.02047  -5037440.27043  22111124.6644                   22111126.1604
   8037582.164 6                  24501082.969
 -10609564.49248  -8252179.30144  21813586.0234                   21813584.8714
   2169665.30147   1703098.02944  21774334.2664                   21774334.1884
  -3334014.34847  -2584488.81943  22790670.5864                   22790673.5904
   3001379.47747   2344144.70043  22189416.0634                   22189417.3134
 -23782809.25048 -18520989.84544  19911603.7344                   19911603.8554
 11  9 27 20  7  0.0000000  0  7G09G12G02G17G10G28G04
  -6514686.52347  -5061430.51443  22105265.6334                   22105267.3364
   7914163.645 6                  24477596.797
 -10702195.87148  -8324359.46644  21795958.7424                   21795957.8794
   2178769.44548   1710192.18843  21776066.7584                   21776066.7194
  -3447552.87947  -2672960.34543  22769065.2814                   22769067.2384
   3037267.56647   2372109.22043  22196245.3284                   22196246.2974
 -23801174.77048 -18535300.57444  19908108.8674                   19908109.6254
 11  9 27 20  7 30.0000000  0  7G09G12G02G17G10G28G04
  -6544853.83647  -5084937.46943  22099525.0554                   22099526.8834
   7790723.391 6                  24454106.664
 -10794503.85248  -8396287.71844  21778393.0004                   21778392.3714
   2187934.77048   1717333.97044  21777810.5554                   21777811.0394
  -3560913.12947  -2761292.82343  22747493.3204                   22747495.8364
   3073511.60247   2400351.13243  22203142.5234                   22203144.0234
 -23819012.23448 -18549199.90544  19904714.4144                   19904713.8324
 11  9 27 20  8  0.0000000  0  7G09G12G02G17G10G28G04
  -6574402.09447  -5107962.16143  22093901.6024                   22093904.3164
   7667262.617 6                  24430612.984
 -10886488.24648  -8467963.81443  21760888.8834                   21760887.6024
   2197160.41048   1724522.78244  21779566.0004                   21779566.4964
  -3674092.30147  -2849484.24743  22725955.6954                   22725958.3954
   3110110.43847   2428869.74743  22210107.0084                   22210108.8674
 -23836323.80148 -18562689.39944  19901419.9384                   19901419.8914
 11  9 27 20  8 30.0000000  0  7G09G12G02G17G10G28G04
  -6603337.58647  -5130509.23843  22088396.0314                   22088398.1174
   7543777.50047   5892827.63853  24407114.9224                   24407118.5634
 -10978153.62948  -8539391.31244  21743445.3984                   21743444.3364
   2206440.60247   1731754.06444  21781331.9694                   21781332.3364
  -3787092.67247  -2937536.26243  22704452.7274                   22704454.5164
   3147058.10247   2457660.03343  22217137.9534                   22217138.7274
 -23853116.07448 -18575774.31244  19898224.8134                   19898224.8714
 11  9 27 20  9  0.0000000  0  7G09G12G02G17G10G28G04
  -6631657.91447  -5152577.07043  22083006.7114                   22083009.0314
   7420272.89847   5796590.32643  24383612.4774                   24383614.5944
 -11069496.21548  -8610567.19944  21726063.4774                   21726062.9384
   2215778.65647   1739030.49743  21783108.9454                   21783109.5704
  -3899908.12547  -3025444.34843  22682984.3054                   22682987.0314
   3184357.03147   2486724.17943  22224236.4694                   22224236.5354
 -23869387.39848 -18588453.24344  19895128.4774                   19895128.9534
 11  9 27 20  9 30.0000000  0  7G09G12G02G17G10G28G04
  -6659367.65247  -5174169.04643  22077733.4454                   22077735.7384
   7296746.59447   5700336.21943  24360106.5704                   24360108.6564
 -11160519.23048  -8681494.17544  21708742.4774                   21708741.6334
   2225170.42647   1746348.73344  21784896.1804                   21784896.2934
  -4012539.00447  -3113208.49043  22661551.2894                   22661553.0514
   3222002.75047   2516058.29643  22231400.1564                   22231401.3324
 -23885142.82448 -18600730.16145  19892130.1334                   19892130.6414
 11  9 27 20 10  0.0000000  0  7G09G12G02G17G10G28G04
  -6686465.22747  -5195284.04243  22072577.4694                   22072579.7344
   7173202.17247   5604068.12853  24336596.0234                   24336599.1604
 -11251219.60248  -8752169.65443  21691482.6804                   21691481.1914
   2234617.91047   1753710.39844  21786693.5704                   21786694.3444
  -4124980.07447  -3200824.67643  22640154.4064                   22640157.2074
   3259996.69547   2545663.85243  22238630.0474                   22238629.9454
 -23900381.97348 -18612604.81044  19889230.1024                   19889230.0124
 11  9 27 20 10 30.0000000  0  7G09G12G02G17G10G28G04
  -6712951.48047  -5215922.62843  22067537.4454                   22067538.5984
   7049641.21546   5507787.15642  24313083.6024                   24313086.1644
 -11341597.06648  -8822593.62243  21674284.3834                   21674283.1884
   2244120.70347   1761115.13544  21788501.9614                   21788502.3834
  -4237228.34047  -3288290.73143  22618793.6564                   22618796.8484
   3298337.77747   2575539.96643  22245925.9454                   22245927.1254
 -23915106.30148 -18624078.30744  19886428.1724                   19886428.2734
 11  9 27 20 11  0.0000000  0  7G09G12G02G17G10G28G04
  -6738828.03947  -5236086.21343  22062613.1724                   22062615.2274
   6926064.961 6                  24289566.961
 -11431651.18448  -8892765.57643  21657147.7814                   21657145.9184
   2253678.30547   1768562.67944  21790321.0394                   21790321.3094
  -4349280.95347  -3375604.32443  22597471.2974                   22597474.4344
   3337025.21947   2605685.95343  22253288.2344                   22253289.5354
 -23929317.62148 -18635152.05244  19883723.8984                   19883724.1054
 11  9 27 20 11 30.0000000  0  7G09G12G02G17G10G28G04
  -6764096.17647  -5255775.63943  22057804.8914                   22057805.7584
   6802474.39846   5315183.85753  24266048.7274                   24266054.9344
 -11521382.13348  -8962685.70544  21640072.3364                   21640070.6134
   2263289.93447   1776052.25844  21792149.9304                   21792150.0824
  -4461135.80947  -3462763.85843  22576185.9844                   22576188.5664
   3376057.52047   2636100.62343  22260715.6954                   22260717.2074
 -23943018.16848 -18645827.79444  19881116.6724                   19881116.0634
 11  9 27 20 12  0.0000000  0  7G09G12G02G17G10G28G04
  -6788757.94147  -5274992.61343  22053111.7344                   22053114.0944
   6678870.17646   5218865.07852  24242526.8524                   24242532.3094
 -11610790.23848  -9032354.24943  21623058.6644                   21623057.3404
   2272954.60247   1783583.15443  21793989.3914                   21793989.4774
  -4572790.50047  -3549767.39543  22554938.2504                   22554940.8404
   3415432.80547   2666782.46143  22268208.8524                   22268208.8794
 -23956210.68748 -18656107.66644  19878606.4304                   19878606.8674
 11  9 27 20 12 30.0000000  0  7G09G12G02G17G10G28G04
  -6812813.27047  -5293736.98243  22048534.0634                   22048536.3794
   6555254.94947   5122541.57842  24219004.4924                   24219006.8204
 -11699874.00848  -9101770.11144  21606106.0474                   21606105.3674
   2282672.67247   1791155.67843  21795838.2034                   21795838.8754
  -4684240.80147  -3636611.75843  22533729.7664                   22533731.8524
   3455151.25847   2697731.90243  22275767.0864                   22275767.4774
 -23968895.39148 -18665991.83444  19876192.6644                   19876192.8134
 11  9 27 20 13  0.0000000  0  7G09G12G02G17G10G28G04
  -6836258.64847  -5312006.18143  22044072.7344                   22044074.6214
   6431634.70347   5026214.18853  24195479.2974                   24195479.5314
 -11788628.43448  -9170929.28644  21589216.6804                   21589214.5434
   2292448.57847   1798773.24643  21797698.9384                   21797699.2974
  -4795479.37147  -3723290.91643  22512562.1414                   22512565.6054
   3495216.67647   2728951.56943  22283390.8204                   22283392.0984
 -23981069.64148 -18675478.24744  19873875.8914                   19873875.6134
 11  9 27 20 13 30.0000000  0  7G09G12G02G17G10G28G04
  -6859096.19547  -5329801.62043  22039726.4774                   22039728.8094
   6308010.24647   4929883.57753  24171954.4144                   24171953.1374
 -11877054.09448  -9239832.37443  21572389.6094                   21572388.8914
   2302281.55947   1806435.30544  21799569.6174                   21799570.2274
  -4906503.97347  -3809803.49743  22491434.4304                   22491436.0634
   3535627.18447   2760440.22143  22291080.9454                   22291082.3984
 -23992736.21548 -18684569.10145  19871655.7974                   19871655.6954
 11  9 27 20 14  0.0000000  0  7G09G12G02G17G10G28G04
  -6881328.91847  -5347125.81343  22035495.2734                   22035497.4184
   6184381.02747   4833549.40252  24148428.3054                   24148428.8404
 -11965152.28947  -9308480.22644  21555625.1094                   21555623.6454
   2312169.35247   1814140.08143  21801451.6804                   21801451.8714
  -5017313.31647  -3896148.34243  22470348.0474                   22470349.4884
   3576379.61747   2792195.23843  22298836.0234                   22298837.1054
 -24003898.51248 -18693266.95744  19869531.6024                   19869531.5704
 11  9 27 20 14 30.0000000  0  7G09G12G02G17G10G28G04
  -6902953.75447  -5363976.31543  22031380.5554                   22031383.0554
   6060753.41847   4737216.16953  24124903.0634                   24124904.0554
 -12052918.32847  -9376869.27043  21538923.8524                   21538922.4614
   2322115.97347   1821890.64244  21803344.6174                   21803345.0784
  -5127900.04747  -3982319.64943  22449304.2344                   22449305.9694
   3617477.78147   2824219.75843  22306656.4844                   22306658.0084
 -24014553.98048 -18701569.92844  19867504.1644                   19867504.0084
 11  9 27 20 15  0.0000000  0  7G09G12G02G17G10G28G04
  -6923973.66847  -5380355.47543  22027380.6644                   22027382.7074
   5937126.73447   4640883.93343  24101377.3284                   24101379.6214
 -12140353.68748  -9445000.65444  21522285.5474                   21522284.0554
   2332119.40247   1829685.52044  21805248.1024                   21805247.5554
  -5238263.16047  -4068316.83143  22428302.4224                   22428305.1524
   3658918.68847   2856511.27443  22314543.1644                   22314543.9024
 -24024706.28548 -18709480.81644  19865572.1954                   19865571.5904
 11  9 27 20 15 30.0000000  0  7G09G12G02G17G10G28G04
  -6944387.41847  -5396262.35343  22023496.2424                   22023498.8874
   5813505.08647   4544555.49543  24077852.5164                   24077855.1604
 -12227455.69948  -9512872.29744  21505710.2344                   21505709.5704
   2342181.67247   1837526.24744  21807163.1024                   21807162.8444
  -5348397.06647  -4154135.27443  22407345.1564                   22407346.8714
   3700703.62547   2889070.79843  22322494.3054                   22322495.1994
 -24034354.87547 -18716999.17044  19863736.0944                   19863735.9574
 11  9 27 20 16  0.0000000  0  7G09G12G02G17G10G28G04
  -6964197.86747  -5411699.07643  22019726.3054                   22019728.6994
   5689889.055 6                  24054329.500
 -12314225.19547  -9580484.81943  21489198.6724                   21489197.5664
   2352301.37947   1845411.73443  21809088.8054                   21809088.1954
  -5458300.37547  -4239773.97043  22386431.0234                   22386432.5204
   3742830.25047   2921896.63143  22330511.0944                   22330513.0084
 -24043502.83247 -18724127.45644  19861995.2424                   19861994.7664
 11  9 27 20 16 30.0000000  0  7G09G12G02G17G10G28G04
  -6983405.39147  -5426666.00743  22016071.1024                   22016073.0204
   5566280.75446   4351913.54752  24030806.8284                   24030807.5434
 -12400661.02048  -9647837.31843  21472750.4454                   21472749.1214
   2362478.80947   1853342.21544  21811025.0944                   21811025.2704
  -5567969.16847  -4325230.16943  22365561.3444                   22365563.7034
   3785298.15647   2954988.35543  22338592.3054                   22338593.8284
 -24052151.25848 -18730866.47445  19860349.4384                   19860349.7074
 11  9 27 20 17  0.0000000  0  7G09G12G02G17G10G28G04
  -7002013.25447  -5441165.64743  22012530.8134                   22012532.7934
   5442679.77047   4255600.97653  24007286.7734                   24007291.7974
 -12486764.57048  -9714930.96044  21456365.6334                   21456363.8754
   2372712.16847   1861316.20143  21812972.9304                   21812973.1454
  -5677402.10547  -4410502.39643  22344737.2974                   22344738.7894
   3828104.94147   2988344.19643  22346738.3914                   22346739.8714
 -24060303.68048 -18737219.03944  19858798.0944                   19858798.2154
 11  9 27 20 17 30.0000000  0  7G09G12G02G17G10G28G04
  -7020019.95347  -5455196.84643  22009103.6954                   22009106.6804
   5319090.82047   4159298.44552  23983768.1884                   23983771.6214
 -12572532.60948  -9781763.11243  21440044.2424                   21440042.9064
   2383004.25048   1869336.04143  21814930.9844                   21814931.1994
  -5786593.53147  -4495586.58543  22323958.4304                   22323960.6094
   3871251.93447   3021965.16643  22354948.9534                   22354950.2464
 -24067959.47748 -18743184.57244  19857341.3054                   19857341.3484
 11  9 27 20 18  0.0000000  0  7G09G12G02G17G10G28G04
  -7037427.72747  -5468761.34943  22005791.1174                   22005793.7544
   5195514.44547   4063005.24953  23960252.4924                   23960249.4414
 -12657965.94148  -9848334.50844  21423786.7974                   21423785.7114
   2393353.73047   1877400.54244  21816900.7114                   21816900.9494
  -5895541.20347  -4580480.65643  22303226.2114                   22303228.2424
   3914737.36747   3055849.78143  22363223.9384                   22363224.3204
 -24075121.16448 -18748765.10244  19855978.3834                   19855978.5234
 11  9 27 20 18 30.0000000  0  7G09G12G02G17G10G28G04
  -7054234.17247  -5481857.32243  22002593.0784                   22002596.0904
   5071956.53947   3966726.51253  23936739.7424                   23936740.9844
 -12743060.22348  -9914641.64844  21407594.1884                   21407592.4964
   2403764.50447   1885512.86643  21818881.2894                   21818881.5044
  -6004238.21947  -4665179.46743  22282541.3834                   22282543.8554
   3958564.18447   3090000.57643  22371563.9454                   22371564.6024
 -24081786.61748 -18753958.95744  19854709.7274                   19854709.4064
 11  9 27 20 19  0.0000000  0  7G09G12G02G17G10G28G04
  -7070441.75847  -5494486.60343  21999508.9384                   21999511.5904
   4948417.80547   3870462.83643  23913231.1254                   23913232.5204
 -12827816.19948  -9980685.23144  21391465.3204                   21391463.2664
   2414235.23047   1893671.84243  21820874.1484                   21820874.4264
  -6112682.52047  -4749681.34643  22261905.5314                   22261907.2664
   4002730.10947   3124415.40443  22379968.8594                   22379970.9494
 -24087958.98448 -18758768.60444  19853535.4694                   19853535.0784
 11  9 27 20 19 30.0000000  0  7G09G12G02G17G10G28G04
  -7086052.71147  -5506650.96643  21996538.0554                   21996540.4104
   4824898.63347   3774214.13943  23889726.1644                   23889728.3364
 -12912234.28548 -10046465.49444  21375400.8284                   21375399.2464
   2424764.96147   1901876.81143  21822878.1564                   21822878.1414
  -6220872.16047  -4833984.88843  22241317.3984                   22241319.7114
   4047232.94147   3159092.83343  22388437.5554                   22388439.0984
 -24093640.97748 -18763196.09244  19852454.1334                   19852454.0824
 11  9 27 20 20  0.0000000  0  7G09G12G02G17G10G28G04
  -7101068.09847  -5518351.30943  21993680.8984                   21993683.2464
   4701401.48446   3677982.71952  23866225.9454                   23866229.3954
 -12996314.02048 -10111982.08844  21359400.6884                   21359399.4654
   2435354.11347   1910128.04543  21824892.8364                   21824893.2774
  -6328803.56247  -4918087.15043  22220778.3524                   22220780.5394
   4092072.66047   3194032.64943  22396970.0944                   22396971.8594
 -24098834.09848 -18767242.67444  19851466.2034                   19851465.6724
 11  9 27 20 20 30.0000000  0  7G09G12G02G17G10G28G04
  -7115487.28947  -5529587.09243  21990936.7664                   21990938.0864
   4577930.04347   3581771.28942  23842729.7114                   23842731.4614
 -13080052.82848 -10177233.06844  21343465.7034                   21343464.0474
   2446004.59047   1918427.12344  21826920.2274                   21826920.5594
  -6436471.64547  -5001984.27943  22200290.2114                   22200291.7114
   4137249.82847   3229235.61743  22405567.1024                   22405567.5474
 -24103538.06648 -18770908.10744  19850570.8914                   19850570.5164
 11  9 27 20 21  0.0000000  0  7G09G12G02G17G10G28G04
  -7129312.31247  -5540359.86543  21988306.1564                   21988308.0514
   4454485.69946   3485581.03952  23819238.6174                   23819238.6024
 -13163450.80148 -10242218.42844  21327595.8054                   21327594.2344
   2456715.68047   1926773.40843  21828957.7114                   21828958.3634
  -6543873.46147  -5085673.75143  22179851.8524                   22179853.3134
   4182762.71147   3264700.02643  22414228.2344                   22414229.8204
 -24107755.32048 -18774194.24444  19849768.1334                   19849767.9454
 11  9 27 20 21 30.0000000  0  7G09G12G02G17G10G28G04
  -7142544.66847  -5550670.72243  21985788.6564                   21985789.3794
   4331070.75846   3389413.85242  23795752.5314                   23795755.6134
 -13246507.55148 -10306937.88144  21311790.4454                   21311788.8914
   2467487.82848   1935167.31443  21831007.7274                   21831008.0164
  -6651005.85547  -5169153.47143  22159465.2034                   22159466.7814
   4228610.61747   3300425.62743  22422952.2344                   22422953.4614
 -24111487.50448 -18777102.41544  19849058.0784                   19849057.7814
 11  9 27 20 22  0.0000000  0  7G09G12G02G17G10G28G04
  -7155183.27747  -5560519.09643  21983383.1804                   21983385.1994
   4207688.81646   3293272.17242  23772274.5944                   23772276.5944
 -13329220.44548 -10371389.37544  21296050.9384                   21296049.2584
   2478323.26647   1943610.46543  21833069.9454                   21833070.1524
  -6757863.44147  -5252419.05943  22139130.9844                   22139132.6334
   4274794.79347   3336413.13443  22431741.6094                   22431742.9224
 -24114734.41048 -18779632.49144  19848440.1094                   19848440.3524
 11  9 27 20 22 30.0000000  0  7G09G12G02G17G10G28G04
  -7167229.95747  -5569906.04943  21981090.7034                   21981092.3834
   4084341.762 6                  23748802.125
 -13411589.03548 -10435572.62244  21280376.5634                   21280374.9064
   2489221.69548   1952102.71543  21835143.9774                   21835144.2584
  -6864443.62947  -5335468.33943  22118849.3204                   22118851.0434
   4321313.99647   3372661.80443  22440593.8444                   22440596.9224
 -24117497.99248 -18781785.90144  19847914.5784                   19847914.0904
 11  9 27 20 23  0.0000000  0  7G09G12G02G17G10G28G04
  -7178686.21947  -5578833.01643  21978910.5164                   21978912.1024
   3961031.39146   3101071.82453  23725337.0554                   23725339.4414
 -13493613.60248 -10499487.76744  21264767.6414                   21264766.5944
   2500183.02748   1960643.99343  21837229.9774                   21837229.4884
  -6970743.05947  -5418298.96443  22098621.3054                   22098622.3094
   4368166.96547   3409170.62243  22449509.6024                   22449510.7934
 -24119780.34848 -18783564.36644  19847479.8834                   19847480.0204
 11  9 27 20 23 30.0000000  0  7G09G12G02G17G10G28G04
  -7189553.89147  -5587301.39043  21976842.5394                   21976844.7074
   3837759.68047   3005016.20143  23701879.8364                   23701881.5864
 -13575293.45748 -10563134.34444  21249224.5634                   21249222.8244
   2511207.37948   1969234.41143  21839327.5474                   21839327.0744
  -7076758.75447  -5500908.47143  22078447.0474                   22078448.2664
   4415352.73447   3445938.40643  22458489.1334                   22458490.9494
 -24121583.33648 -18784969.29444  19847136.5944                   19847136.8954
 11  9 27 20 24  0.0000000  0  7G09G12G02G17G10G28G04
  -7199830.99647  -5595309.49243  21974887.3444                   21974888.5274
   3714531.92647   2908994.52643  23678429.4224                   23678432.9024
 -13656625.12148 -10626509.58744  21233747.7344                   21233746.5004
   2522298.54347   1977876.83143  21841437.7114                   21841438.1214
  -7182484.19947  -5583291.73643  22058327.8444                   22058330.1844
   4462873.67647   3482967.65243  22467531.6414                   22467533.4494
 -24122905.34848 -18785999.43444  19846885.2504                   19846885.2074
 11  9 27 20 24 30.0000000  0  7G09G12G02G17G10G28G04
  -7209518.63347  -5602858.31243  21973043.6884                   21973044.4224
   3591350.76647   2813009.31143  23654988.9774                   23654990.8954
 -13737607.59448 -10689612.76044  21218337.1094                   21218335.6914
   2533456.50847   1986571.36343  21843560.9774                   21843561.9344
  -7287915.52047  -5665445.94143  22038264.7814                   22038266.5824
   4510728.91047   3520257.44943  22476638.8284                   22476640.7154
 -24123747.89148 -18786655.95844  19846725.0164                   19846725.0004
 11  9 27 20 25  0.0000000  0  7G09G12G02G17G10G28G04
  -7218620.00048  -5609950.31143  21971311.8524                   21971313.2774
   3468216.17247   2717060.38943  23631556.7814                   23631559.3204
 -13818242.05548 -10752444.68744  21202992.6334                   21202991.3874
   2544680.01647   1995316.96343  21845697.1804                   21845697.4774
  -7393051.25447  -5747369.86543  22018257.9844                   22018259.5744
   4558915.87547   3557805.64543  22485808.1414                   22485809.8244
 -24124114.61748 -18786941.70244  19846655.3524                   19846655.0124
 11  9 27 20 25 30.0000000  0  7G09G12G02G17G10G28G04
  -7227135.70347  -5616586.00343  21969691.2114                   21969693.4184
   3345131.46547   2621150.49242  23608134.3284                   23608136.9884
 -13898526.88748 -10815004.27444  21187714.9304                   21187712.9064
   2555970.33647   2004114.53943  21847845.7664                   21847846.0124
  -7497887.05547  -5829059.87143  21998308.3914                   21998309.8984
   4607434.63747   3595612.15643  22495041.2734                   22495043.0164
 -24124006.10948 -18786857.16344  19846675.9454                   19846675.4774
 11  9 27 20 26  0.0000000  0  7G09G12G02G17G10G28G04
  -5659647.24647  -4395166.34843  22267974.3054                   22267976.6844
   4797522.40247   3752883.85053  23884515.2344                   23884518.9884
 -12403040.01648  -9649689.73544  21472296.6484                   21472295.0784
   4142746.57847   3240563.49243  22149798.9384                   22149799.5474
  -6026996.56647  -4682911.35843  22278209.1484                   22278210.8284
   6231702.00847   4861275.08443  22804128.7974                   22804130.5204
 -22548004.62948 -17558804.04744  20146578.8754                   20146578.4844
 11  9 27 20 26 30.0000000  0  7G09G12G02G17G10G28G04
  -5666997.91447  -4400894.16643  22266575.9534                   22266578.0394
                   4674541.715 6  23861112.398
 -12482627.14548  -9711705.55644  21457151.8284                   21457149.8554
   4154169.03547   3249464.15444  22151972.5634                   22151972.4064
  -6131224.92247  -4764128.09843  22258375.6884                   22258376.6914
   6280879.38747   4899594.98343  22813487.1954                   22813488.8324
 -22546953.22348 -17557984.76745  20146778.9304                   20146779.3324
 11  9 27 20 27  0.0000000  0  7G09G12G02G17G10G28G04
  -5673770.83647  -4406171.73943  22265286.7274                   22265288.4654
   4551613.91847   3561266.90953  23837720.2894                   23837723.0274
 -12561866.76648  -9773450.68544  21442072.3984                   21442070.6764
   4165655.87547   3258414.93343  22154158.6334                   22154158.5044
  -6235146.95347  -4845106.22643  22238599.7274                   22238601.0044
   6330382.184 7                  22822907.359
 -22545435.47348 -17556802.10944  20147067.7274                   20147067.1804
 11  9 27 20 27 30.0000000  0  7G09G12G02G17G10G28G04
  -5679963.22347  -4410997.01443  22264108.5944                   22264110.3914
   4428745.79747   3465525.66343  23814339.5634                   23814340.6174
 -12640754.19148  -9834921.30344  21427060.9384                   21427058.6374
   4177211.42247   3267419.20944  22156357.8914                   22156357.4024
  -6338754.89547  -4925839.51643  22218883.8594                   22218884.8364
   6380213.79747   4976998.06253  22832390.1644                   22832394.6094
 -22543448.57048 -17555253.85844  20147446.1484                   20147446.4144
 11  9 27 20 28  0.0000000  0  7G09G12G02G17G10G28G04
  -5685575.71147  -4415370.42243  22263040.4064                   22263042.8054
   4305940.08247   3369833.21943  23790969.9304                   23790971.4344
 -12719288.22348  -9896116.64444  21412116.1024                   21412114.1684
   4188837.11747   3276478.21043  22158570.0944                   22158569.6254
  -6442044.48847  -5006324.80843  22199228.1254                   22199230.0664
   6430374.21547   5016084.07343  22841935.6724                   22841936.6174
 -22540993.62948 -17553340.94344  20147912.9144                   20147912.6484
 11  9 27 20 28 30.0000000  0  7G09G12G02G17G10G28G04
  -5690610.09847  -4419293.29143  22262082.1484                   22262085.4344
   4183198.68847   3274190.67443  23767612.7584                   23767614.3914
 -12797468.72348  -9957036.43244  21397239.1564                   21397237.2974
   4200532.75847   3285591.73243  22160795.6564                   22160795.9774
  -6545012.92247  -5086559.89943  22179633.5004                   22179635.1254
   6480861.71547   5055424.81543  22851543.0704                   22851544.1954
 -22538073.02048 -17551065.11644  20148468.7344                   20148468.5124
 11  9 27 20 29  0.0000000  0  7G09G12G02G17G10G28G04
  -5695069.54747  -4422768.15343  22261233.7504                   22261235.9924
   4060522.67247   3178598.97743  23744268.6414                   23744271.3674
 -12875296.58248 -10017681.45144  21382428.8204                   21382427.2814
   4212297.78547   3294759.19143  22163034.2344                   22163034.0864
  -6647658.42247  -5166543.12243  22160100.9304                   22160101.6334
   6531674.44547   5095018.97843  22861212.8444                   22861214.4534
 -22534689.74648 -17548428.85244  20149112.4774                   20149112.4104
 11  9 27 20 29 30.0000000  0  7G09G12G02G17G10G28G04
  -5698950.53947  -4425792.34243  22260495.2664                   22260497.3594
   3937919.25847   3083064.11243  23720937.5394                   23720940.2304
 -12952766.31248 -10078047.37744  21367686.9924                   21367684.6094
   4224137.23447   3303984.75643  22165287.5784                   22165287.7934
  -6749972.30147  -5246268.15043  22140631.3284                   22140632.3594
   6582816.34847   5134869.60043  22870944.8284                   22870945.8244
 -22530840.40648 -17545429.34945  20149844.7664                   20149845.0124
 11  9 27 20 30  0.0000000  0  7G09G12G02G17G10G28G04
  -5702260.27347  -4428371.40943  22259865.5084                   22259867.2664
   3815385.61747   2987583.43443  23697620.4384                   23697622.5634
 -13029883.15648 -10138138.41344  21353012.0234                   21353010.1134
   4236046.10247   3313264.36043  22167553.7274                   22167553.5234
  -6851956.51247  -5325736.36943  22121224.2344                   22121226.1134
   6634280.69547   5174971.58643  22880737.9304                   22880739.6374
 -22526532.36748 -17542072.44444  20150664.7274                   20150664.8094
 11  9 27 20 30 30.0000000  0  7G09G12G02G17G10G28G04
  -5704996.52047  -4430503.53443  22259345.0784                   22259346.4264
   3692927.80147   2892161.94543  23674317.0784                   23674319.0314
 -13106642.46548 -10197950.79744  21338405.1954                   21338403.0864
   4248028.62547   3322601.32043  22169833.8754                   22169833.6524
  -6953603.96947  -5404942.04643  22101881.3204                   22101882.7234
   6686070.45747   5215327.06754  22890593.3134                   22890589.6484
 -22521763.69948 -17538356.57844  20151572.5234                   20151572.2074
 11  9 27 20 31  0.0000000  0  7G09G12G02G17G10G28G04
  -5707161.98847  -4432190.90543  22258932.5314                   22258934.6294
   3570546.83647   2796800.23143  23651028.9304                   23651030.7974
 -13183045.03548 -10257485.20244  21323866.0784                   21323863.8444
   4260084.10547   3331995.21243  22172127.6954                   22172127.6294
  -7054912.64547  -5483883.72243  22082602.5084                   22082603.8094
   6738183.70347   5255934.65753  22900510.3594                   22900511.9384
 -22516537.21948 -17534284.01144  20152566.8674                   20152566.6294
 11  9 27 20 31 30.0000000  0  7G09G12G02G17G10G28G04
  -5708760.95747  -4433436.85143  22258628.7114                   22258629.9654
   3448242.08247   2701497.83243  23627754.8754                   23627755.9144
 -13259092.91448 -10316743.24144  21309394.4694                   21309392.8364
   4272210.57047   3341444.43843  22174435.8524                   22174435.5944
  -7155881.58647  -5562560.68743  22063388.5784                   22063389.5784
   6790616.79747   5296791.50643  22910488.0554                   22910490.5474
 -22510857.50448 -17529858.26844  20153647.7114                   20153647.6414
 11  9 27 20 32  0.0000000  0  7G09G12G02G17G10G28G04
  -5709790.86747  -4434239.45943  22258431.8834                   22258433.8954
   3326020.85247   2606260.82143  23604496.8444                   23604498.2664
 -13334781.41448 -10375721.21644  21294991.4304                   21294990.0084
   4284412.80548   3350952.56743  22176757.6254                   22176757.6334
  -7256503.23047  -5640967.09143  22044240.8364                   22044242.0984
   6843373.32047   5337900.33642  22920527.7274                   22920530.1054
 -22504721.82848 -17525077.24344  20154815.4064                   20154816.0204
 11  9 27 20 32 30.0000000  0  7G09G12G02G17G10G28G04
  -5710253.90247  -4434600.24743  22258344.7034                   22258346.0904
   3203885.02347   2511090.11843  23581255.0944                   23581256.7894
 -13410110.59048 -10434419.22744  21280656.9384                   21280655.6134
   4296691.05547   3360520.07643  22179094.3054                   22179094.8714
  -7356775.06247  -5719100.85643  22025160.0634                   22025160.2234
   6896451.13347   5379259.44043  22930628.2734                   22930629.7814
 -22498132.82448 -17519942.98945  20156069.1804                   20156068.5394
 11  9 27 20 33  0.0000000  0  7G09G12G02G17G10G28G04
  -5710151.03547  -4434520.20543  22258364.1254                   22258365.0784
   3081837.54747   2415988.35643  23558030.0474                   23558032.2034
 -13485079.11748 -10492836.20644  21266391.0554                   21266388.8524
   4309046.25847   3370147.39143  22181445.1884                   22181445.5044
  -7456692.42247  -5796958.46043  22006146.0784                   22006147.7384
   6949850.41047   5420869.18643  22940789.5004                   22940793.2034
 -22491090.88748 -17514455.72945  20157409.4614                   20157409.2774
 11  9 27 20 33 30.0000000  0  7G09G12G02G17G10G28G04
  -5709485.38747  -4434001.46343  22258490.8524                   22258492.6024
   2959879.68447   2320956.38653  23534821.6884                   23534822.4924
 -13559688.26248 -10550973.14244  21252193.0084                   21252191.4184
   4321477.23047   3379833.80343  22183810.6414                   22183810.6804
  -7556253.56647  -5874538.54743  21987200.1024                   21987200.5434
   7003568.69147   5462727.54053  22951011.9384                   22951019.1724
 -22483599.59048 -17508618.36544  20158834.5944                   20158834.5704
 11  9 27 20 34  0.0000000  0  7G09G12G02G17G10G28G04
  -5708259.18447  -4433046.00743  22258724.1024                   22258725.5004
   2838013.18047   2225995.62942  23511631.8754                   23511631.0124
 -13633937.91048 -10608830.00344  21238063.6724                   21238062.2154
   4333984.54347   3389579.77844  22186190.9064                   22186190.2504
  -7655455.23847  -5951838.38943  21968322.7504                   21968324.0004
   7057604.480 7                  22961295.070
 -22475661.37948 -17502432.73144  20160345.3134                   20160345.4414
 11  9 27 20 34 30.0000000  0  7G09G12G02G17G10G28G04
  -5706475.23847  -4431656.00143  22259062.9614                   22259065.7854
   2716239.62147   2131107.14043  23488459.2194                   23488458.5164
 -13707828.45748 -10666406.95444  21224002.7814                   21224001.4924
   4346567.38347   3399384.54843  22188585.4224                   22188585.6994
  -7754295.35547  -6028856.61943  21949514.4774                   21949514.9224
   7111955.906 7                  22971637.469
 -22467279.04348 -17495901.05144  20161940.4534                   20161940.9184
 11  9 27 20 35  0.0000000  0  7G09G12G02G17G10G28G04
  -5704135.70747  -4429832.98643  22259508.4694                   22259511.1094
   2594561.35547   2036293.04743  23465304.4224                   23465304.9924
 -13781360.27348 -10723704.42544  21210010.0634                   21210008.9384
   4359225.97347   3409248.33943  22190994.1954                   22190993.8954
  -7852771.09447  -6105590.82543  21930774.7034                   21930775.4964
   7166621.13747   5589781.04553  22982039.7974                   22982045.7154
 -22458454.70748 -17489024.94044  20163619.6724                   20163619.5634
 11  9 27 20 35 30.0000000  0  7G09G12G02G17G10G28G04
  -5701244.36747  -4427579.93143  22260059.1564                   22260060.0164
   2472978.05147   1941552.98143  23442167.7664                   23442169.4964
 -13854535.40248 -10780723.95944  21196085.1884                   21196083.9224
   4371958.82047   3419169.97543  22193417.1644                   22193416.6174
  -7950881.10947  -6182040.24743  21912105.1484                   21912105.8244
   7221597.043 7                  22992502.133
 -22449192.49648 -17481807.63944  20165382.2814                   20165382.0084
 11  9 27 20 36  0.0000000  0  8G09G12G02G17G10G05G28G04
  -5697805.62547  -4424900.57243  22260713.1564                   22260714.9454
   2351490.08647   1846887.05643  23419049.3364                   23419050.4264
 -13927355.38748 -10837466.74244  21182228.0944                   21182226.3794
   4384763.93847   3429148.00943  22195854.1564                   22195854.2774
  -8048624.44548  -6258203.83943  21893504.9384                   21893506.5354
  10832017.94556   8455886.52653  24716295.4694                   24716300.5944
   7276880.40247   5675696.97553  23003022.4304                   23003018.3204
 -22439496.51648 -17474252.32044  20167227.3674                   20167227.3754
 11  9 27 20 36 30.0000000  0  8G09G12G02G17G10G05G28G04
  -5693831.46147  -4421803.76643  22261469.4384                   22261471.2934
   2230090.06647   1752289.79243  23395947.4614                   23395949.1604
 -13999829.77748 -10893940.21644  21168436.5474                   21168434.6764
   4397632.12947   3439175.04143  22198302.8834                   22198302.9734
  -8146008.02348  -6334086.96743  21874973.3134                   21874974.3554
  10699852.27347   8352900.71043  24691144.3594                   24691154.0164
   7332459.941 7                  23013598.344
 -22429378.75448 -17466368.35944  20169152.7424                   20169152.6914
 11  9 27 20 37  0.0000000  0  8G09G12G02G17G10G05G28G04
  -5689331.88347  -4418297.66243  22262325.3984                   22262328.0664
   2108772.05147   1657756.38543  23372860.7114                   23372863.4024
 -14071966.42248 -10950150.55744  21154709.5784                   21154707.8014
   4410555.67247   3449245.29643  22200761.9844                   22200762.3714
  -8243036.50048  -6409693.51943  21856509.7814                   21856510.8284
  10567569.39547   8249823.59843  24665972.1334                   24665981.4384
   7388326.500 7                  23024229.609
 -22418849.12548 -17458163.44744  20171156.4844                   20171156.7274
 11  9 27 20 37 30.0000000  0  8G09G12G02G17G10G05G28G04
  -5684302.15647  -4414378.37443  22263282.9614                   22263285.0434
   1987545.61347   1563294.30943  23349792.5864                   23349793.8754
 -14143758.51648 -11006092.41844  21141047.9304                   21141045.6844
   4423541.65247   3459364.28343  22203233.2734                   22203232.4184
  -8339699.79348  -6485015.44843  21838115.2734                   21838115.6954
  10435178.50847   8146662.15953  24640778.1644                   24640786.8834
   7444485.605 7                  23034916.797
 -22407902.99248 -17449633.99344  20173239.4384                   20173239.0514
 11  9 27 20 38  0.0000000  0  8G09G12G02G17G10G05G28G04
  -5678735.32047  -4410040.62743  22264342.2734                   22264344.2464
   1866421.86347   1468912.10243  23326743.2504                   23326745.5124
 -14215197.18748 -11061758.83744  21127453.4304                   21127452.2344
   4436599.47747   3469539.06843  22205718.2734                   22205718.8204
  -8435986.08647  -6560043.68343  21819792.2344                   21819792.7814
  10302691.22347   8043425.90943  24615565.9454                   24615575.4964
   7500944.88747   5850292.02253  23045661.2424                   23045659.7894
 -22396533.60948 -17440774.74644  20175402.7664                   20175402.5784
 11  9 27 20 38 30.0000000  0  8G09G12G02G17G10G05G28G04
  -5672633.83647  -4405286.21643  22265503.4224                   22265505.6764
   1745402.64147   1374611.72043  23303713.9774                   23303716.6644
 -14286282.47348 -11117149.92244  21113926.2734                   21113924.8134
   4449729.00047   3479769.90243  22208216.3594                   22208217.1844
  -8531892.62547  -6634775.98043  21801542.0314                   21801543.4384
  10170109.707 6                  24590336.203
   7557702.61747   5894518.78443  23056461.3054                   23056462.2814
 -22384743.14548 -17431587.34044  20177646.8754                   20177646.9024
 11  9 27 20 39  0.0000000  0  8G09G12G02G17G10G05G28G04
  -5665994.51647  -4400112.70043  22266766.9064                   22266767.8674
   1624495.84847   1280398.70543  23280706.2894                   23280707.2304
 -14357008.35548 -11172260.97944  21100467.4924                   21100465.4574
   4462936.64147   3490061.55243  22210729.9694                   22210729.8324
  -8627410.54747  -6709205.37343  21783365.0704                   21783366.5634
  10037442.38746   7836739.30353  24565089.8524                   24565097.8714
   7614763.242 7                  23067319.789
 -22372528.28548 -17422069.29044  20179970.9454                   20179970.8834
 11  9 27 20 39 30.0000000  0  8G09G12G02G17G10G05G28G04
  -5658821.00447  -4394522.96943  22268132.3524                   22268133.9734
   1503702.68447   1186274.30943  23257720.3524                   23257720.0984
 -14427376.50048 -11227093.18944  21087077.1644                   21087074.6684
   4476221.03547   3500412.96543  22213257.9384                   22213258.4344
  -8722538.42647  -6783330.97243  21765263.2894                   21765264.5594
   9904690.57046   7733296.77742  24539828.1174                   24539837.0234
   7672123.852 7                  23078234.789
 -22359892.49648 -17412223.21244  20182375.3674                   20182374.8014
 11  9 27 20 40  0.0000000  0  8G09G12G02G17G10G05G28G04
  -5651112.83247  -4388516.61643  22269598.8834                   22269600.5784
   1383027.71547   1092242.04943  23234756.3524                   23234758.5164
 -14497384.06648 -11281644.51344  21073754.7504                   21073753.1994
   4489585.42247   3510826.68643  22215800.8594                   22215801.4384
  -8817270.53147  -6857148.09043  21747235.8754                   21747237.3674
   9771858.746 6                  24514550.500
   7729785.582 7                  23089208.102
 -22346835.36748 -17402048.83744  20184860.1484                   20184860.0434
 11  9 27 20 40 30.0000000  0  8G09G12G02G17G10G05G28G04
  -5642869.88747  -4382093.61943  22271167.5234                   22271167.6884
   1262475.73847    998305.35643  23211815.7584                   23211817.9964
 -14567029.14548 -11335913.35844  21060501.6954                   21060500.2624
   4503032.27347   3521304.74043  22218359.7734                   22218359.9924
  -8911601.51647  -6930652.71043  21729284.8284                   21729286.1334
   9638952.17647   7526229.75155  24489259.7034                   24489262.6174
   7787749.246 7                  23100238.055
 -22333357.09848 -17391546.28144  20187424.8914                   20187425.1024
 11  9 27 20 41  0.0000000  0  8G09G12G02G17G10G05G28G04
  -5634095.87547  -4375256.66143  22272836.7274                   22272838.6994
   1142047.87547    904465.67343  23188899.4224                   23188900.3794
 -14636312.75848 -11389900.53344  21047317.6254                   21047315.3754
   4516560.84047   3531846.48143  22220935.0234                   22220934.4804
  -9005529.51247  -7003843.21843  21711411.4534                   21711411.7304
   9505972.28547   7422609.60252  24463953.5394                   24463960.0004
   7846012.234 7                  23111325.781
 -22319460.64548 -17380717.88544  20190069.2814                   20190068.9224
 11  9 27 20 41 30.0000000  0  8G09G12G02G17G10G05G28G04
  -5624792.81647  -4368007.56343  22274607.4064                   22274609.2154
   1021746.95747    810724.73343  23166007.0164                   23166007.8674
 -14705234.21548 -11443605.52544  21034202.3594                   21034199.9964
   4530171.85247   3542452.42343  22223524.8524                   22223525.3834
  -9099051.15647  -7076717.14443  21693614.7194                   21693616.0314
   9372921.938 6                  24438634.313
   7904573.742 6                  23122469.164
 -22305148.04748 -17369565.19944  20192793.1254                   20192793.2034
 11  9 27 20 42  0.0000000  0  8G09G12G02G17G10G05G28G04
  -5614964.37147  -4360349.08643  22276477.4534                   22276478.6914
    901573.96947    717083.61343  23143138.2274                   23143139.3014
 -14773795.09048 -11497029.56044  21021155.2424                   21021153.1054
   4543864.13748   3553121.71643  22226130.1954                   22226130.2934
  -9192164.85547  -7149273.15843  21675895.6094                   21675897.0434
   9239802.25846   7215205.34052  24413302.4304                   24413309.7774
   7963430.688 6                  23133669.633
 -22290422.74248 -17358090.95644  20195595.4064                   20195594.7274
 11  9 27 20 42 30.0000000  0  8G09G12G02G17G10G05G28G04
  -5604614.08247  -4352283.92443  22278446.8134                   22278449.3364
    781529.50847    623542.57443  23120294.5784                   23120295.3244
 -14841996.90648 -11550173.74144  21008176.8834                   21008175.2074
   4557636.83247   3563853.61243  22228751.1254                   22228751.1414
  -9284869.21947  -7221510.31743  21658254.4534                   21658255.9844
   9106614.684 6                  24387957.578
   8022580.273 6                  23144925.820
 -22275288.34048 -17346297.93644  20198475.3594                   20198475.2814
 11  9 27 20 43  0.0000000  0  8G09G12G02G17G10G05G28G04
  -5593742.53547  -4343812.63243  22280515.4304                   22280517.9654
    661617.98447    530105.08343  23097476.1644                   23097477.1724
 -14909837.45348 -11603036.45044  20995267.2584                   20995265.0744
   4571492.15247   3574650.06243  22231387.6954                   22231388.1174
  -9377159.35547  -7293424.59643  21640692.3444                   21640692.8954
   8973364.00046   7007592.04752  24362601.1414                   24362607.8794
   8082023.031 6                  23156237.367
 -22259745.36748 -17334186.51044  20201432.8444                   20201432.4454
 11  9 27 20 43 30.0000000  0  8G09G12G02G17G10G05G28G04
  -5582354.89147  -4334939.12443  22282682.4844                   22282685.5394
    541839.26247    436771.27343  23074682.8204                   23074683.8954
 -14977319.78948 -11655620.00344  20982425.6024                   20982424.0784
   4585427.98447   3585508.96743  22234039.7034                   22234039.5314
  -9469034.94547  -7365015.85843  21623208.8444                   21623209.6214
   8840049.71546   6903711.23842  24337231.1884                   24337239.4184
   8141754.855 6                  23167604.242
 -22243798.52048 -17321760.44844  20204467.4454                   20204467.1374
 11  9 27 20 44  0.0000000  0  8G09G12G02G17G10G05G28G04
  -5570454.07447  -4325665.84943  22284947.5004                   22284950.0554
    422195.07447    343542.10243  23051915.1884                   23051915.5164
 -15044444.60948 -11707925.00944  20969652.4064                   20969649.7584
   4599444.02047   3596430.48843  22236706.8054                   22236706.7194
  -9560493.48847  -7436282.13643  21605804.9844                   21605806.5824
   8706674.04246   6799782.57442  24311850.0784                   24311858.2274
   8201773.512 6                  23179025.023
 -22227450.42248 -17309021.63344  20207578.6564                   20207578.9964
 11  9 27 20 44 30.0000000  0  8G09G12G02G17G10G05G28G04
  -5558048.86347  -4315999.44443  22287308.2504                   22287310.2274
    302681.77047    250414.99943  23029172.5314                   23029173.5634
 -15111217.91848 -11759956.10644  20956945.7274                   20956943.6054
   4613534.66847   3607410.23143  22239387.8914                   22239388.4064
  -9651538.10547  -7507225.99643  21588479.1094                   21588479.9694
   8573233.70346   6695803.48043  24286457.0864                   24286463.0234
   8262071.473 6                  23190499.586
 -22210709.67648 -17295976.93844  20210763.9534                   20210764.3014
 11  9 27 20 45  0.0000000  0  8G09G12G02G17G10G05G28G04
  -5545136.43447  -4305937.90243  22289765.3984                   22289768.3094
    183306.78947    157395.66143  23006455.9774                   23006456.7774
 -15177634.39548 -11811709.13744  20944307.2344                   20944305.2384
   4627705.81346   3618452.70543  22242084.7734                   22242085.5354
  -9742160.65647  -7577840.80743  21571234.7344                   21571234.9654
   8439736.211 6                  24261052.570
   8322652.574 7                  23202028.273
 -22193573.25448 -17282623.91944  20214025.2504                   20214024.8874
 11  9 27 20 45 30.0000000  0  8G09G12G02G17G10G05G28G04
  -5531723.04347  -4295485.91543  22292318.0164                   22292320.7304
     64068.63347     64482.94343  22983765.4144                   22983766.3094
 -15243698.43448 -11863187.61444  20931735.3984                   20931733.6484
   4641953.86347   3629555.00043  22244795.6884                   22244796.0594
  -9832362.34847  -7648127.73243  21554069.6644                   21554070.4924
   8306180.27346   6487710.91253  24235637.6564                   24235640.3524
   8383511.344 6                  23213608.922
 -22176047.24248 -17268967.27844  20217359.9774                   20217359.7344
 11  9 27 20 46  0.0000000  0  8G09G12G02G17G10G05G28G04
  -5517808.98447  -4284643.78243  22294965.8594                   22294967.7624
    -55028.00847    -28319.55443  22961102.0704                   22961103.0634
 -15309407.72348 -11914389.60944  20919231.3834                   20919230.2154
   4656281.03147   3640718.91043  22247522.2034                   22247522.5434
  -9922138.11747  -7718082.85743  21536985.8284                   21536986.8984
   8172570.92246   6383600.13543  24210212.3054                   24210216.7814
   8444648.238 7                  23225243.711
 -22158131.86348 -17255007.26144  20220769.5944                   20220769.9304
 11  9 27 20 46 30.0000000  0  8G09G12G02G17G10G05G28G04
  -5503404.12947  -4273419.32743  22297706.8594                   22297709.4884
   -173987.91447   -121015.42943  22938464.6884                   22938465.3134
 -15374769.62148 -11965320.90244  20906793.5784                   20906791.4454
   4670680.65247   3651939.41943  22250262.7194                   22250263.0664
 -10011492.30147  -7787709.35243  21519982.1414                   21519982.7194
   8038903.629 6                  24184775.672
   8506054.301 6                  23236928.789
 -22139836.55148 -17240751.15644  20224250.9144                   20224250.7814
 11  9 27 20 47  0.0000000  0  8G09G12G02G17G10G05G28G04
  -5488506.89847  -4261811.13843  22300542.0394                   22300543.9224
   -292804.85247   -213599.92743  22915854.5084                   22915854.7934
 -15439780.10948 -12015978.39844  20894422.3984                   20894420.2704
   4685157.44147   3663219.93843  22253017.5234                   22253018.1804
 -10100417.75447  -7857001.89443  21503060.0704                   21503061.1254
   7905185.07446   6175248.31853  24159329.7114                   24159336.4654
   8567732.633 6                  23248665.852
 -22121159.57848 -17226197.66044  20227805.0394                   20227804.6454
 11  9 27 20 47 30.0000000  0  8G09G12G02G17G10G05G28G04
  -5473122.36747  -4249823.21343  22303469.6254                   22303471.2464
   -411478.59447   -306072.90743  22893271.8984                   22893272.3094
 -15504441.81648 -12066364.11144  20882117.7424                   20882115.0664
   4699709.19947   3674558.98743  22255786.8984                   22255786.8794
 -10188914.53147  -7925960.32943  21486219.9224                   21486220.7814
   7771415.46546   6071012.60542  24133873.6804                   24133881.4414
   8629678.684 6                  23260454.227
 -22102105.24648 -17211350.16644  20231430.7274                   20231430.7464
 11  9 27 20 48  0.0000000  0  8G09G12G02G17G10G05G28G04
  -5457256.09447  -4237459.97143  22306488.7814                   22306491.2034
   -530009.80947   -398434.74643  22870715.7424                   22870716.9454
 -15568757.98848 -12116480.57244  20869878.6484                   20869876.2854
   4714333.39847   3685954.45843  22258570.1884                   22258570.0744
 -10276982.52047  -7994584.64343  21469460.7504                   21469461.2704
   7637594.59446   5966736.98452  24108408.5234                   24108413.0474
   8691888.156 6                  23272292.227
 -22082679.39848 -17196213.13444  20235127.3134                   20235127.4454
 11  9 27 20 48 30.0000000  0  8G09G12G02G17G10G05G28G04
  -5440911.27047  -4224723.75843  22309598.9454                   22309602.0434
   -648396.74647   -490684.36243  22848186.9774                   22848187.7974
 -15632729.60548 -12166328.53344  20857705.3674                   20857703.3524
   4729030.16047   3697406.44343  22261366.4844                   22261367.3874
 -10364619.40247  -8062873.04643  21452784.4534                   21452785.4224
   7503724.63346   5862423.12443  24082933.8204                   24082939.9304
   8754358.641 6                  23284179.313
 -22062884.38348 -17180788.48644  20238894.1644                   20238894.5824
 11  9 27 20 49  0.0000000  0  8G09G12G02G17G10G05G28G04
  -5424092.03547  -4211617.93643  22312799.7974                   22312801.9534
   -766638.29747   -582820.44543  22825686.6334                   22825687.8874
 -15696358.12948 -12215909.13944  20845597.0234                   20845594.9184
   4743798.05147   3708913.77643  22264176.4614                   22264177.1214
 -10451823.86747  -8130824.55043  21436189.6484                   21436190.2854
   7369806.54346   5758071.48243  24057449.7424                   24057456.9734
   8817087.17246   6875857.14553  23296116.6024                   23296117.2584
 -22042724.32448 -17165079.37244  20242730.6954                   20242730.3364
 11  9 27 20 49 30.0000000  0  8G09G12G02G17G10G05G28G04
  -5406801.68447  -4198144.89043  22316090.2274                   22316091.9184
   -884732.73447   -674842.02143  22803213.6414                   22803215.3134
 -15759644.43448 -12265223.16244  20833554.2664                   20833552.3364
   4758637.00448   3720476.59543  22267000.7584                   22267000.4264
 -10538593.87947  -8198437.52643  21419677.8444                   21419678.8284
   7235842.37946   5653684.28043  24031957.4064                   24031965.1804
   8880071.598 6                  23308102.234
 -22022202.26248 -17149088.15344  20246635.9064                   20246635.4224
 11  9 27 20 50  0.0000000  0  8G09G12G02G17G10G05G28G04
  -5389038.85247  -4184303.72643  22319470.0944                   22319471.3054
  -1002673.68746   -766744.07843  22780769.4534                   22780770.5084
 -15822584.62948 -12314267.39744  20821576.8524                   20821574.4384
   4773551.64848   3732098.32643  22269838.9304                   22269838.4384
 -10624922.87147  -8265706.75943  21403250.0314                   21403250.5634
   7101839.01646   5549266.52042  24006456.7974                   24006462.9224
   8943314.10246   6974215.55552  23320137.0004                   23320140.6054
 -22001316.17648 -17132813.31044  20250610.6094                   20250610.1214
 11  9 27 20 50 30.0000000  0  8G09G12G02G17G10G05G28G04
  -5370808.07047  -4170098.00043  22322939.3914                   22322941.8524
  -1120460.68047   -858525.89043  22758355.7034                   22758356.3834
 -15885180.40248 -12363043.29144  20809665.4384                   20809663.6254
   4788540.46947   3743777.79943  22272691.1334                   22272691.1954
 -10710809.54747  -8332631.42043  21386906.3524                   21386906.9774
   6967797.28546   5444818.72943  23980948.8444                   23980955.9844
   9006811.37546   7023693.58753  23332220.8444                   23332224.6804
 -21980070.30148 -17116258.11344  20254653.2734                   20254653.5164
 11  9 27 20 51  0.0000000  0  8G09G12G02G17G10G05G28G04
  -5352110.88747  -4155528.84543  22326496.6644                   22326500.5314
  -1238089.54747   -950184.74843  22735972.1024                   22735972.1374
 -15947431.40648 -12411550.51444  20797819.4144                   20797817.3244
   4803605.19947   3755516.54743  22275557.9454                   22275558.5164
 -10796250.01247  -8399208.27443  21370647.5084                   21370647.8204
   6833721.34846   5340344.44143  23955434.8134                   23955440.2774
   9070563.05146   7073370.33243  23344352.9304                   23344356.1454
 -21958465.64848 -17099423.29744  20258764.6094                   20258764.2034
 11  9 27 20 51 30.0000000  0  8G09G12G02G17G10G05G28G04
  -5332947.27047  -4140596.10743  22330144.0394                   22330146.1094
  -1355555.37547  -1041716.38443  22713619.1804                   22713620.2894
 -16009334.94548 -12459786.99744  20786039.5554                   20786037.2854
   4818748.97347   3767316.85743  22278439.5784                   22278440.1954
 -10881239.10547  -8465433.56443  21354474.5394                   21354474.7274
   6699616.387 6                  23929915.875
   9134569.79746   7123245.47853  23356533.1804                   23356535.8164
 -21936502.07448 -17082308.83544  20262944.0634                   20262943.8714
 11  9 27 20 52  0.0000000  0  8G09G12G02G17G10G05G28G04
  -5313319.53547  -4125301.83143  22333879.2734                   22333881.2424
  -1472855.00847  -1133118.57843  22691297.8524                   22691298.2734
 -16070890.76248 -12507752.55544  20774325.8984                   20774323.8324
   4833973.03147   3779179.75243  22281336.5944                   22281337.7974
 -10965773.41847  -8531304.41943  21338387.9614                   21338388.3914
   6565485.84846   5131330.43253  23904391.4304                   23904395.5664
   9198830.65646   7173318.57842  23368761.5704                   23368765.4774
 -21914181.23048 -17064916.01144  20267191.7034                   20267190.9304
 11  9 27 20 52 30.0000000  0  8G09G12G02G17G10G05G28G04
  -5293231.26247  -4109648.67643  22337701.5634                   22337703.3754
  -1589987.18747  -1224390.43943  22669008.4064                   22669008.3134
 -16132100.03548 -12555448.05244  20762677.9224                   20762675.2384
   4849276.55547   3791104.49543  22284248.3284                   22284249.5394
 -11049851.10248  -8596819.40443  21322388.6024                   21322388.7344
   6431331.51646   5026795.08753  23878861.7114                   23878868.6914
   9263343.270 6                  23381037.883
 -21891506.24648 -17047247.18144  20271506.5234                   20271506.4144
 11  9 27 20 53  0.0000000  0  8G09G12G02G17G10G05G28G04
  -5272686.28147  -4093639.64643  22341611.7974                   22341613.5004
  -1706950.39847  -1315530.44943  22646750.7734                   22646750.9844
 -16192964.07848 -12602874.51644  20751095.7194                   20751093.7074
   4864659.08647   3803090.82443  22287175.4534                   22287176.5824
 -11133470.71548  -8661977.49043  21306476.3594                   21306477.1764
   6297155.03147   4922242.28253  23853328.4224                   23853333.5234
   9328104.52746   7274051.17753  23393361.7734                   23393364.5044
 -21868480.76248 -17029305.26844  20275888.1414                   20275887.6644
 11  9 27 20 53 30.0000000  0  8G09G12G02G17G10G05G28G04
  -5251686.54747  -4077276.23443  22345607.7894                   22345609.8284
  -1823741.55147  -1406536.45243  22624526.1254                   22624526.7154
 -16253482.45748 -12650031.68744  20739579.4924                   20739576.9964
   4880122.00847   3815139.88743  22290118.5084                   22290119.0594
 -11216628.53948  -8726775.72243  21290651.7584                   21290651.8244
   6162960.12547   4817675.06553  23827791.9844                   23827798.8954
   9393113.64146   7324707.11943  23405732.7974                   23405734.3674
 -21845106.14848 -17011091.28144  20280336.7274                   20280335.9924
 11  9 27 20 54  0.0000000  0  8G09G12G02G17G10G05G28G04
  -5230232.50847  -4060558.96043  22349690.4694                   22349692.1914
  -1940355.21547  -1497404.17443  22602335.8524                   22602335.8524
 -16313652.73848 -12696917.61944  20728129.6884                   20728127.7304
   4895667.88347   3827253.50743  22293076.3754                   22293077.1604
 -11299319.71548  -8791210.37343  21274916.1414                   21274917.1294
   6028751.73447   4713097.33543  23802252.6414                   23802259.0354
   9458371.418 6                  23418150.945
 -21821382.27048 -16992605.14944  20284850.7894                   20284850.2734
 11  9 27 20 54 30.0000000  0  8G09G12G02G17G10G05G28G04
  -3632906.16047  -2815888.98643  22653651.7034                   22653653.4964
   -481363.87147   -360527.71343  22879971.6884                   22879972.5474
 -14798052.15248 -11515930.08544  21016538.5704                   21016536.0164
   6486718.55147   5067033.17343  22595843.6724                   22595844.6414
  -9806117.35248  -7627675.98343  21559063.0704                   21559063.5044
   7469958.65247   5836115.98643  24076505.5634                   24076510.4144
  11099295.504 6                  23730408.547
 -20221890.91448 -15746248.27144  20589224.0164                   20589224.1684
 11  9 27 20 55  0.0000000  0  8G09G12G02G17G10G05G28G04
  -3610549.20346  -2798468.08643  22657906.0474                   22657908.4924
   -597613.34447   -451111.68843  22857850.4384                   22857851.3094
 -14857525.33248 -11562272.77444  21005221.1644                   21005218.9574
   6502435.28147   5079279.83543  22598834.1884                   22598834.1884
  -9887864.66848  -7691375.17743  21543506.9144                   21543507.9344
   7335734.30147   5731525.98852  24050963.3914                   24050963.4104
  11165047.81646   8705434.50053  23742921.1334                   23742920.6454
 -20197473.28148 -15727221.52744  20593870.5164                   20593870.6954
 11  9 27 20 55 30.0000000  0  8G09G12G02G17G10G05G28G04
  -3587744.64847  -2780698.42743  22662245.2344                   22662247.8594
   -713676.24247   -541550.19143  22835764.0084                   22835764.2894
 -14916649.67248 -11608343.67944  20993970.5634                   20993968.4534
   6518238.36347   5091593.97243  22601841.5314                   22601842.3714
  -9969135.60548  -7754703.10743  21528041.5004                   21528041.9804
   7201506.85247   5626933.58943  24025420.0474                   24025423.8634
  11231045.297 6                  23755480.625
 -20172711.56648 -15707926.73444  20598582.3364                   20598582.3524
 11  9 27 20 56  0.0000000  0  8G09G12G02G17G10G05G28G04
  -3564495.74247  -2762582.31643  22666669.2734                   22666672.6954
   -829550.38347   -631841.61743  22813714.2814                   22813713.9344
 -14975426.40648 -11654143.69744  20982785.7734                   20982782.5514
   6534127.91447   5103975.42643  22604864.9384                   22604866.1134
 -10049928.07048  -7817658.23243  21512667.1414                   21512668.3244
   7067278.40247   5522340.45343  23999877.1884                   23999880.6374
  11297285.828 6                  23768085.523
 -20147608.62148 -15688366.02644  20603359.3364                   20603359.5664
 11  9 27 20 56 30.0000000  0  8G09G12G02G17G10G05G28G04
  -3540808.19546  -2744124.51543  22671177.1954                   22671179.1914
   -945236.62547   -721986.74943  22791699.2664                   22791700.0904
 -15033858.37148 -11699675.05244  20971666.2034                   20971664.2544
   6550101.55947   5116422.35843  22607905.1884                   22607905.8244
 -10130242.52748  -7880240.90143  21497384.0474                   21497384.0354
   6933048.77047   5417746.25042  23974333.8284                   23974337.0704
  11363764.648 6                  23780736.594
 -20122169.83648 -15668543.57944  20608200.1484                   20608199.7974
 11  9 27 20 57  0.0000000  0  8G09G12G02G17G10G05G28G04
  -3516693.32847  -2725333.85343  22675766.1024                   22675768.6604
  -1060740.14547   -811989.38243  22769719.7894                   22769720.1054
 -15091954.11348 -11744944.42344  20960611.0634                   20960608.5234
   6566151.63347   5128928.81543  22610959.6174                   22610959.5004
 -10210084.57448  -7942455.40443  21482190.7504                   21482190.2584
   6798813.01247   5313147.20043  23948788.6954                   23948795.1174
  11430472.016 6                  23793430.281
 -20096405.51648 -15648467.52644  20613103.1094                   20613103.4344
 11  9 27 20 57 30.0000000  0  8G09G12G02G17G10G05G28G04
  -3492152.00047  -2706210.69843  22680436.2584                   22680438.6764
  -1176056.78147   -901846.24643  22747775.8834                   22747776.3244
 -15149712.40648 -11789950.86144  20949619.6414                   20949617.6094
   6582280.69147   5141496.87943  22614028.7584                   22614029.0044
 -10289450.03548  -8004298.61244  21467087.5394                   21467088.4024
   6664575.67247   5208547.07843  23923244.4224                   23923249.6884
  11497407.395 6                  23806167.469
 -20070316.34048 -15628138.26344  20618067.4774                   20618067.4454
 11  9 27 20 58  0.0000000  0  8G09G12G02G17G10G05G28G04
  -3467184.30947  -2686755.46343  22685187.7814                   22685189.6954
  -1291181.27747   -991553.64543  22725868.4064                   22725868.5274
 -15207130.66848 -11834692.30844  20938693.1884                   20938690.8954
   6598492.12147   5154129.22343  22617113.8834                   22617115.3874
 -10368332.97348  -8065765.76443  21452076.5944                   21452077.0634
   6530342.41047   5103950.07853  23897700.0634                   23897705.4574
  11564572.426 6                  23818949.500
 -20043901.88348 -15607555.62944  20623094.0554                   20623094.0944
 11  9 27 20 58 30.0000000  0  8G09G12G02G17G10G05G28G04
  -3441794.09447  -2666970.95643  22690019.1954                   22690021.4734
  -1406111.99647  -1081109.95543  22703997.9144                   22703997.4844
 -15264210.35248 -11879169.96644  20927831.3284                   20927829.5594
   6614785.40647   5166825.10943  22620214.0234                   22620214.8554
 -10446732.20348  -8126856.01344  21437157.7584                   21437158.2584
   6396114.60247   4999357.25243  23872157.4614                   23872161.7194
  11631964.734 6                  23831774.594
 -20017165.19948 -15586721.85244  20628181.9924                   20628181.6024
 11  9 27 20 59  0.0000000  0  8G09G12G02G17G10G05G28G04
  -3415987.43047  -2646861.87043  22694930.0004                   22694932.9224
  -1520849.26647  -1170515.57743  22682163.7734                   22682163.9414
 -15320954.84848 -11923386.39244  20917033.3984                   20917031.2384
   6631157.91847   5179582.96243  22623329.8524                   22623330.3554
 -10524648.21948  -8187569.67643  21422331.1564                   21422331.8364
   6261892.28947   4894768.70342  23846616.1564                   23846619.8984
  11699578.64146   9121945.75053  23844641.1334                   23844645.3874
 -19990111.86748 -15565641.30044  20633330.1884                   20633330.5044
 11  9 27 20 59 30.0000000  0  8G09G12G02G17G10G05G28G04
  -3389769.03547  -2626432.06043  22699919.1024                   22699921.4774
  -1635392.28947  -1259769.72243  22660366.9064                   22660367.6214
 -15377366.37548 -11967343.41044  20906298.8364                   20906296.1724
   6647608.23047   5192401.35843  22626460.2274                   22626460.2664
 -10602080.46948  -8247906.56344  21407595.8914                   21407596.7974
   6127676.46947   4790185.35542  23821074.9144                   23821078.6334
  11767410.777 6                  23857548.773
 -19962746.15248 -15544317.44244  20638537.6884                   20638537.8244
 11  9 27 21  0  0.0000000  0  8G09G12G02G17G10G05G28G04
  -3363140.64847  -2605682.74343  22704986.6564                   22704987.7734
  -1749737.60947  -1348870.01643  22638607.6564                   22638608.7114
 -15433444.25448 -12011040.43044  20895627.3054                   20895625.2424
   6664138.25447   5205282.01243  22629606.1644                   22629605.7544
 -10679025.47748  -8307863.61743  21392953.6954                   21392954.6214
   5993471.30547   4685610.13742  23795536.6804                   23795540.3914
  11835460.391 6                  23870498.125
 -19935068.99648 -15522750.77844  20643804.2504                   20643803.7704
 11  9 27 21  0 30.0000000  0  8G09G12G02G17G10G05G28G04
  -3336104.04347  -2584615.27643  22710131.2974                   22710133.3324
  -1863881.30947  -1437812.98343  22616886.9614                   22616886.8014
 -15489187.65248 -12054476.80744  20885019.6174                   20885018.1414
   6680749.87147   5218225.97643  22632767.2034                   22632767.7894
 -10755479.32848  -8367437.98143  21378405.1954                   21378405.4184
   5859281.06347   4581046.59443  23770000.4924                   23770006.1024
  11903727.195 6                  23883489.445
 -19907081.64148 -15500942.51544  20649130.5004                   20649129.6524
 11  9 27 21  1  0.0000000  0  8G09G12G02G17G10G05G28G04
  -3308662.90247  -2563232.71943  22715353.3914                   22715355.5944
  -1977821.48047  -1526597.46243  22595204.5084                   22595205.6294
 -15544597.59048 -12097653.34544  20874475.6884                   20874472.6604
   6697442.62547   5231233.20643  22635943.4614                   22635944.1214
 -10831440.30148  -8426628.31443  21363949.8364                   21363950.4414
   5725107.85246   4476496.52853  23744467.6094                   23744472.3714
  11972208.625 6                  23896521.250
 -19878787.07848 -15478894.79744  20654514.4774                   20654514.1484
 11  9 27 21  1 30.0000000  0  8G09G12G02G17G10G05G28G04
  -3280823.02347  -2541539.18143  22720651.1334                   22720652.7384
  -2091558.50047  -1615223.57743  22573561.3204                   22573561.9304
 -15599677.28948 -12140572.56944  20863994.2194                   20863991.4024
   6714214.35547   5244302.10643  22639135.7814                   22639135.6884
 -10906909.03148  -8485435.04443  21349588.8594                   21349589.2154
   5590951.66847   4371959.56043  23718938.2194                   23718942.4884
  12040899.914 6                  23909592.898
 -19850190.31248 -15456611.63544  20659956.2584                   20659955.8094
 11  9 27 21  2  0.0000000  0  8G09G12G02G17G10G05G28G04
  -3252585.32447  -2519535.83753  22726025.1094                   22726026.5274
  -2205087.48047  -1703687.64043  22551957.0084                   22551957.4064
 -15654425.06648 -12183233.15744  20853575.9774                   20853574.0864
   6731067.90647   5257434.75643  22642342.1954                   22642343.0354
 -10981880.61748  -8543854.42643  21335322.2344                   21335321.7624
   5456817.39847   4267439.66743  23693413.7974                   23693418.2274
  12109801.672 6                  23922705.070
 -19821291.73848 -15434093.28044  20665455.5634                   20665455.6994
 11  9 27 21  2 30.0000000  0  8G09G12G02G17G10G05G28G04
  -3223953.82447  -2497225.64843  22731473.4924                   22731475.6134
  -2318407.03547  -1791988.45543  22530392.4924                   22530393.5394
 -15708842.55148 -12225636.35744  20843220.5784                   20843218.4024
   6748002.92247   5270630.81243  22645565.1024                   22645565.1764
 -11056354.05148  -8601885.68643  21321150.4844                   21321151.3054
   5322707.10947   4162938.37943  23667892.6564                   23667898.4384
  12178910.602 6                  23935856.125
 -19792094.71948 -15411342.38744  20671011.2734                   20671011.1484
 11  9 27 21  3  0.0000000  0  8G09G12G02G17G10G05G28G04
  -3194927.91447  -2474608.07343  22736996.5704                   22736998.9924
  -2431510.68047  -1880121.09643  22508869.9924                   22508870.6134
 -15762926.52348 -12267779.66644  20832928.8674                   20832926.0664
   6765023.23447   5283893.36343  22648803.6644                   22648805.1174
 -11130323.37148  -8659524.00243  21307074.6334                   21307075.0864
   5188627.31347   4058460.98143  23642377.8594                   23642382.1844
  12248228.438 6                  23949047.555
 -19762597.90648 -15388357.89444  20676624.5944                   20676624.7034
 11  9 27 21  3 30.0000000  0  8G09G12G02G17G10G05G28G04
  -3165510.03147  -2451685.23243  22742594.4224                   22742596.7344
  -2544395.18047  -1968082.96343  22487388.8984                   22487388.5354
 -15816677.10248 -12309663.19444  20822700.5234                   20822698.3404
   6782129.99647   5297223.20643  22652059.3674                   22652059.6214
 -11203785.78148  -8716767.31943  21293094.8204                   21293095.0274
   5054581.69947   3954010.17143  23616869.7504                   23616873.5234
  12317754.293 6                  23962277.336
 -19732802.96948 -15365141.02144  20682294.3914                   20682294.8364
 11  9 27 21  4  0.0000000  0  8G09G12G02G17G10G05G28G04
  -3135699.14147  -2428456.03143  22748267.2814                   22748270.1804
  -2657054.01647  -2055868.99843  22465950.3364                   22465950.5394
 -15870090.15248 -12351283.76145  20812536.1564                   20812533.2774
   6799328.35947   5310624.48243  22655332.0004                   22655332.5394
 -11276734.53948  -8773610.50343  21279213.0314                   21279213.0744
   4920576.84847   3849591.08143  23591369.2114                   23591373.5514
  12387490.535 6                  23975548.109
 -19702708.02748 -15341690.50244  20688021.2424                   20688021.2274
 11  9 27 21  4 30.0000000  0  8G09G12G02G17G10G05G28G04
  -3105496.95747  -2404921.91643  22754015.0944                   22754016.5824
  -2769483.45347  -2143476.32043  22444555.7114                   22444555.2034
 -15923165.23048 -12392640.93144  20802436.2424                   20802434.2074
   6816620.18047   5324098.57843  22658622.4454                   22658623.3054
 -11349166.02748  -8830050.59343  21265429.8914                   21265430.8484
   4786617.13747   3745207.00143  23565877.0864                   23565880.7544
  12457436.309 6                  23988858.375
 -19672314.19948 -15318007.00144  20693805.0784                   20693804.8674
